GFSSGP_sfc_temp_000.txt.gz
Temp
74 74 68 66 56 51 47 53 56 60 63 65 67 65 63 63 64 57 66 71 71 72 75 77 79 79 79 78 78 77 77 77 77 78 78 78 78 78 78 78 78 77 77 76 75 75 75 75 75
71 74 67 57 49 44 48 56 57 61 65 68 68 67 64 61 67 66 66 71 73 73 75 76 78 78 78 78 77 77 77 77 77 78 79 79 79 79 79 78 78 77 76 75 75 74 74 74 74
74 72 60 52 46 44 48 57 61 65 69 67 65 69 64 63 68 68 69 73 74 73 75 76 78 78 78 77 77 77 77 77 77 77 77 76 77 78 78 79 79 76 75 75 74 74 74 74 74
68 64 59 50 47 52 55 60 64 65 69 69 66 63 66 68 69 73 73 74 72 71 72 75 77 78 77 77 77 77 77 77 77 77 76 76 76 76 77 78 76 75 75 74 74 74 74 74 74
64 57 48 45 48 54 57 64 64 62 63 66 67 62 62 69 70 73 73 74 71 71 73 75 77 77 77 77 77 77 77 77 77 77 77 76 76 76 77 77 76 75 75 75 75 75 75 75 74
57 55 44 42 48 56 58 64 65 64 62 66 64 60 61 67 70 72 74 70 74 73 74 75 76 76 76 76 76 76 77 77 77 76 76 76 75 76 76 76 75 75 75 75 75 74 74 74 74
53 48 44 45 49 52 59 65 60 64 62 64 66 58 61 64 72 74 73 71 71 73 73 72 74 74 75 75 75 76 76 76 76 76 76 75 74 75 75 75 75 75 74 74 74 74 74 74 74
56 52 45 46 49 51 61 64 65 64 63 69 70 59 60 69 71 72 72 70 70 71 72 71 71 72 71 72 74 74 75 74 75 74 73 71 71 72 74 73 73 74 73 73 73 73 73 73 73
59 45 43 48 50 56 62 60 67 69 65 66 68 67 71 71 70 67 65 68 68 70 70 71 70 70 70 70 71 73 73 73 72 71 70 69 64 65 67 69 70 72 73 73 73 73 73 72 70
52 45 48 55 57 57 62 62 64 61 61 61 62 68 70 68 65 66 65 66 66 67 68 69 69 69 69 74 69 68 69 68 67 67 66 65 64 64 68 67 69 71 72 72 73 73 72 70 65
53 49 55 58 63 62 60 60 66 62 58 63 64 65 67 66 66 66 66 66 69 71 70 70 69 69 69 70 67 66 66 65 65 65 65 65 65 63 64 63 64 64 65 64 66 65 64 64 64
48 56 59 59 63 61 57 63 60 61 63 69 68 69 68 69 68 68 66 66 66 68 71 70 71 69 67 67 67 65 65 64 64 65 65 63 62 62 62 62 63 63 63 64 67 67 68 65 63
49 54 59 61 62 63 64 59 60 61 67 68 69 70 68 68 67 69 70 70 67 67 69 69 69 69 68 67 65 65 64 65 65 65 66 65 63 63 63 63 63 65 68 67 65 60 60 59 60
54 56 57 59 61 62 61 61 58 62 66 66 67 67 66 67 68 64 67 69 66 67 69 69 69 68 67 66 65 64 64 69 65 65 66 66 64 63 64 66 65 64 59 59 58 57 56 56 56
55 50 54 55 57 58 62 56 57 64 65 65 65 65 65 65 66 66 67 66 65 65 67 68 68 68 66 66 66 65 70 70 68 68 69 69 68 68 65 63 58 57 57 57 56 56 55 54 56
46 46 42 52 57 58 58 48 59 64 61 61 62 61 62 64 64 63 64 64 63 64 65 66 71 67 66 65 66 65 68 67 67 67 67 66 65 62 60 57 55 55 55 55 54 53 52 51 50
42 36 40 46 56 55 54 51 59 65 60 60 60 59 61 59 60 61 63 63 63 63 64 64 66 66 65 64 68 67 66 65 64 60 61 61 60 59 56 55 54 54 53 52 52 51 49 48 49
40 38 42 42 49 53 52 52 57 61 59 59 60 57 57 58 59 61 63 61 62 62 62 62 65 64 64 66 67 65 62 57 57 56 58 57 56 56 54 53 53 53 51 50 49 49 49 48 47
42 40 39 43 52 49 50 51 56 59 57 57 56 55 54 56 59 60 60 60 60 59 60 61 63 63 64 64 64 62 54 54 54 55 56 56 55 55 53 51 51 51 49 47 48 47 46 46 46
41 38 38 44 51 48 47 47 54 59 60 59 59 54 54 54 56 58 58 58 59 59 59 61 63 62 63 63 57 58 56 53 52 52 53 54 54 54 54 50 49 48 48 47 46 45 44 44 44
39 37 38 38 47 51 49 45 49 56 58 62 59 58 57 57 56 55 55 56 56 57 57 60 61 61 62 61 60 55 55 52 51 50 51 52 53 52 51 50 48 47 46 44 44 43 43 41 43
34 44 44 43 39 33 48 35 44 52 54 57 57 55 56 55 56 55 55 54 55 55 57 59 61 61 61 62 59 58 54 51 50 50 49 49 51 50 50 49 48 46 45 44 44 46 42 42 40
38 47 44 43 39 36 40 36 43 51 49 54 57 55 56 57 57 56 56 56 56 55 55 57 59 59 57 56 55 53 51 50 49 48 47 48 48 49 49 48 46 45 44 43 43 42 41 41 40
46 42 42 41 37 30 38 38 38 44 50 54 53 54 55 56 54 54 54 55 53 53 53 54 56 54 55 55 53 52 50 49 48 46 45 45 45 46 47 47 45 44 43 43 42 42 41 40 40
43 37 28 25 25 27 40 37 41 48 53 60 54 52 54 56 53 53 54 54 52 51 51 53 54 51 52 52 51 51 50 49 47 46 45 45 44 44 44 44 43 43 43 43 42 41 40 40 38
38 38 29 20 21 27 41 34 40 53 58 60 59 56 55 54 55 54 54 54 53 52 51 51 52 50 50 50 49 48 48 46 46 46 45 44 44 44 44 43 43 43 43 42 41 40 39 40 37
36 32 42 34 34 29 34 38 47 52 51 52 52 53 53 54 54 53 53 53 52 51 50 51 51 49 49 48 48 46 46 46 45 44 44 43 44 48 43 43 42 41 41 41 40 38 38 38 37
40 44 31 33 22 23 32 35 41 47 49 49 51 52 53 53 52 52 53 52 52 50 48 49 50 49 47 46 47 46 45 45 44 44 43 43 43 43 42 42 41 40 40 40 39 37 38 37 37
36 35 38 38 35 28 30 36 49 52 52 51 52 54 52 52 52 52 53 53 50 48 48 47 47 47 46 45 44 44 43 43 43 43 42 42 42 42 41 41 40 39 39 39 37 37 37 37 36
43 39 40 33 31 37 32 34 50 56 55 55 54 54 53 54 53 53 52 50 49 48 47 46 46 46 45 44 44 43 43 42 42 41 41 42 41 41 40 40 40 39 39 38 36 36 36 35 34

GFSSGP_sfc_temp_003.txt.gz
Temp
73 71 66 64 54 48 44 51 54 59 60 62 64 62 63 61 62 56 66 69 70 71 73 76 79 78 78 78 77 77 77 77 77 78 78 78 78 78 78 77 78 77 77 76 75 75 75 75 75
69 72 65 55 47 41 44 51 56 61 65 65 63 63 61 59 65 63 65 70 72 72 73 74 78 78 78 78 77 77 77 77 77 78 78 78 78 78 78 78 78 78 76 76 75 74 74 74 74
71 69 59 51 43 42 45 54 56 64 67 66 63 64 61 62 66 66 68 70 72 72 73 75 78 78 78 77 77 77 77 77 77 77 77 76 78 78 78 79 78 77 76 75 74 74 73 73 73
66 63 57 48 45 49 51 55 58 62 67 67 64 61 65 67 67 71 70 71 70 70 71 75 77 77 77 77 77 77 77 77 77 77 76 76 76 77 78 78 76 76 75 74 74 73 73 74 74
61 55 47 43 46 50 54 60 59 59 64 63 63 60 60 69 69 69 69 71 69 69 71 74 77 77 77 77 77 77 77 77 76 77 76 76 76 76 77 77 76 75 74 74 74 74 74 74 74
55 53 42 42 46 52 55 60 58 60 62 62 62 59 62 66 67 68 70 68 71 70 72 74 76 77 76 76 76 76 77 77 77 76 76 76 75 76 76 76 75 75 75 74 74 74 74 74 74
52 47 43 43 46 50 56 61 57 58 59 61 67 58 61 65 70 70 68 68 70 71 72 72 73 74 75 75 75 76 76 76 76 76 76 75 74 74 75 75 75 75 74 74 74 73 74 74 74
54 50 43 44 46 50 58 61 63 61 62 65 68 59 58 68 71 70 68 68 69 70 71 71 71 72 71 72 74 74 74 75 75 74 73 71 71 72 73 72 72 73 73 73 73 73 73 73 73
56 45 42 47 48 53 58 57 63 64 60 63 64 65 67 69 69 69 64 65 67 71 71 71 71 70 70 70 71 73 73 73 72 71 70 68 63 64 66 68 70 71 73 73 73 73 73 72 70
51 45 47 52 53 54 58 58 60 60 60 58 60 66 66 66 65 66 65 64 65 68 68 71 69 69 68 72 69 68 69 68 67 67 65 64 63 62 66 66 68 71 71 71 72 72 71 67 64
51 48 54 55 59 60 57 57 62 58 56 62 63 64 62 63 63 66 66 65 65 68 67 68 68 68 68 68 66 66 65 65 65 65 64 63 63 61 62 61 62 62 64 65 65 63 63 62 60
46 53 56 57 60 58 55 59 58 59 60 65 65 64 64 64 64 65 65 66 64 65 68 69 67 67 67 66 66 65 64 64 63 64 64 62 60 61 61 61 63 65 63 64 65 61 59 59 59
47 50 56 58 59 60 61 58 56 59 63 67 66 65 65 65 65 66 66 66 66 64 67 68 67 67 67 65 65 64 64 64 63 63 64 62 61 61 61 65 66 63 62 59 57 56 56 55 55
51 52 54 56 57 57 57 58 57 58 62 62 64 64 65 64 64 62 66 68 65 67 67 67 68 67 66 65 64 63 63 64 63 62 63 65 62 61 60 61 63 62 56 56 54 53 53 52 52
52 46 51 53 54 54 57 53 54 60 62 60 61 61 64 64 64 64 67 67 67 64 65 67 67 67 66 65 65 65 65 68 67 66 68 67 67 65 64 62 58 54 54 54 53 53 52 51 53
46 43 38 49 54 55 56 46 55 62 60 59 60 59 61 62 64 62 64 64 62 62 64 65 70 67 65 65 68 66 67 67 66 66 66 66 65 63 59 55 53 52 52 52 51 49 49 48 47
42 35 37 43 54 53 52 49 56 62 61 57 57 58 60 60 60 61 62 60 60 61 62 64 66 66 64 64 66 65 66 65 64 64 63 60 62 59 54 52 51 51 50 49 49 48 46 45 47
35 35 40 38 47 50 49 50 53 57 57 58 58 59 56 58 60 60 60 59 60 61 61 62 65 63 63 64 64 63 62 61 62 60 59 56 55 54 52 51 51 50 49 47 47 46 46 45 44
39 38 40 45 49 45 46 47 52 55 55 56 54 59 55 56 56 58 58 58 58 58 59 61 61 62 64 63 62 62 58 59 57 58 54 53 53 52 51 49 49 48 47 45 46 45 44 44 43
39 39 39 45 50 48 45 44 49 52 55 57 57 59 56 53 56 57 56 55 57 57 57 57 60 61 63 63 58 60 60 55 51 51 51 52 52 52 51 48 47 46 45 44 43 42 42 42 42
37 34 39 40 44 46 43 41 47 53 56 58 60 60 59 56 55 54 53 54 55 55 56 58 60 60 60 59 60 58 57 51 49 48 48 49 50 50 49 48 46 45 44 42 42 41 41 39 41
33 41 42 40 36 30 41 31 42 46 50 55 58 53 55 53 55 54 53 54 54 54 56 59 59 59 60 63 62 60 54 50 48 47 47 47 49 48 48 47 46 44 43 42 42 44 40 39 38
37 44 41 40 36 33 36 32 36 49 47 50 52 52 53 55 56 55 56 56 55 54 56 58 58 59 58 57 58 54 51 48 47 46 46 46 46 47 47 46 44 43 42 41 41 40 39 39 38
44 40 39 38 34 26 34 33 35 42 45 49 52 53 54 54 54 53 52 53 52 53 55 57 57 54 54 55 52 54 49 48 47 44 44 44 44 44 45 45 43 43 42 41 40 39 39 38 38
41 35 27 25 25 25 37 34 38 44 48 51 54 52 50 52 52 51 52 53 52 52 53 55 56 52 52 52 51 50 49 49 47 45 43 43 43 43 43 43 42 41 41 41 40 39 38 38 36
36 35 26 21 20 23 38 30 38 49 56 58 57 53 49 51 54 53 54 54 53 52 53 54 54 50 51 50 49 48 48 47 45 45 44 43 43 43 43 42 42 41 41 40 39 38 37 38 35
34 31 39 32 34 27 30 36 43 48 49 52 51 51 49 51 52 53 53 52 51 50 50 52 51 48 48 48 46 46 45 45 44 43 43 43 42 46 42 41 41 40 40 39 38 37 36 36 35
38 42 29 30 22 21 27 31 35 42 49 53 49 51 51 52 52 52 51 51 50 48 47 48 50 49 46 46 45 45 44 44 43 43 42 42 42 42 41 40 39 39 38 38 37 36 36 35 35
36 33 35 34 29 20 22 31 42 44 49 47 48 49 50 51 51 50 51 50 48 46 47 46 47 47 45 45 43 43 42 43 42 42 41 41 41 41 40 39 39 38 37 37 36 35 36 35 34
42 36 35 28 22 31 29 32 47 46 48 50 50 52 52 52 50 51 50 47 48 46 45 44 44 45 43 43 42 42 42 42 41 41 40 41 40 40 39 38 38 37 37 36 35 34 34 34 33

GFSSGP_sfc_temp_006.txt.gz
Temp
72 69 64 63 53 47 42 48 50 55 57 61 61 65 64 59 62 57 64 67 68 70 72 75 79 79 78 78 78 77 77 77 77 78 77 78 78 77 77 78 78 77 77 76 76 75 75 75 74
68 70 63 54 47 39 43 49 52 57 60 65 64 64 62 64 64 64 66 69 70 71 73 73 78 78 78 78 77 77 77 77 77 78 78 78 78 77 78 78 78 77 76 75 75 74 74 74 74
69 67 59 50 42 40 44 51 53 60 62 61 62 64 60 62 65 66 67 70 70 71 72 74 78 78 78 77 77 77 77 77 77 78 77 78 78 78 78 79 78 77 76 75 74 73 73 73 73
64 61 55 47 44 48 50 52 55 59 64 62 61 62 64 66 65 68 69 70 70 70 71 74 77 77 77 77 77 77 77 77 77 77 76 76 77 78 78 79 77 76 75 74 74 73 73 74 74
60 54 46 42 44 48 51 56 57 57 58 59 61 60 62 67 68 67 67 70 68 68 70 73 77 77 77 77 77 77 77 76 76 77 77 76 76 77 77 77 76 75 74 74 74 74 74 74 74
54 51 40 40 45 49 53 57 56 56 58 61 58 57 62 66 66 66 68 67 69 69 70 73 76 77 76 76 76 76 76 76 76 77 77 77 75 76 76 76 75 75 74 74 74 74 74 74 74
50 46 41 40 44 48 53 58 54 57 56 59 61 56 61 64 69 68 67 67 69 69 70 71 73 74 75 75 75 76 76 76 76 76 76 75 74 74 75 75 75 74 74 74 74 74 74 74 74
52 49 40 42 45 47 57 60 61 59 60 62 63 57 57 63 69 68 67 67 67 69 70 70 71 71 71 71 74 74 74 75 75 74 73 72 71 72 73 72 72 73 73 73 73 73 74 73 73
54 44 41 43 46 50 56 55 61 62 59 60 62 61 65 66 66 65 64 65 69 70 70 71 72 71 69 70 71 72 73 73 73 72 70 68 63 63 64 68 70 71 72 73 73 73 72 70 68
50 43 45 51 52 52 56 56 56 58 57 58 60 65 64 62 62 64 63 63 67 69 71 72 72 72 68 71 69 68 69 68 67 66 65 63 62 61 65 65 68 70 70 70 71 70 69 65 60
49 46 51 53 56 57 56 55 58 55 54 59 61 63 64 60 62 64 63 64 64 67 71 71 71 70 67 68 66 66 66 65 65 64 63 62 62 60 61 60 61 61 64 66 63 60 59 57 57
43 50 53 55 58 56 53 57 55 56 58 64 63 63 62 63 62 63 63 63 63 64 66 68 70 68 67 66 65 65 64 64 63 63 63 62 60 60 60 61 63 61 64 58 56 56 56 55 55
45 48 53 55 56 56 58 55 54 56 61 64 64 63 63 63 63 63 64 63 62 64 65 66 67 67 67 65 65 64 63 63 63 63 63 62 60 60 60 65 64 62 57 55 54 53 53 52 53
49 49 50 53 53 55 54 55 54 59 60 59 61 61 62 62 63 60 63 64 63 65 64 66 67 67 66 65 64 64 63 63 62 62 62 64 65 62 63 62 60 58 55 53 52 50 50 49 49
49 44 48 50 52 51 54 50 51 60 60 58 58 59 61 62 62 63 65 64 66 64 64 64 66 66 66 66 64 65 64 65 66 66 67 66 66 65 63 59 56 52 52 51 50 50 49 48 50
45 43 36 46 50 52 53 43 53 58 60 60 61 57 58 61 63 61 63 63 63 61 61 63 69 66 65 64 65 64 66 64 66 66 66 66 64 63 59 54 51 50 50 49 49 47 47 46 45
40 32 35 42 50 50 49 44 53 58 58 56 55 55 57 58 60 60 62 61 61 60 61 63 64 64 64 65 63 62 64 61 64 64 63 62 59 59 55 50 49 49 48 47 47 46 44 43 45
32 34 38 41 46 46 45 46 52 54 54 53 53 53 55 56 60 63 61 59 60 58 60 63 64 63 62 63 62 60 60 61 61 61 60 59 55 53 50 49 48 48 47 45 45 44 43 43 42
36 35 35 40 48 45 42 43 47 51 51 50 55 53 56 55 60 59 58 57 57 57 59 62 61 60 62 61 60 59 56 58 58 58 57 56 52 51 49 48 47 46 45 43 44 42 41 42 42
40 37 36 40 46 45 42 42 48 50 51 51 52 55 54 56 54 56 55 54 55 56 57 59 60 60 61 64 62 60 59 55 55 54 54 51 50 50 50 47 45 45 43 42 41 40 40 40 40
34 33 34 34 42 44 41 38 44 51 54 56 57 58 59 59 55 55 54 53 54 54 55 56 59 61 62 60 57 56 56 55 53 51 47 48 49 48 47 46 45 43 42 40 40 39 39 38 39
32 39 39 38 33 26 38 26 38 43 46 52 55 55 55 56 54 55 53 52 53 54 53 55 58 61 62 61 60 57 54 55 51 46 45 46 47 47 46 45 44 43 41 40 41 42 38 38 36
36 42 39 38 34 30 33 29 32 41 43 49 50 50 52 56 56 54 55 57 53 53 53 55 57 60 61 62 62 60 56 50 45 44 44 44 44 45 45 44 43 42 41 40 39 38 37 37 36
43 37 37 36 36 25 31 30 32 37 42 45 50 51 53 53 52 54 53 53 52 52 52 55 58 59 60 60 60 59 54 48 45 42 42 43 42 43 44 44 42 41 40 39 38 38 37 36 36
39 33 25 24 24 22 34 30 36 42 46 47 49 51 53 51 49 49 50 53 52 51 53 55 59 56 57 55 52 55 51 49 46 44 43 42 42 41 41 42 41 40 40 39 39 37 37 36 34
35 34 25 18 22 22 34 27 33 46 52 55 56 53 50 48 48 50 53 54 52 52 53 56 57 54 52 51 48 47 48 48 45 43 43 43 42 41 41 41 40 40 40 39 37 36 36 36 34
34 29 37 31 33 25 27 33 42 47 47 49 48 52 49 48 48 49 51 52 52 52 53 53 52 50 50 48 47 45 45 45 44 43 42 41 41 44 40 40 39 39 38 38 36 35 35 34 34
37 40 29 29 20 17 24 28 31 42 42 46 49 53 47 48 48 49 49 49 49 50 48 49 52 50 46 45 46 44 43 43 42 42 41 41 40 40 40 39 38 38 37 36 35 34 35 34 34
34 32 32 34 30 18 18 26 40 42 43 46 48 50 49 48 49 49 49 49 47 46 48 47 47 46 44 44 44 43 42 42 41 40 40 40 39 39 39 38 38 37 36 35 34 33 35 34 33
40 36 34 27 21 26 21 29 46 42 44 48 48 47 45 47 47 48 47 47 47 46 46 45 45 44 43 43 43 42 42 41 40 39 39 39 38 38 38 37 37 36 35 34 33 34 34 32 32

GFSSGP_sfc_temp_009.txt.gz
Temp
75 74 72 70 62 58 52 56 62 63 65 71 71 71 71 72 70 67 73 75 74 78 79 82 79 79 79 78 78 77 77 77 78 78 78 78 78 78 78 78 78 77 77 76 76 75 75 75 75
73 75 70 63 56 50 53 58 60 65 69 70 69 71 70 71 74 74 74 74 75 78 79 81 78 78 78 78 77 77 77 77 77 78 78 78 79 78 79 78 78 78 76 76 75 74 74 74 74
75 72 66 59 52 50 53 59 64 66 68 69 70 72 72 72 74 75 77 75 76 77 79 79 78 78 78 78 77 77 77 77 77 78 78 78 79 78 79 79 78 77 76 75 74 74 73 73 74
70 69 63 56 52 54 57 62 63 65 70 71 71 69 73 76 75 76 75 75 76 76 78 78 77 78 77 77 77 77 77 77 77 77 76 77 77 78 78 79 77 76 75 74 74 74 74 74 74
66 62 55 50 52 56 59 62 65 64 65 68 70 70 71 75 75 75 74 74 75 74 77 79 77 77 77 77 77 77 77 77 77 77 77 77 76 77 77 77 76 75 75 74 74 74 75 74 74
60 59 49 47 52 56 61 64 65 65 66 68 69 69 72 75 75 73 74 74 75 73 76 78 76 77 76 76 76 76 76 76 76 77 77 77 76 76 77 76 75 75 75 74 74 74 74 74 74
56 53 49 48 50 53 59 65 63 65 65 68 72 68 74 75 76 73 74 74 74 75 75 77 79 78 75 75 75 76 76 76 76 76 76 76 74 74 75 75 75 75 74 74 74 74 74 74 74
58 56 47 49 51 53 63 63 68 66 67 73 73 68 71 75 75 74 74 73 73 74 75 76 77 78 78 78 74 74 74 75 75 74 73 72 71 72 72 72 73 73 73 73 73 73 73 72 71
59 50 46 50 50 56 62 61 67 69 67 69 72 72 74 72 71 71 70 71 71 73 74 74 76 76 76 76 75 74 73 73 73 73 70 71 73 72 72 69 70 71 72 72 73 72 70 68 67
55 48 49 54 56 57 61 61 63 65 65 66 69 73 73 71 69 70 70 70 70 72 74 74 75 75 74 75 75 75 76 76 75 74 73 73 71 72 72 68 68 70 69 70 70 69 67 68 71
53 49 54 56 59 61 59 59 64 62 59 65 67 70 72 71 70 69 71 72 72 74 75 74 74 73 72 74 73 73 74 73 73 73 72 72 71 72 72 73 73 73 68 68 70 69 69 68 68
48 53 54 57 60 59 57 60 59 60 63 69 68 69 69 71 71 70 70 72 71 70 74 75 74 71 71 74 73 73 73 73 72 72 71 71 71 70 71 72 70 70 65 68 68 67 67 66 66
49 51 55 57 57 57 58 56 58 58 64 68 68 67 68 69 70 71 71 72 72 71 72 73 74 71 71 72 73 72 72 72 73 72 71 71 71 70 70 66 64 65 67 67 66 66 65 65 65
52 51 52 54 55 56 55 57 57 62 65 63 64 66 68 67 70 71 70 71 71 73 72 73 72 71 71 71 71 72 71 71 72 72 71 70 68 65 65 63 63 65 65 65 64 64 63 63 63
52 47 50 51 53 54 56 50 51 62 64 62 63 65 67 68 69 68 73 72 74 73 74 72 72 72 72 72 72 71 69 71 71 69 69 68 66 66 64 64 63 62 63 63 63 62 62 61 62
47 47 40 50 52 54 56 45 56 61 61 60 62 62 63 67 70 72 70 71 73 72 70 71 72 71 72 72 71 69 69 66 67 67 68 67 66 64 62 59 60 61 61 61 60 59 60 59 59
42 36 38 44 52 53 51 46 55 61 58 58 60 62 62 64 66 68 68 70 71 72 69 68 71 70 70 70 68 65 66 64 66 66 65 64 63 64 61 60 59 60 59 59 59 58 57 56 57
34 35 38 40 48 49 46 46 52 57 57 58 58 60 60 61 64 69 68 69 69 68 67 68 69 69 68 67 64 61 62 62 63 62 61 61 60 60 59 58 58 59 57 57 57 56 55 54 53
40 38 37 41 48 44 44 46 50 54 54 54 56 59 60 60 65 67 66 68 66 65 65 67 65 65 65 63 62 60 57 58 59 59 59 58 57 59 58 57 57 56 55 54 55 55 53 52 53
40 37 38 44 46 45 43 42 49 52 53 55 56 57 58 60 62 64 65 63 64 64 64 65 65 64 65 65 66 63 60 57 57 56 56 56 57 58 57 56 54 54 53 53 52 52 53 51 50
40 37 39 39 42 45 42 40 47 53 55 56 57 59 61 61 62 65 63 63 61 62 62 63 63 64 65 63 62 58 57 56 54 54 53 54 57 56 56 55 54 52 53 51 50 50 50 49 49
34 41 40 38 35 30 41 29 43 48 50 52 54 57 59 60 61 64 62 61 60 61 61 62 63 64 62 63 61 59 60 57 57 54 52 54 55 54 54 53 53 52 51 50 50 50 49 49 46
37 42 39 38 35 32 35 30 38 44 44 48 53 54 57 59 61 62 62 62 62 59 59 60 62 63 62 62 63 59 58 58 53 51 52 52 53 53 52 52 51 51 50 49 49 48 48 48 47
44 39 38 37 35 26 34 32 35 42 45 48 52 55 56 59 59 60 62 60 58 57 57 59 61 62 61 61 62 60 55 53 50 50 50 51 51 51 51 50 50 49 49 49 48 47 47 46 46
40 33 26 25 25 25 36 31 37 46 50 51 53 55 55 57 57 56 55 56 57 55 56 58 60 59 62 62 60 59 57 56 53 52 51 50 50 49 49 49 49 49 48 47 47 47 46 46 45
35 34 27 20 22 26 34 28 37 47 52 54 55 56 56 56 57 54 56 57 57 56 56 59 59 58 60 58 57 58 56 54 54 52 52 52 51 50 49 48 49 48 48 47 47 46 46 45 45
33 30 39 29 31 25 30 35 43 47 49 49 51 53 54 55 55 54 54 57 56 55 57 59 59 58 55 53 53 53 53 53 51 51 51 50 49 49 48 48 47 47 47 46 45 46 45 45 44
38 40 29 29 21 20 27 29 32 41 45 47 48 52 54 54 53 53 54 55 56 56 57 59 59 55 52 51 54 53 52 52 50 50 49 49 48 48 47 47 46 46 45 45 45 44 44 44 44
34 32 33 32 30 23 23 31 41 44 46 46 48 52 52 51 52 53 53 53 54 54 55 56 53 51 50 52 51 50 49 49 49 49 48 47 47 47 46 46 45 45 44 44 44 43 43 42 42
41 37 36 27 25 28 25 30 49 47 46 47 49 50 49 49 50 51 50 49 51 52 53 53 51 49 50 49 49 48 48 47 47 46 46 47 46 46 45 44 44 43 43 43 42 42 42 41 40

GFSSGP_sfc_temp_012.txt.gz
Temp
84 89 89 85 70 69 64 66 74 71 73 80 81 78 79 81 79 74 82 86 85 87 89 84 79 79 79 79 78 77 77 77 78 79 78 78 78 78 78 78 78 77 77 76 76 75 75 75 75
87 87 87 80 65 60 65 72 69 73 77 80 80 79 78 79 84 84 84 83 86 88 89 88 78 78 78 78 77 77 77 77 78 78 78 78 78 78 79 78 78 77 76 75 75 74 74 74 74
84 84 77 71 66 61 63 71 74 75 78 78 78 81 81 80 82 85 86 85 86 88 89 87 78 78 78 78 77 77 77 77 77 78 78 78 78 79 79 79 78 77 75 75 74 74 74 74 74
83 82 78 64 62 68 68 73 74 74 78 80 79 77 84 85 84 86 86 85 86 88 89 79 77 78 77 77 77 77 77 77 77 78 77 77 77 78 79 79 77 75 75 75 74 74 74 74 74
83 78 65 61 64 71 73 75 75 73 75 78 80 77 80 84 85 86 85 86 86 87 88 84 77 78 77 77 77 77 77 77 77 77 77 77 77 77 77 77 76 75 75 75 75 75 74 74 74
71 74 61 58 64 69 72 76 75 75 77 78 77 79 82 86 85 84 86 86 88 86 86 86 77 77 77 76 76 76 76 77 77 77 77 77 76 76 77 76 75 75 75 74 74 74 74 74 74
68 65 61 63 64 66 69 77 73 75 76 77 81 76 83 85 85 85 86 87 86 86 86 86 85 80 75 75 75 76 76 76 76 76 76 75 74 74 75 75 75 75 74 74 74 74 74 73 73
71 68 61 62 62 62 72 72 76 75 75 81 82 76 78 82 84 85 85 85 85 85 86 86 87 84 81 81 74 74 75 75 75 75 73 72 72 72 72 73 73 73 73 73 73 73 72 71 70
70 61 58 60 61 66 71 69 76 78 76 78 80 80 81 81 82 82 82 82 83 83 84 85 86 86 84 84 78 74 73 73 73 73 70 71 82 79 77 70 70 72 72 72 72 70 70 69 68
65 59 61 69 69 67 71 70 72 71 73 75 77 82 82 81 80 80 80 81 81 82 83 83 84 84 84 83 82 81 81 81 81 80 79 81 79 80 79 71 69 70 70 70 69 69 70 74 79
63 58 67 64 68 69 68 68 72 70 68 74 75 79 80 80 81 80 83 85 83 85 84 83 80 81 80 82 81 82 83 81 81 80 80 80 79 79 79 80 79 80 71 78 77 78 78 76 76
56 63 64 65 67 65 64 69 67 70 72 80 78 79 78 80 81 82 82 84 84 83 84 83 81 77 77 82 80 82 83 81 81 80 80 79 78 77 79 81 78 78 76 76 77 78 76 75 75
57 61 63 65 64 64 66 64 65 67 74 77 77 77 77 79 81 84 84 85 85 82 83 83 80 77 76 78 79 81 82 81 82 79 80 81 79 78 78 77 75 75 77 77 76 76 75 74 74
59 58 60 62 62 64 60 63 65 68 74 73 74 75 78 79 81 83 83 83 84 85 84 84 81 78 77 75 79 81 83 82 81 81 80 80 80 77 74 68 68 74 75 75 75 73 73 73 72
58 53 59 61 62 60 63 57 59 69 72 71 73 76 77 79 82 81 84 84 86 87 87 85 83 82 75 75 80 82 82 81 80 80 80 79 76 73 70 66 68 73 73 73 72 72 72 71 71
53 53 49 59 59 61 60 52 64 69 69 68 71 74 75 77 80 83 85 85 85 86 85 85 83 82 78 78 80 81 81 81 79 80 78 72 71 68 66 68 71 71 71 71 70 68 69 68 68
51 47 48 52 59 59 57 55 63 69 67 67 70 73 74 75 78 82 84 85 84 86 86 82 81 82 81 81 78 79 80 76 72 71 70 69 68 66 66 69 69 70 68 68 68 66 65 64 65
46 44 48 49 55 55 53 54 61 65 65 65 68 71 72 72 74 80 83 84 84 84 84 83 81 81 81 77 75 75 74 71 70 69 68 66 66 69 71 69 68 68 66 66 66 64 63 62 62
47 46 46 51 55 51 51 53 58 63 63 63 65 67 69 72 76 77 80 81 81 82 80 80 79 79 78 72 70 64 66 65 65 64 64 63 64 66 69 68 67 67 65 63 64 63 61 60 61
47 44 45 51 54 51 51 50 56 59 60 63 64 67 68 71 74 76 77 80 79 80 79 78 78 77 76 73 72 70 67 67 66 59 59 60 61 64 67 66 65 64 63 62 61 60 60 60 59
45 44 45 44 50 52 48 47 56 62 64 65 65 67 69 70 71 74 77 78 77 77 77 76 75 75 75 72 73 70 66 62 57 55 54 57 61 64 66 64 64 62 62 59 59 59 58 57 58
41 49 46 43 40 36 48 38 52 59 59 62 64 66 67 68 71 72 74 77 77 76 76 74 73 74 73 73 69 66 65 62 60 57 54 57 61 64 64 63 63 61 61 59 58 59 57 57 54
42 47 45 44 41 39 42 32 48 55 53 58 63 66 69 71 71 71 72 74 77 76 72 71 72 72 71 69 69 69 67 65 59 54 55 57 62 63 62 62 61 60 59 58 57 56 56 56 56
49 44 43 43 38 28 41 39 42 51 56 59 62 66 69 70 70 71 73 74 75 74 70 69 70 70 68 66 70 69 66 59 53 54 54 58 61 60 60 60 60 59 58 57 56 55 54 55 54
45 38 32 27 26 30 47 41 44 54 57 60 62 65 67 69 69 70 70 70 71 68 67 68 69 67 67 66 67 65 62 58 55 57 57 60 60 59 58 59 58 58 56 55 55 54 54 54 53
40 40 33 26 31 36 46 35 45 59 61 63 64 64 65 66 68 69 70 70 69 67 67 68 69 66 66 67 64 61 58 59 60 61 63 63 61 60 59 58 58 57 56 55 55 55 54 54 53
38 32 45 34 38 29 38 45 53 57 56 60 61 61 62 64 64 66 70 68 69 68 67 68 69 68 66 66 64 61 59 60 60 60 63 62 61 58 58 57 56 56 55 54 54 55 54 52 52
43 46 32 32 24 25 37 38 41 52 54 57 58 59 62 64 65 65 67 67 68 68 68 69 70 68 66 64 63 55 59 61 59 61 60 59 58 57 56 56 55 54 54 54 53 53 52 51 52
37 33 35 37 35 27 27 38 56 53 56 57 58 59 61 61 62 63 65 67 67 67 67 68 68 65 62 60 54 55 55 57 58 60 59 58 57 56 55 55 54 53 53 53 53 52 51 49 49
48 42 40 29 29 32 32 35 57 57 57 56 57 60 61 60 60 60 62 64 64 64 65 65 64 61 59 54 54 54 55 58 59 58 57 57 55 55 54 53 53 52 51 51 51 50 49 48 46

GFSSGP_sfc_temp_015.txt.gz
Temp
83 93 94 86 70 71 66 70 78 75 76 85 85 81 81 83 81 73 87 90 92 90 87 83 79 79 79 78 78 77 77 78 78 78 78 78 78 78 78 78 78 77 77 76 76 76 76 75 75
88 91 88 80 65 61 66 77 72 78 81 84 84 84 81 80 89 86 85 87 92 91 88 86 78 78 78 78 77 77 77 78 78 78 78 78 78 78 78 78 78 77 76 75 75 75 75 75 75
86 90 78 71 66 61 66 75 77 80 82 82 81 86 85 83 88 89 91 89 92 91 91 86 78 78 78 78 77 77 77 77 77 78 78 78 78 79 78 79 78 76 75 75 75 74 74 74 74
85 83 80 65 63 71 73 78 79 77 82 83 83 79 88 90 89 91 91 91 92 92 93 78 78 78 78 77 77 77 77 77 77 77 77 77 77 78 79 78 76 75 75 75 75 75 75 74 74
83 79 66 64 65 73 79 79 79 76 79 81 83 80 83 89 91 91 90 91 91 91 90 84 77 77 77 77 77 77 77 77 77 77 77 77 77 76 77 77 76 75 75 75 75 75 75 74 74
73 76 62 60 66 74 79 81 80 78 81 82 80 81 84 91 90 90 91 91 93 90 90 84 77 77 77 76 76 76 77 77 77 77 77 76 76 76 78 76 75 75 75 75 74 74 74 74 74
69 68 62 65 66 71 76 81 77 77 79 80 85 77 86 89 89 90 91 92 91 91 90 87 83 79 75 75 75 76 76 76 76 76 76 75 74 75 76 75 75 75 74 74 74 74 73 73 72
74 70 63 65 65 66 79 79 80 78 77 87 86 77 80 86 88 90 91 90 90 90 90 89 87 84 81 80 74 74 75 75 75 75 73 72 72 73 74 74 73 73 73 73 72 72 72 71 71
75 62 59 63 66 69 79 74 80 84 80 82 85 85 85 85 87 87 86 86 87 87 88 90 90 87 83 83 78 74 73 73 73 73 71 72 80 78 75 70 71 72 72 72 71 71 71 70 70
66 60 62 73 75 72 75 73 77 75 75 78 81 86 85 85 85 83 83 83 84 85 87 89 89 87 83 83 80 81 80 79 79 79 77 81 81 80 80 72 70 71 70 70 70 71 72 73 79
66 59 70 72 72 73 71 73 77 73 70 78 78 82 85 84 85 84 85 87 86 87 87 87 87 88 85 82 80 83 83 82 82 82 81 81 80 77 78 77 75 74 69 76 73 76 77 76 76
61 67 69 70 71 68 67 73 71 73 74 82 83 85 84 82 84 85 85 87 89 87 87 87 87 84 85 84 82 82 84 84 82 82 82 80 78 77 79 80 78 76 77 76 76 77 76 76 76
61 64 69 70 68 68 69 66 68 70 77 81 81 81 80 81 84 87 88 89 89 86 87 87 86 80 82 83 82 83 85 83 83 82 82 82 79 77 80 79 78 77 78 77 76 76 76 75 74
65 64 65 67 67 67 63 65 67 70 76 76 77 77 80 81 83 85 87 87 88 88 87 88 86 84 80 80 80 82 85 84 84 79 81 82 81 78 76 75 75 76 76 75 75 74 73 73 73
62 56 62 64 65 64 66 59 61 71 74 73 75 77 78 80 83 83 86 87 88 89 89 88 86 86 82 76 78 81 82 85 80 77 82 81 79 77 75 72 72 74 74 74 73 73 72 71 72
55 58 52 64 64 66 63 53 68 74 73 71 74 76 77 80 82 85 87 88 89 90 89 89 88 86 83 76 78 78 82 83 77 79 78 78 78 76 73 72 72 73 72 72 70 68 68 67 68
55 50 54 58 66 63 60 57 68 72 72 71 72 75 77 78 81 84 86 88 89 90 89 88 87 85 84 78 79 78 79 76 77 79 79 76 73 71 69 69 71 72 70 69 69 66 65 64 64
50 49 53 53 61 59 57 58 65 69 69 68 70 73 74 76 78 83 85 87 89 89 88 89 85 85 85 83 80 75 74 74 75 76 73 72 69 68 70 71 71 70 68 67 66 65 65 62 62
53 51 51 57 61 56 55 57 61 67 68 67 68 70 72 74 79 82 82 84 86 87 86 86 85 83 84 82 75 70 69 70 73 71 69 69 68 69 69 70 69 69 66 65 66 64 62 60 61
51 48 48 55 59 55 53 53 60 63 65 67 67 68 70 73 76 78 81 81 82 83 83 84 84 83 83 81 75 71 71 70 69 67 64 65 65 66 67 68 67 66 64 63 62 61 61 59 59
49 47 48 49 54 54 51 49 58 66 67 69 70 70 70 71 73 77 78 80 80 81 82 83 83 82 82 77 74 69 67 63 62 62 61 60 62 64 65 67 66 64 63 60 60 60 58 56 58
44 55 52 48 45 41 51 40 54 63 64 67 68 70 71 71 73 74 76 79 80 80 81 82 82 81 80 78 73 68 64 61 63 61 59 59 62 61 64 66 64 63 62 60 59 60 58 58 54
46 50 48 47 43 41 45 38 49 61 59 63 68 69 71 72 74 75 75 76 79 80 78 78 80 79 78 75 75 70 68 68 65 60 58 58 59 61 62 64 63 62 61 60 58 58 57 57 55
51 47 45 44 38 29 42 44 46 54 60 62 67 68 69 73 74 74 76 77 77 77 77 75 76 76 77 75 73 70 70 65 59 57 54 56 57 59 63 62 61 61 59 58 57 56 56 55 54
47 38 33 30 27 31 50 45 48 59 63 64 63 67 69 71 71 72 73 73 74 74 75 73 73 74 75 73 71 72 70 62 59 58 56 56 57 57 60 61 60 59 58 57 57 56 55 55 53
41 40 35 29 34 39 50 40 49 62 66 65 67 68 69 69 70 69 70 73 74 73 74 72 72 73 72 71 71 72 65 63 60 59 58 59 59 61 60 60 60 59 58 57 56 55 54 54 53
41 34 46 35 40 32 40 48 57 61 61 63 64 65 66 67 68 68 69 71 74 73 73 71 72 73 70 69 69 66 63 61 60 60 60 61 62 61 60 59 58 58 57 57 56 55 54 53 52
46 49 32 33 25 28 40 43 45 54 57 61 62 63 65 66 67 68 68 69 73 73 73 72 73 71 69 68 64 62 59 59 61 61 61 60 60 60 58 58 57 56 56 56 55 54 54 52 52
40 37 36 40 36 29 29 39 56 55 57 58 61 64 64 64 65 66 66 69 72 73 72 72 73 70 68 65 61 59 57 59 59 59 59 58 60 58 57 56 56 55 55 55 54 53 52 51 50
49 43 42 30 32 34 33 35 57 58 60 60 60 61 64 65 64 65 64 67 69 70 70 70 71 69 67 64 60 56 57 57 58 58 59 59 58 58 56 56 55 54 53 53 52 51 52 50 48

GFSSGP_sfc_temp_018.txt.gz
Temp
79 85 84 74 57 59 55 62 66 66 67 73 77 73 70 73 71 60 77 82 83 79 79 79 79 79 79 78 77 77 77 78 78 78 78 78 78 78 78 78 77 77 77 76 76 76 76 76 76
79 83 77 67 54 50 56 68 66 69 72 76 76 74 72 71 79 76 76 83 85 82 79 78 78 78 78 78 77 77 78 78 78 78 78 78 78 78 78 78 77 77 76 76 75 75 75 75 75
78 83 65 60 56 51 55 68 69 74 76 72 71 77 75 72 81 78 80 84 86 82 82 79 78 78 78 77 77 77 78 77 78 78 78 78 79 79 79 78 76 76 75 75 75 75 75 74 74
77 72 69 56 55 62 64 70 73 72 73 74 75 70 76 80 79 81 83 85 84 83 81 77 77 78 77 77 77 77 77 77 78 77 77 77 78 79 78 77 75 75 75 75 75 75 75 74 74
74 68 57 54 57 64 70 75 73 67 71 71 73 70 70 78 83 83 82 85 83 81 77 77 77 77 77 77 77 77 77 77 77 77 77 77 77 77 78 76 75 75 75 75 75 75 74 74 74
62 65 52 51 58 66 71 75 73 70 72 74 69 70 69 80 80 81 83 81 85 78 80 78 77 77 76 76 76 76 77 77 77 77 77 76 76 76 77 76 75 75 75 74 74 74 74 74 74
61 58 53 56 58 63 70 76 67 67 69 71 74 66 70 76 80 83 82 83 83 83 79 77 76 76 75 75 75 76 76 76 76 76 76 74 74 77 76 75 75 74 74 74 73 73 73 73 72
65 61 55 57 57 59 71 74 75 68 69 77 76 64 63 74 80 82 82 81 81 81 79 78 77 75 74 73 74 74 74 74 75 75 73 72 72 73 74 73 73 74 73 73 72 72 72 72 72
70 54 51 55 59 63 73 69 73 74 70 74 74 73 75 79 81 78 77 77 78 80 80 79 77 76 77 74 73 73 73 73 73 71 71 70 69 70 71 70 71 72 72 72 72 72 72 71 70
59 52 55 65 67 65 69 69 68 66 69 68 71 77 79 78 75 75 74 74 75 76 78 80 80 77 79 79 72 71 72 69 69 69 67 68 70 68 72 68 69 71 71 71 72 72 72 71 66
60 52 63 66 70 69 66 66 71 67 62 68 69 73 76 76 75 75 76 76 76 77 78 79 78 80 79 78 74 74 73 70 71 71 69 70 69 67 68 64 65 65 66 65 68 66 67 66 65
56 63 64 65 69 67 63 67 65 66 66 73 74 75 73 73 74 75 75 76 77 77 78 79 79 79 78 79 76 75 75 74 73 72 73 69 66 66 67 67 68 68 66 67 66 65 66 65 65
58 61 66 67 66 65 67 62 62 64 70 73 74 75 72 70 72 75 77 79 78 76 78 78 78 76 78 74 76 75 77 74 73 72 74 71 67 66 68 67 67 66 66 65 64 63 63 62 63
62 62 62 64 64 64 61 61 62 64 69 69 71 70 71 71 73 74 75 76 75 77 78 78 78 76 74 76 75 76 75 74 74 73 75 73 69 68 67 65 65 64 64 63 62 61 59 59 59
61 53 57 59 61 60 62 55 56 65 68 67 68 69 72 72 73 73 76 75 77 77 78 78 79 77 75 77 74 77 73 78 73 75 76 73 72 72 65 63 63 62 63 62 60 59 59 57 59
52 52 44 59 61 62 59 47 61 67 65 64 66 68 69 71 73 76 78 78 77 77 77 79 83 79 76 77 76 75 75 73 73 73 74 74 73 69 63 62 61 62 61 59 57 56 55 54 53
49 41 46 52 61 59 56 49 61 67 65 62 63 65 68 70 72 73 75 76 77 77 78 76 79 78 77 74 74 75 72 72 69 73 71 72 70 66 63 61 60 61 58 56 57 54 53 51 51
43 43 48 48 55 55 52 51 58 63 63 60 61 62 63 66 69 73 76 76 76 77 77 77 75 76 76 73 72 70 71 70 72 73 71 67 65 63 61 64 60 59 56 55 54 53 52 51 50
51 47 45 51 58 52 50 51 55 60 60 60 61 63 64 66 71 71 73 73 72 75 74 75 73 73 74 72 70 70 68 67 67 66 67 64 64 62 62 63 59 57 55 54 55 53 51 49 49
48 44 43 50 56 51 48 47 53 57 58 61 61 62 64 64 66 69 71 70 72 71 72 72 73 74 74 74 74 70 67 67 65 64 62 60 61 61 65 62 56 55 53 53 52 51 50 49 48
45 43 44 44 50 51 47 43 49 57 59 61 63 65 65 64 64 66 67 69 68 72 69 71 72 72 75 72 68 66 62 63 60 59 54 56 58 60 64 62 56 53 51 49 50 49 49 46 47
40 50 49 47 40 32 46 29 44 51 55 58 59 58 60 62 64 66 68 67 67 71 73 70 71 72 73 70 66 63 61 57 58 57 54 54 57 58 62 61 58 52 51 50 49 51 48 47 45
44 49 46 44 38 33 36 29 38 50 49 54 55 59 59 61 63 63 64 67 69 67 68 72 70 71 72 69 66 62 58 61 58 54 54 54 59 60 61 60 57 51 50 49 49 48 47 47 45
50 46 42 40 34 20 33 35 37 44 50 53 53 57 58 60 61 61 62 65 64 65 64 65 70 68 69 69 67 63 60 60 53 53 52 56 58 58 55 59 56 50 49 48 47 47 47 46 45
46 38 24 23 25 21 42 36 41 51 55 55 52 53 59 60 58 59 59 60 62 63 62 64 68 67 67 68 67 65 63 57 52 51 53 55 56 56 56 56 53 48 48 49 48 47 46 46 44
41 39 26 22 21 27 41 30 40 53 56 59 59 58 58 59 59 58 58 60 60 62 63 63 65 64 66 67 64 64 59 55 53 53 53 55 56 56 57 55 50 49 49 48 48 46 45 45 43
39 31 40 31 32 22 31 39 50 55 55 57 57 58 56 57 58 56 56 59 60 60 62 62 65 65 66 65 65 61 57 55 54 52 56 57 57 57 56 54 49 48 48 48 47 45 45 44 43
43 46 31 31 15 20 30 34 37 46 48 53 52 54 55 58 57 57 58 59 60 61 62 63 65 66 66 66 65 60 57 55 55 57 58 58 57 56 54 51 48 48 48 48 47 45 46 44 43
38 35 36 35 30 21 23 30 45 48 50 50 51 54 54 55 54 56 57 57 59 61 61 61 62 62 65 59 59 58 55 57 59 59 58 56 56 55 53 48 47 47 47 47 46 45 46 44 43
45 39 38 29 24 29 26 30 52 52 50 53 52 54 55 54 55 56 56 56 58 58 60 60 66 63 59 58 57 56 58 58 58 56 56 56 55 54 53 48 48 47 47 46 46 44 44 43 41

GFSSGP_sfc_temp_021.txt.gz
Temp
75 76 72 67 53 49 46 54 58 64 63 63 68 68 64 66 67 58 71 76 75 75 77 78 79 79 78 78 77 77 78 78 78 78 78 78 78 78 78 78 77 77 76 76 76 76 76 76 76
71 75 68 60 48 42 46 57 60 64 67 68 72 69 67 65 72 71 71 76 77 76 77 77 78 78 78 77 77 77 78 78 78 78 78 78 78 78 78 77 77 76 76 76 75 75 75 75 75
72 74 60 53 47 44 47 58 63 65 70 69 66 69 67 67 71 73 74 78 77 75 77 77 78 78 78 77 77 77 78 78 78 78 78 78 78 79 78 77 76 75 75 75 75 75 74 74 75
67 63 60 50 47 54 57 60 67 66 69 72 68 66 69 73 75 76 78 79 76 75 75 76 77 77 77 77 77 77 77 78 77 77 78 78 78 79 78 76 75 75 75 75 75 75 74 74 74
63 57 48 45 50 55 60 64 69 63 66 66 67 64 64 73 75 77 78 80 76 76 75 76 77 77 77 77 77 77 77 77 77 77 77 78 78 78 77 75 75 75 75 75 75 75 74 74 74
56 55 43 44 49 56 61 66 66 66 64 66 64 63 64 74 74 76 78 76 77 74 75 76 76 76 76 76 76 76 77 77 77 77 76 76 77 78 76 75 75 75 75 74 74 74 74 74 73
52 48 44 45 49 54 61 68 61 65 65 64 67 60 61 67 74 77 77 75 77 76 75 75 75 75 75 75 75 76 76 76 76 76 75 75 75 77 76 75 75 74 74 74 74 74 73 73 73
57 51 46 47 50 51 63 65 69 65 65 70 71 60 59 69 76 77 75 75 76 75 75 72 72 74 73 73 74 74 74 75 75 74 73 72 72 74 75 73 73 74 73 73 73 73 73 73 73
61 46 43 49 52 56 66 62 68 69 66 68 67 66 72 76 76 73 71 72 73 74 73 73 71 71 70 70 72 72 73 73 72 71 70 69 67 69 70 70 71 72 73 72 72 73 72 71 70
53 45 49 57 59 59 63 61 61 63 64 62 63 70 73 75 72 72 70 70 71 71 73 74 72 72 71 75 69 68 70 67 67 67 66 66 65 66 70 67 69 71 71 71 73 73 72 69 64
54 46 56 60 63 63 61 61 64 59 57 63 64 68 69 70 71 71 71 71 71 73 74 75 74 73 73 73 69 67 66 65 65 65 65 64 66 65 65 64 65 64 66 64 66 65 64 63 62
50 57 60 61 64 62 58 63 59 59 60 66 66 68 70 68 68 70 70 71 71 73 76 76 75 74 74 72 72 70 69 67 65 66 67 64 62 63 62 61 62 62 62 61 60 60 61 61 61
52 56 61 62 62 61 63 58 57 58 64 66 68 68 64 69 69 70 71 72 72 73 75 75 76 76 75 73 74 72 71 70 70 69 69 67 64 62 63 63 63 62 62 61 59 59 59 58 59
57 57 57 59 59 59 58 57 57 59 64 63 65 66 64 66 69 70 70 71 69 74 75 77 76 76 75 74 73 74 73 72 71 70 70 69 67 64 63 62 61 61 61 59 59 58 56 55 55
56 50 53 54 57 55 60 52 53 60 62 61 60 61 65 65 68 68 70 70 72 71 75 76 76 75 73 72 74 77 72 76 74 73 74 70 67 65 63 61 59 59 59 59 57 55 54 54 55
50 48 39 52 57 57 56 44 56 61 58 59 62 63 63 67 67 68 70 71 70 71 71 76 79 76 72 73 73 75 73 71 73 76 76 73 68 65 62 60 59 58 58 56 54 53 51 50 50
43 35 40 46 58 56 53 45 57 61 60 57 59 61 63 66 67 67 69 72 76 70 71 73 77 74 73 73 72 75 72 71 71 71 72 71 69 66 62 59 57 58 56 54 55 51 50 48 49
37 36 42 42 51 53 49 47 54 58 57 54 56 56 57 61 64 71 71 68 71 74 70 71 75 74 73 73 74 71 69 67 69 72 70 68 68 64 61 58 57 56 54 52 52 50 49 48 47
43 41 39 45 53 48 46 46 50 56 54 55 57 55 59 60 64 65 67 67 67 68 68 69 70 74 72 69 67 68 68 66 66 69 67 63 62 62 61 58 56 54 53 51 52 50 49 47 46
44 40 38 45 51 48 45 46 51 54 55 57 58 56 55 57 61 64 65 64 66 67 67 67 68 72 73 70 69 69 66 63 66 64 64 63 63 61 60 59 56 54 51 50 50 50 47 46 45
40 38 39 40 45 45 42 39 45 51 54 57 58 61 59 59 58 60 61 64 63 63 65 67 67 69 71 70 67 60 58 56 55 60 60 59 62 61 59 57 56 56 50 48 48 48 48 45 45
36 46 45 43 36 29 40 26 36 46 49 54 54 55 58 60 62 63 62 60 62 61 63 65 67 67 70 69 66 64 63 60 55 55 52 58 60 59 58 56 55 55 50 48 47 49 46 45 43
41 46 43 41 34 30 31 27 32 41 44 49 52 53 54 55 57 58 60 62 64 62 62 64 65 66 67 67 66 64 63 55 53 51 53 59 60 59 57 56 54 54 52 47 47 46 46 45 43
48 42 40 37 30 17 29 31 30 38 45 47 52 52 54 56 56 57 59 59 58 59 58 60 63 64 65 65 65 64 59 53 51 51 52 58 58 58 58 57 54 53 51 48 45 45 45 44 44
42 33 18 18 21 20 35 31 35 46 51 52 53 54 55 55 54 56 55 57 57 57 58 58 60 63 63 64 62 60 58 56 53 52 53 56 55 55 56 56 53 49 51 46 45 45 44 44 42
36 35 21 19 17 24 37 28 37 50 54 55 56 54 55 56 55 56 58 56 55 56 58 58 59 60 62 63 61 60 58 53 52 54 56 56 57 56 56 54 53 52 51 46 45 43 43 43 41
36 29 38 27 27 17 27 35 45 50 51 51 52 51 50 53 54 56 56 56 56 56 56 57 58 60 61 63 61 59 56 52 52 52 55 58 57 56 56 54 52 51 50 46 45 43 43 42 41
40 42 25 23 12 17 25 28 35 42 44 48 48 49 50 52 50 52 54 55 55 55 55 56 59 61 61 59 60 56 53 53 52 53 56 55 55 57 54 52 51 50 49 45 44 42 43 42 41
35 31 33 32 26 18 19 26 41 43 44 44 46 49 48 52 53 53 54 54 55 55 54 55 56 60 57 57 56 53 54 54 55 55 55 55 56 54 52 51 50 49 46 44 43 43 43 42 41
40 36 35 27 21 25 21 29 51 51 47 50 54 56 58 55 53 52 53 53 53 53 54 54 57 55 53 55 54 54 55 56 56 56 56 56 54 53 52 51 50 48 45 44 43 43 42 41 41

GFSSGP_sfc_temp_024.txt.gz
Temp
74 72 68 65 53 48 43 50 54 60 61 64 66 68 63 62 64 57 67 71 73 73 76 77 78 78 78 78 77 77 78 78 78 78 78 78 78 78 77 77 77 76 77 77 77 76 76 76 76
69 74 66 57 47 41 45 52 57 61 65 65 67 66 64 61 68 66 67 73 75 75 76 76 78 78 78 77 77 77 77 78 78 78 78 78 78 78 77 77 77 76 76 76 75 75 75 75 75
71 71 59 53 45 43 45 54 57 65 67 65 63 67 65 64 68 69 70 74 75 74 75 76 77 78 77 77 77 77 77 77 77 77 78 78 78 78 77 77 76 75 75 75 75 74 74 74 75
65 61 57 47 45 50 53 55 61 64 69 67 64 62 66 70 70 72 74 75 73 72 73 76 77 77 77 77 77 77 77 78 77 77 77 78 78 78 77 76 75 74 74 75 75 74 74 74 74
61 54 46 43 46 51 55 61 63 63 65 64 64 60 61 71 72 74 73 74 72 71 73 75 77 77 76 77 77 77 77 77 77 77 78 78 78 78 76 75 74 74 75 75 75 74 74 74 74
53 52 41 41 45 53 57 60 60 63 65 64 62 61 61 68 72 72 74 72 74 72 74 75 76 76 76 76 76 76 77 77 77 77 77 78 78 77 76 75 74 75 75 75 75 74 74 74 73
50 46 42 43 46 50 58 62 58 62 63 65 68 58 59 64 71 73 72 73 74 74 73 74 74 74 75 75 75 76 76 76 76 76 76 76 76 77 76 75 74 75 74 74 74 74 74 73 73
55 49 43 46 48 49 59 62 65 62 63 67 70 58 58 68 73 72 71 71 72 72 73 72 73 73 72 72 73 74 75 75 75 74 73 72 72 74 75 73 73 74 74 73 73 73 73 73 73
58 44 41 47 49 52 60 58 64 67 62 64 64 66 69 73 73 69 67 68 70 71 71 70 70 70 69 69 71 72 73 73 72 71 70 69 68 70 70 69 71 72 73 73 73 73 72 71 70
51 42 46 55 55 54 60 58 60 62 61 60 61 66 71 71 69 68 66 66 67 68 69 70 70 69 69 73 69 67 69 67 67 67 66 65 66 67 69 67 69 71 71 71 73 73 72 67 62
51 44 54 57 60 60 58 59 60 57 57 59 59 65 68 66 66 69 69 68 68 69 70 71 70 70 70 71 68 66 65 64 65 65 65 64 64 64 64 64 65 65 66 63 65 63 61 60 58
46 54 57 58 61 58 56 60 55 58 60 64 61 65 66 66 68 66 70 70 67 69 71 72 71 70 70 70 68 67 66 64 63 64 64 62 61 62 61 62 62 62 61 59 59 58 58 59 58
48 51 57 59 59 58 60 57 57 57 62 64 63 66 65 65 66 67 68 69 70 69 71 72 72 71 71 68 69 68 67 66 65 64 64 64 61 63 61 60 61 61 60 58 57 57 57 56 56
54 55 55 56 56 57 56 55 55 57 62 61 62 62 61 64 66 63 66 68 67 70 72 73 72 72 72 70 70 69 69 68 66 66 65 65 65 63 61 60 60 59 58 57 57 56 55 53 53
55 48 51 53 55 54 56 53 50 60 61 58 58 59 62 62 65 65 67 68 68 67 74 72 73 74 73 71 70 69 69 70 68 68 67 67 66 63 61 59 58 57 57 57 55 54 52 52 53
49 46 40 51 54 56 55 45 53 59 55 56 57 58 59 64 64 66 67 68 67 67 68 74 75 74 72 72 70 71 71 71 70 70 70 69 66 63 60 59 57 57 56 55 53 52 50 49 49
42 34 38 44 54 54 50 44 56 61 57 54 54 56 59 61 63 63 67 67 71 67 69 70 72 72 72 71 70 71 70 70 70 71 72 71 66 64 62 60 56 56 54 53 54 49 49 47 47
36 34 38 40 49 50 47 46 52 55 55 53 54 54 54 57 63 66 65 65 70 69 66 69 72 73 71 70 68 65 67 68 70 72 73 70 66 63 62 57 56 55 53 51 51 49 47 46 46
46 43 37 42 50 46 45 44 49 53 51 52 55 55 55 58 63 62 63 63 63 64 64 64 70 74 70 67 66 65 67 67 64 71 70 68 66 65 62 58 56 53 53 51 50 48 48 45 44
42 37 36 43 48 45 43 43 49 52 54 55 57 59 58 58 57 60 62 62 63 64 63 62 65 73 70 70 70 67 67 64 66 62 65 66 65 63 62 61 55 53 51 50 49 49 46 45 43
38 37 36 38 43 42 40 42 44 49 52 56 59 59 60 60 60 60 59 61 60 60 62 63 63 69 71 70 67 60 58 57 56 58 62 62 64 63 62 60 55 52 50 49 48 47 47 44 43
35 43 43 41 36 28 39 26 34 43 47 50 51 49 53 56 56 60 58 58 59 60 60 62 63 63 70 68 66 64 64 61 57 60 54 57 62 62 61 59 57 53 50 51 47 48 46 45 43
40 45 42 39 32 28 29 26 32 38 41 46 48 51 51 52 53 55 56 59 60 58 57 58 61 62 66 66 67 64 66 65 54 51 53 54 55 59 59 58 56 53 50 51 51 45 45 44 43
47 41 37 34 29 18 28 28 29 35 42 45 49 51 53 54 54 54 56 57 56 55 55 55 57 59 61 65 65 65 64 53 51 50 51 52 53 54 56 57 56 55 52 51 49 47 45 43 42
41 33 18 17 14 19 31 27 30 41 47 46 50 52 52 52 53 54 55 56 56 56 56 57 57 58 58 62 64 64 59 56 54 52 53 52 53 52 54 56 54 52 50 47 46 47 45 42 41
35 34 21 19 17 22 33 26 35 46 49 50 50 48 50 51 51 52 54 54 55 57 57 57 57 57 57 60 62 63 60 57 56 55 54 54 54 52 53 54 53 52 51 49 48 45 45 42 40
34 26 36 26 24 15 25 31 42 46 46 47 48 48 47 49 50 51 52 53 54 54 56 55 56 56 56 60 60 57 55 53 52 53 53 53 54 54 54 54 52 51 50 49 48 46 44 41 39
39 40 25 19 10 16 23 26 33 40 41 46 46 46 48 50 51 52 51 52 53 54 54 53 54 55 56 59 59 56 53 53 52 52 53 54 55 55 54 52 51 50 49 48 47 45 44 41 39
33 28 30 29 25 17 20 26 39 42 42 43 45 47 47 50 50 52 51 51 52 54 54 54 53 54 54 56 57 51 50 50 51 52 53 53 55 54 52 52 50 49 48 47 46 45 44 41 39
38 34 33 22 20 22 21 26 45 42 44 47 52 53 52 51 53 52 55 50 50 52 53 52 52 53 53 52 51 50 50 50 50 51 52 54 53 53 52 51 50 48 47 46 45 44 44 40 39

GFSSGP_sfc_temp_027.txt.gz
Temp
71 71 66 63 52 47 42 48 50 57 59 61 63 63 63 62 63 57 65 70 72 72 75 77 79 79 78 78 78 77 78 78 78 78 78 78 78 77 77 77 76 77 77 77 77 77 77 76 76
68 71 64 56 46 39 43 49 54 58 62 64 62 62 60 60 66 63 66 71 74 74 75 75 78 78 78 77 77 77 77 77 78 78 78 78 78 77 77 77 76 76 76 76 76 75 75 75 75
69 69 59 52 44 42 45 52 56 61 64 62 61 63 63 62 66 66 68 72 74 73 74 75 77 78 77 77 77 77 77 78 77 78 77 78 78 77 77 76 76 75 75 75 75 74 74 75 75
64 60 56 46 44 49 51 54 57 62 66 64 63 61 64 67 69 70 71 73 72 71 72 75 77 77 77 77 77 77 77 77 77 77 77 77 78 77 77 76 75 74 74 74 74 74 74 74 74
59 53 44 41 46 49 51 59 59 59 60 63 65 59 60 67 68 70 70 72 70 69 71 74 77 77 76 77 77 77 77 77 77 77 78 78 78 77 76 75 74 74 74 74 74 74 74 74 74
52 50 39 39 46 50 53 57 58 58 60 64 61 60 60 65 67 69 71 70 72 70 72 74 75 76 76 76 76 76 77 77 77 77 77 78 78 77 75 75 74 74 74 74 75 74 74 74 73
49 45 41 42 46 48 53 58 55 58 58 62 62 58 59 62 67 70 69 69 71 72 71 71 73 74 74 75 75 76 76 76 76 76 77 77 76 76 75 74 74 74 74 74 74 74 74 73 73
52 49 41 43 45 48 55 60 61 59 62 66 68 57 57 66 68 69 69 68 69 70 71 70 70 71 70 70 73 74 74 75 75 75 74 73 73 74 74 73 73 74 74 73 73 73 73 73 73
55 43 39 45 47 50 56 55 61 62 60 63 62 62 67 69 68 67 66 66 68 69 69 70 70 69 69 69 70 72 73 73 72 72 70 69 67 69 70 69 71 72 73 73 73 73 72 71 69
50 41 45 53 53 51 56 55 56 59 58 58 60 65 67 68 66 65 65 67 68 69 69 72 72 69 68 72 68 67 69 67 67 67 66 65 66 67 68 67 69 71 72 72 73 73 71 65 59
50 44 52 55 58 57 55 56 58 55 55 57 57 61 64 63 63 65 66 67 68 69 71 72 71 69 68 70 67 65 65 64 65 65 64 63 65 65 65 64 65 64 66 63 64 61 59 58 57
46 53 55 57 60 56 53 58 54 57 59 62 61 62 64 62 64 64 64 66 66 67 68 71 71 69 68 69 67 66 65 63 62 64 64 61 61 62 62 62 62 62 61 58 58 57 57 57 56
48 50 56 58 58 55 57 55 54 54 61 61 61 64 62 63 64 65 67 66 65 67 68 69 69 69 69 68 67 67 66 65 64 63 63 62 60 61 61 61 61 60 59 57 56 56 55 55 54
53 54 55 55 55 55 54 53 54 54 60 60 59 60 60 61 63 62 63 66 64 66 69 70 69 69 69 68 67 67 67 66 63 62 63 62 61 60 61 59 60 59 58 56 55 54 54 52 52
53 47 49 51 54 53 54 51 48 58 59 57 58 57 59 60 62 62 64 65 67 67 69 69 69 70 69 69 67 68 67 68 66 65 63 64 62 60 61 59 58 57 56 56 54 52 51 51 52
47 45 39 49 53 54 54 44 53 57 53 54 56 57 56 59 61 63 65 65 65 65 65 70 73 70 69 70 67 69 67 67 67 67 66 65 64 62 59 58 57 56 55 54 52 51 49 48 48
40 34 37 44 52 51 49 42 53 58 56 54 55 55 55 57 59 60 64 65 65 64 66 66 71 70 70 69 68 68 67 66 67 68 67 65 64 62 59 58 55 55 53 52 53 49 49 47 47
35 35 36 38 46 47 44 43 51 56 52 51 51 53 54 57 59 61 61 62 66 64 64 65 70 71 70 69 67 66 66 67 66 68 68 65 65 62 60 56 56 55 52 51 50 49 45 46 46
42 38 37 41 48 44 43 42 47 52 49 49 50 53 55 57 62 60 61 61 61 61 60 62 65 70 69 66 65 64 64 65 64 67 69 67 67 65 62 60 59 58 57 51 51 48 47 44 44
45 38 35 41 45 43 41 41 48 51 53 55 56 57 59 57 56 58 60 59 60 62 61 59 62 69 69 68 68 66 66 66 65 65 65 67 65 65 63 62 60 58 54 50 49 48 45 44 42
39 35 35 37 41 40 38 38 42 48 50 52 55 58 59 58 58 59 56 59 59 58 60 62 60 64 68 69 65 59 59 57 57 58 59 63 65 65 65 63 61 58 55 51 49 48 47 44 42
34 42 42 39 35 28 37 26 35 43 44 46 48 48 50 52 54 56 57 56 56 58 59 60 61 61 65 68 65 63 64 62 63 59 60 58 60 62 64 62 59 58 55 51 50 49 46 45 43
42 44 40 37 31 27 29 25 32 37 41 45 47 49 49 51 51 52 53 55 57 57 56 57 58 59 61 65 66 64 65 68 63 54 56 56 55 57 59 59 58 56 55 53 50 46 45 44 43
47 39 35 31 29 18 26 27 30 35 38 42 45 48 48 49 50 51 52 54 54 53 54 54 55 57 58 61 65 63 63 57 54 52 55 53 53 52 53 55 55 55 53 52 51 48 48 46 42
40 32 19 18 16 20 29 27 33 40 43 44 46 46 46 47 49 50 52 53 53 54 55 56 57 58 56 55 62 63 62 57 57 56 56 53 51 51 51 52 51 51 51 51 50 49 48 46 43
34 34 22 19 16 22 31 25 35 42 43 45 45 44 47 48 47 49 50 50 51 53 53 54 55 56 55 55 59 63 60 58 57 55 56 55 55 55 52 52 51 50 50 49 50 47 44 46 44
34 25 34 25 22 16 25 31 40 44 44 45 46 47 47 48 49 49 50 51 51 50 52 52 54 55 55 54 57 60 59 55 55 55 55 55 54 52 51 51 49 50 51 49 48 47 44 45 42
37 39 25 20 12 16 22 24 29 37 40 44 44 44 46 48 48 50 49 51 52 53 52 51 52 53 54 53 55 58 56 54 53 51 51 52 51 52 50 50 49 50 49 49 48 46 45 43 42
34 28 29 28 24 17 18 26 36 38 40 42 43 50 50 48 52 53 49 49 50 50 50 50 50 51 51 52 54 53 50 51 50 50 51 51 51 51 50 50 50 50 48 48 46 45 44 43 42
37 33 31 21 19 20 20 26 42 41 41 44 50 48 52 52 53 54 49 48 48 48 50 48 50 49 51 52 54 51 48 48 48 49 50 50 50 51 50 51 51 49 48 47 45 44 43 42 41

GFSSGP_sfc_temp_030.txt.gz
Temp
71 69 64 62 51 45 40 47 48 53 54 58 60 61 61 61 61 56 64 69 70 72 74 77 79 78 78 79 78 78 78 78 78 79 79 79 78 77 77 77 77 77 78 76 77 77 77 76 76
68 70 63 53 45 38 41 47 51 56 59 61 61 60 59 58 64 62 64 69 72 73 74 75 79 78 78 78 78 77 78 78 78 78 78 78 77 77 77 77 77 77 77 75 76 76 75 75 75
68 67 58 51 42 40 42 50 53 59 61 59 58 61 60 61 64 64 66 70 72 71 73 75 78 78 78 77 77 77 77 78 78 78 77 78 77 77 77 76 76 75 75 75 75 75 75 75 75
63 61 55 46 43 48 50 50 54 58 62 62 60 58 62 65 66 67 69 72 70 69 70 75 77 77 77 77 77 77 77 77 77 77 77 77 77 77 76 75 75 74 74 75 74 74 74 74 74
58 53 44 41 45 48 50 55 56 56 57 58 59 59 59 64 66 68 70 72 71 68 70 73 77 77 77 77 77 77 78 78 77 77 77 77 77 77 76 75 74 74 74 74 74 74 74 74 74
51 50 39 40 44 48 52 55 55 55 56 61 57 55 59 62 65 69 72 71 71 69 71 73 75 76 76 76 76 76 77 77 77 77 77 77 77 76 75 75 74 74 74 75 75 74 74 74 74
49 45 40 40 48 47 52 56 54 55 55 59 62 55 60 60 66 71 69 69 69 70 70 70 71 73 74 75 75 76 76 76 76 76 77 77 76 75 75 74 74 74 74 74 74 74 74 74 74
50 48 40 41 44 46 54 57 58 58 59 63 64 58 58 61 68 69 68 67 68 69 69 69 69 70 69 70 73 74 74 75 75 75 74 73 73 73 74 73 73 74 74 74 73 73 73 73 72
53 42 38 44 46 49 54 53 59 59 57 61 61 59 64 64 67 66 67 67 68 69 69 68 68 68 68 68 70 72 73 73 73 72 71 69 67 69 69 69 71 72 73 73 73 73 72 70 68
49 41 44 52 52 52 53 53 54 56 55 55 57 63 64 64 66 66 66 66 67 68 69 71 72 68 68 71 69 68 68 67 67 67 66 65 65 66 68 67 70 71 71 72 73 72 69 64 58
49 44 51 54 57 57 54 53 56 52 52 55 54 58 63 59 61 65 67 68 69 70 71 72 73 71 68 68 66 65 65 65 65 65 64 64 64 65 65 64 65 64 66 62 62 59 58 57 56
45 51 54 56 59 57 52 55 51 54 56 60 58 58 61 61 61 62 63 65 69 70 70 72 73 72 68 68 66 65 65 64 64 64 64 62 62 63 63 63 62 62 61 58 57 56 55 55 55
48 50 54 57 57 55 56 53 53 53 59 60 61 61 60 60 62 63 64 64 65 69 70 72 72 71 70 66 67 65 65 64 66 64 63 62 61 62 62 61 61 60 59 57 55 55 54 54 53
52 53 53 54 55 54 53 51 52 53 56 57 57 59 59 59 62 59 63 63 64 67 68 70 71 71 71 69 69 65 65 64 63 62 63 62 61 61 61 60 60 59 58 55 55 54 53 51 52
52 46 47 50 52 52 52 48 46 55 58 56 55 55 58 60 60 61 63 64 64 65 68 67 68 71 70 69 68 66 66 66 64 63 62 63 61 60 61 60 59 58 56 55 53 52 51 50 51
46 45 38 48 51 53 52 41 52 57 53 53 54 53 54 58 60 61 63 62 64 63 64 67 71 70 69 69 68 67 66 65 65 64 63 63 62 61 59 59 59 56 54 53 52 51 49 48 48
39 33 36 43 51 50 48 40 51 54 51 51 51 52 54 55 57 58 60 61 62 63 63 64 68 68 68 69 68 67 66 65 65 64 64 63 63 62 60 59 57 55 53 52 52 49 49 47 46
37 33 35 37 44 45 43 41 49 52 51 49 50 50 51 53 57 60 60 60 62 61 62 63 65 68 68 68 68 66 65 65 64 64 65 63 64 61 60 57 56 55 52 50 50 48 46 46 46
41 37 36 39 46 42 41 40 46 51 48 48 50 52 54 56 60 59 59 60 60 59 59 60 63 67 67 67 66 65 65 64 63 65 65 63 64 61 59 56 57 55 55 55 55 48 47 44 44
42 37 34 40 44 41 40 39 46 51 49 51 53 54 56 56 56 56 58 58 58 60 59 58 61 66 66 67 67 66 66 65 65 65 65 64 64 61 61 61 59 59 56 55 54 48 45 43 42
41 37 34 36 40 39 37 37 40 47 48 50 51 52 52 53 54 56 54 55 56 56 58 59 58 62 65 67 66 60 59 59 59 60 62 62 63 62 62 60 60 60 59 56 54 49 48 43 41
37 41 41 38 34 29 36 27 36 41 42 44 45 46 46 48 50 51 51 52 53 55 56 58 59 59 61 64 65 64 64 62 62 63 64 60 61 61 62 60 59 61 59 56 54 52 47 45 42
40 43 39 36 31 27 29 26 34 36 40 42 45 45 45 46 47 49 50 52 53 53 52 54 57 58 59 62 65 63 63 65 61 62 62 60 59 60 60 59 58 57 56 57 55 50 50 46 43
46 39 35 31 28 18 26 26 31 35 35 40 42 43 44 45 46 49 51 53 53 51 52 51 52 55 56 56 63 63 63 63 57 55 58 57 56 56 57 57 56 55 54 52 52 51 50 49 47
41 36 21 19 15 19 28 26 32 38 40 40 41 43 45 45 46 47 49 50 52 51 51 52 53 53 54 53 58 63 63 62 58 57 58 56 53 52 53 54 53 51 51 50 49 49 48 47 46
33 33 22 19 15 21 29 24 34 40 41 43 43 43 47 50 47 48 49 49 49 51 50 51 51 52 53 53 52 58 62 60 59 57 58 57 56 56 56 53 53 52 50 49 50 49 47 47 45
33 25 32 23 21 17 23 30 39 41 41 41 42 45 46 46 48 48 49 49 49 50 51 50 51 51 51 52 51 53 57 56 56 56 57 57 56 56 51 52 52 50 50 49 50 47 46 45 43
37 39 26 21 13 17 22 23 29 36 39 42 43 42 48 48 47 48 51 49 48 49 49 48 49 50 51 50 50 52 55 58 54 52 53 53 52 51 51 50 50 49 48 48 49 47 46 45 41
34 28 28 27 24 17 19 27 35 37 37 40 42 46 47 46 47 49 50 48 48 48 47 47 48 48 49 49 49 50 52 56 52 50 49 48 49 49 49 49 49 48 48 49 48 46 45 44 43
35 32 30 20 18 20 19 25 40 39 41 42 49 46 47 49 51 49 46 45 44 46 47 47 47 47 47 48 49 50 55 49 49 51 49 48 47 48 49 48 48 48 48 48 46 45 43 41 40

GFSSGP_sfc_temp_033.txt.gz
Temp
74 74 72 69 60 56 51 54 59 61 64 70 70 70 71 73 70 67 71 75 77 78 81 81 80 80 79 79 79 78 78 78 78 78 78 78 78 77 77 77 77 78 77 77 77 78 77 77 76
73 74 69 62 54 48 51 56 57 62 68 67 68 71 71 71 72 67 70 74 78 78 81 82 79 80 79 79 79 78 78 78 78 79 79 78 78 77 77 77 77 78 77 77 77 76 76 76 76
72 71 65 59 51 48 51 57 61 65 66 68 70 73 71 71 72 72 74 75 78 78 80 82 78 79 79 77 78 78 78 78 78 78 78 78 77 77 77 77 77 77 76 75 75 75 75 75 75
69 67 62 54 49 53 58 61 62 64 68 70 70 69 74 74 74 76 75 77 77 77 80 79 77 77 77 77 77 77 78 78 78 77 78 77 77 77 77 76 75 75 75 75 75 75 75 75 75
64 62 51 48 50 55 59 61 63 63 64 68 68 69 71 73 72 73 74 76 75 76 79 80 77 77 77 77 77 77 77 77 78 77 77 77 77 77 76 75 74 74 75 75 75 75 75 74 74
58 58 47 46 50 55 58 63 63 64 66 68 68 68 71 70 71 71 74 75 76 76 78 80 76 76 76 76 76 77 77 77 77 77 77 77 77 76 75 75 74 75 75 75 75 75 74 74 74
55 53 49 48 52 53 58 63 63 64 65 68 71 68 73 70 71 73 73 74 74 76 77 78 79 77 74 75 75 76 76 76 76 76 77 76 76 76 75 75 74 75 75 75 74 74 74 74 73
56 56 47 48 50 52 61 62 66 64 66 71 71 67 70 70 71 71 71 71 74 74 76 76 77 77 77 78 74 74 74 75 75 75 74 73 73 73 74 73 74 74 74 74 74 74 74 73 72
58 49 45 49 49 55 60 59 65 67 65 67 70 69 69 70 70 69 68 69 70 72 73 74 75 76 76 76 75 73 73 73 73 73 71 72 78 77 75 71 71 73 73 73 73 73 71 69 69
54 47 47 54 57 56 59 61 62 63 61 64 67 68 66 68 68 67 67 67 68 69 71 73 74 74 74 75 76 76 76 76 77 77 76 76 75 76 75 71 70 72 72 72 73 71 68 68 71
52 48 53 56 59 60 58 59 63 61 59 63 63 65 67 65 66 67 68 70 69 71 72 73 74 74 73 75 74 75 73 73 74 75 75 75 74 74 74 74 74 74 69 73 71 70 71 69 70
49 54 55 58 60 59 57 61 59 60 63 67 65 67 68 67 66 66 67 68 70 71 71 73 74 74 72 74 74 73 71 73 72 72 74 72 72 71 72 72 72 72 72 70 70 70 69 68 67
51 52 56 59 58 58 59 57 59 58 63 65 64 65 67 68 69 70 71 71 70 70 72 72 74 73 72 70 72 73 73 73 74 73 72 72 71 70 72 72 71 71 70 70 68 69 68 68 67
54 55 56 57 57 58 55 55 56 59 62 62 61 64 65 66 69 69 69 70 70 72 73 73 73 73 73 70 70 71 73 73 72 72 72 71 72 71 71 70 70 70 70 69 68 68 67 67 67
53 49 52 53 55 55 56 51 50 60 61 61 61 62 64 65 67 67 71 71 72 72 73 73 74 73 72 71 70 70 71 72 71 72 72 71 71 71 71 70 69 70 69 67 66 65 65 64 64
48 49 42 52 52 55 57 45 56 59 57 57 59 59 59 62 65 66 68 69 72 71 70 73 73 73 72 71 70 70 70 71 72 71 71 71 71 71 70 69 69 69 67 65 64 63 62 63 63
44 37 39 46 53 52 51 45 54 57 57 56 58 59 58 60 62 64 67 67 68 71 71 70 72 73 72 72 70 69 68 69 71 71 71 71 70 70 70 69 69 67 65 64 63 61 63 61 60
36 38 40 42 49 48 46 45 51 55 54 54 56 58 57 58 62 66 66 67 68 67 68 69 70 73 72 72 69 68 67 68 69 69 70 69 70 69 68 68 68 66 63 62 62 61 59 60 60
43 41 40 44 49 47 44 44 48 53 52 52 54 57 59 60 63 64 65 66 65 65 65 66 67 70 71 69 67 66 66 66 66 68 70 69 70 68 67 66 66 64 63 62 62 60 56 56 58
43 39 39 44 47 46 42 43 49 52 52 53 54 55 57 57 59 60 61 62 63 63 64 64 65 68 70 71 72 70 69 68 69 67 68 69 69 68 67 66 64 63 62 61 60 55 51 56 56
41 39 38 40 43 43 40 41 44 50 51 53 51 51 52 53 55 57 57 58 58 59 61 63 64 65 68 71 70 67 66 64 65 64 66 68 69 67 68 66 65 62 63 60 58 56 54 54 53
38 45 43 41 38 34 40 34 41 44 47 49 47 49 50 52 54 55 55 58 58 58 57 59 62 64 65 69 69 68 67 65 67 67 67 67 67 66 67 66 64 62 62 62 61 60 58 56 52
40 44 40 39 35 34 35 33 40 43 44 46 47 48 50 51 51 53 55 56 58 57 56 57 58 61 63 65 68 67 67 69 69 67 66 66 65 66 65 65 64 61 61 61 59 57 57 56 53
45 40 37 34 33 26 32 32 37 41 44 46 48 49 50 51 51 53 55 56 58 57 56 57 59 59 60 61 63 66 66 67 66 64 64 64 63 63 64 63 63 62 60 57 56 56 56 54 54
43 39 26 24 23 27 32 30 37 42 45 47 48 50 50 51 51 53 54 55 56 55 56 57 58 59 60 60 59 61 65 66 65 65 64 63 61 60 61 62 61 61 60 59 56 55 54 54 52
38 37 27 24 23 27 31 28 39 44 47 49 50 50 49 52 52 53 53 54 54 54 55 56 57 57 58 59 59 59 61 64 65 64 64 64 63 62 64 61 61 60 59 57 56 54 54 53 51
36 30 36 25 24 23 29 33 42 45 45 47 49 49 49 52 52 52 53 54 54 54 55 53 54 56 57 57 58 58 59 60 62 62 63 64 64 62 62 60 59 58 57 56 54 53 52 51 49
39 39 29 25 19 22 27 28 35 40 44 46 46 48 50 51 51 52 53 53 53 53 53 54 54 54 54 55 55 57 57 58 60 59 60 61 61 60 57 57 57 56 55 54 53 50 49 48 47
35 32 31 31 27 23 24 32 39 42 44 45 46 49 49 49 51 51 51 51 52 52 53 53 53 52 53 54 54 54 55 56 58 56 56 57 57 56 55 55 54 53 52 52 51 50 47 44 45
38 35 33 27 23 24 25 31 44 43 43 45 47 49 50 50 50 48 48 49 51 49 49 49 50 50 51 52 53 53 54 56 53 53 53 53 52 52 52 51 51 51 51 50 49 47 46 44 42

GFSSGP_sfc_temp_036.txt.gz
Temp
80 86 90 84 69 69 63 65 72 69 72 78 79 78 79 82 79 74 80 84 88 88 89 87 80 79 79 79 79 78 78 78 78 78 78 78 78 78 78 78 78 77 78 77 78 78 77 77 77
84 84 86 79 64 59 64 70 67 72 76 79 78 79 78 79 83 80 81 82 87 88 89 88 80 80 80 79 78 78 78 78 78 78 78 78 77 77 77 78 78 77 77 77 77 76 76 76 76
82 84 76 70 65 60 63 69 73 74 77 77 78 81 80 78 82 84 84 84 88 88 90 88 79 80 79 79 78 78 79 78 78 78 78 77 77 77 77 77 78 76 76 75 75 75 75 75 76
80 80 77 64 60 67 69 71 73 73 77 80 79 77 82 83 82 86 85 86 87 88 90 81 78 79 78 78 78 78 78 78 78 78 77 77 77 77 77 76 75 75 75 75 75 75 75 75 75
80 77 64 60 63 69 72 74 73 72 74 77 78 76 79 81 82 84 85 86 86 87 89 86 78 78 77 77 77 78 78 78 77 78 77 77 77 77 76 75 75 75 75 75 75 75 75 74 74
70 74 60 56 61 69 72 75 73 73 75 78 77 78 80 81 81 81 84 86 87 86 86 86 77 77 76 76 76 77 77 77 77 77 77 77 77 76 75 75 75 75 75 75 75 75 74 74 74
67 65 60 61 60 64 68 76 73 75 75 76 81 76 82 82 80 76 80 86 86 87 86 85 82 80 74 75 75 76 76 76 77 77 77 76 76 75 75 75 75 75 75 75 75 74 74 74 73
70 68 62 63 59 60 71 72 76 75 75 81 81 76 78 79 78 75 76 76 84 85 86 87 86 85 83 82 74 74 75 75 75 75 74 73 73 74 74 73 74 74 75 74 74 74 74 73 72
69 61 58 60 60 65 70 69 73 75 76 78 79 78 77 79 74 72 71 72 80 81 84 86 86 85 85 85 80 74 73 73 73 74 72 72 82 80 76 73 72 73 73 73 74 73 71 70 69
65 59 62 69 69 67 69 70 72 71 71 73 75 78 75 75 71 69 69 70 72 74 78 83 84 84 84 83 83 83 83 82 82 82 81 83 84 83 81 74 70 72 72 72 73 71 70 71 80
63 60 67 64 68 69 69 69 72 70 67 74 74 74 75 70 70 70 71 73 72 74 75 77 80 83 83 82 83 83 84 83 83 83 83 84 83 81 80 81 78 79 70 79 75 74 79 78 80
57 64 66 65 65 65 66 71 68 70 73 76 76 75 76 74 72 70 71 72 74 73 75 76 77 79 80 83 83 84 83 82 82 82 83 82 81 79 80 80 79 80 80 79 79 79 78 77 77
58 60 64 66 64 65 66 66 68 68 74 75 74 73 76 76 77 78 77 77 77 74 75 76 77 78 76 76 83 83 82 81 82 82 82 83 81 79 81 80 79 79 81 80 78 78 78 77 77
61 60 63 64 64 63 62 64 64 69 74 73 73 74 77 77 78 79 79 80 80 80 79 77 77 77 77 74 74 82 83 83 83 82 82 81 81 80 80 78 76 77 79 80 79 78 77 77 77
60 55 59 60 63 62 64 58 58 70 74 71 74 76 75 77 79 78 81 81 83 84 84 83 81 79 77 76 74 74 81 82 82 82 82 81 81 80 80 78 74 77 79 78 77 77 76 75 75
56 56 48 60 62 62 61 54 62 68 69 68 71 73 73 75 77 80 81 81 83 84 83 84 83 81 78 76 75 75 72 79 81 82 82 81 80 80 80 79 76 79 78 76 75 74 73 73 73
54 48 50 52 60 61 59 56 64 67 65 66 69 72 72 72 75 78 80 81 82 84 84 83 83 82 81 78 75 73 74 72 81 82 80 80 80 80 79 79 79 79 77 74 74 73 73 71 71
45 48 49 50 54 56 54 55 61 64 64 64 68 71 73 72 74 78 79 80 80 81 82 83 82 82 82 81 73 71 71 71 72 79 80 80 80 78 78 78 78 78 75 73 72 71 71 71 70
53 50 48 52 54 53 54 54 58 62 64 64 66 70 71 72 75 73 74 75 75 77 77 78 79 80 81 80 70 68 68 69 69 71 78 79 79 78 77 77 77 77 74 73 72 71 67 66 69
52 48 47 49 53 53 53 52 58 62 62 63 63 65 67 69 69 69 70 70 72 73 74 75 77 77 79 80 80 78 74 72 72 70 70 77 77 77 76 75 75 75 73 72 70 68 65 65 64
49 47 45 47 50 51 50 51 54 54 58 58 59 60 63 65 66 67 69 70 70 69 69 71 74 75 76 78 79 78 76 74 73 70 69 70 76 76 76 74 74 74 73 71 69 67 65 61 61
44 50 48 46 46 44 49 48 52 54 53 56 58 60 62 63 65 66 66 68 68 68 67 68 69 71 74 75 75 75 73 71 74 75 74 70 71 75 75 74 73 72 70 70 68 66 66 66 59
47 51 48 46 45 43 44 43 50 54 51 53 58 59 61 62 62 63 64 65 68 67 65 67 69 70 71 73 73 74 74 76 77 76 74 72 69 70 72 72 72 70 69 70 68 66 66 67 64
50 48 45 45 44 35 42 41 47 50 53 54 57 59 60 62 62 64 65 66 67 68 67 67 69 70 70 70 72 72 72 74 74 74 72 73 71 67 69 70 70 70 68 68 67 66 63 64 65
47 45 34 33 32 36 39 38 49 52 55 57 57 59 61 62 63 63 63 64 64 64 65 66 68 68 70 70 70 70 71 73 73 73 73 72 70 66 65 67 68 69 69 67 67 63 60 57 56
42 45 39 31 33 38 38 37 48 54 56 56 58 59 60 61 63 62 62 63 63 63 64 65 65 65 67 68 68 70 70 70 71 71 71 73 74 72 70 67 67 68 69 68 66 63 60 60 58
38 37 44 36 35 36 43 44 50 52 52 55 58 58 59 61 61 61 61 62 62 62 63 62 63 64 65 65 66 67 69 68 68 70 70 69 72 72 72 69 67 66 66 66 64 62 60 59 59
46 47 37 36 29 32 40 40 46 47 51 55 56 57 59 60 60 60 60 59 60 61 62 63 63 62 63 63 65 65 65 66 66 68 66 64 69 69 67 67 66 64 62 60 59 58 59 57 53
41 41 40 42 38 35 37 44 54 54 55 55 57 58 58 58 58 57 57 58 59 59 59 59 59 58 59 61 63 63 64 65 63 61 59 59 61 62 62 63 63 62 59 57 55 54 53 52 48
45 44 45 39 31 35 37 44 54 56 56 55 57 58 59 57 56 55 55 55 55 54 55 55 56 55 56 58 60 61 63 63 60 57 58 59 58 59 58 58 57 58 57 56 53 52 51 49 47

GFSSGP_sfc_temp_039.txt.gz
Temp
81 88 92 85 69 71 66 69 78 74 75 83 83 82 82 84 80 73 85 89 92 91 89 86 80 80 79 79 79 79 79 79 78 79 78 78 78 78 78 78 78 78 78 78 78 78 77 77 77
87 88 86 80 65 60 66 76 71 77 81 83 83 82 81 81 88 83 84 87 92 92 89 88 79 79 79 79 79 78 79 78 78 78 78 78 77 77 78 78 77 77 77 77 77 76 76 76 76
82 87 76 71 66 61 65 74 76 78 81 81 81 85 84 82 87 88 89 90 92 92 91 86 79 79 79 79 78 78 79 78 78 78 78 77 77 77 78 78 76 76 76 76 76 76 76 76 76
80 80 79 66 63 70 73 76 79 77 80 83 82 79 86 87 87 89 89 91 91 92 93 80 79 79 79 79 78 79 79 79 78 77 77 77 77 77 77 76 75 75 75 75 75 75 75 75 75
79 77 64 62 65 73 78 78 79 76 78 80 82 80 82 84 88 90 89 91 91 92 91 86 79 78 78 78 79 78 79 78 78 77 77 77 77 76 76 75 75 75 75 75 75 75 75 74 74
68 73 60 59 64 73 78 80 78 77 80 80 80 81 81 86 86 87 89 91 92 91 89 85 77 77 77 77 77 78 78 78 77 77 77 77 77 76 75 75 75 75 75 75 75 75 74 74 74
64 65 59 63 65 69 75 81 76 77 79 79 84 78 84 85 83 86 89 91 90 90 89 85 83 78 75 75 75 76 77 77 77 76 77 76 76 75 75 75 75 75 75 75 75 74 74 74 73
71 65 59 64 63 64 77 77 80 78 78 87 86 77 79 83 81 81 86 89 89 89 89 86 85 84 83 81 74 74 75 75 76 75 74 73 73 74 74 73 74 75 75 74 74 74 74 73 72
74 56 53 61 65 68 76 73 80 82 80 81 85 83 81 84 79 74 73 75 86 86 88 89 89 87 86 86 79 74 74 74 74 74 72 72 80 78 75 74 72 73 74 74 74 73 72 70 69
63 59 61 72 73 70 74 72 77 73 75 78 80 82 81 82 75 71 71 72 81 82 86 88 88 87 87 87 83 82 83 81 81 79 79 82 83 82 81 73 71 72 73 73 73 72 71 69 78
64 60 68 72 72 74 72 72 78 72 71 77 77 81 81 79 76 73 73 76 74 77 80 86 86 87 86 85 85 84 85 83 83 84 83 82 84 82 81 79 76 77 70 76 74 72 76 79 80
59 66 70 73 69 67 68 75 72 73 75 81 81 79 80 79 78 78 76 80 81 76 76 77 84 85 85 86 85 86 85 84 83 84 84 83 83 81 81 81 80 79 78 80 78 78 79 78 79
59 66 69 70 66 67 72 71 72 73 78 79 78 76 78 79 81 82 81 82 81 79 77 76 78 81 83 83 85 85 85 84 84 84 84 85 83 79 79 81 78 80 82 81 79 79 79 78 78
64 65 65 67 65 66 65 69 70 73 79 77 76 76 78 80 81 82 82 81 82 83 81 79 78 79 83 78 80 85 86 85 84 84 83 84 83 82 81 80 74 75 81 81 80 79 78 78 78
63 59 61 63 64 63 66 62 64 73 77 74 76 78 78 80 82 81 84 83 86 87 86 84 82 82 81 80 76 78 84 85 84 84 83 83 82 82 82 81 76 74 75 81 80 79 78 77 77
56 58 50 60 61 64 63 55 68 74 73 72 75 78 78 80 81 83 85 85 86 86 86 87 86 84 83 82 80 76 78 84 85 85 84 83 83 82 81 81 77 74 75 79 78 76 74 74 74
54 47 51 54 63 62 59 57 68 71 70 70 73 76 77 78 80 82 85 85 85 86 86 86 86 86 84 84 80 75 74 75 83 85 84 83 82 82 81 81 81 75 75 76 76 75 74 72 72
47 48 54 53 57 59 57 57 66 68 68 69 72 74 75 76 78 82 84 85 85 85 86 86 86 85 85 85 84 74 72 72 73 81 84 83 83 82 81 80 80 81 77 75 75 73 73 72 71
58 53 53 57 58 55 55 58 62 67 67 67 70 72 73 75 80 79 78 79 79 80 81 82 82 84 84 83 82 75 71 71 71 72 79 83 82 82 79 78 79 79 78 75 75 73 70 69 71
54 52 51 55 58 54 56 55 61 64 65 67 69 70 72 73 75 75 74 74 75 76 78 79 80 81 82 82 83 82 77 73 72 71 72 75 80 80 79 77 77 77 76 75 73 71 68 67 68
53 51 50 49 52 56 53 51 55 63 62 63 63 65 68 69 70 70 72 72 72 71 71 73 75 77 79 80 81 80 81 78 74 70 70 72 75 79 78 77 76 76 75 73 72 70 68 63 65
48 56 53 49 47 44 54 46 55 56 56 59 62 64 66 66 69 69 69 69 70 70 70 71 72 73 75 77 76 76 76 74 76 77 77 76 76 75 77 74 74 73 74 72 72 71 67 65 59
50 55 52 49 47 46 47 44 53 57 52 55 60 62 64 65 66 67 67 68 71 70 68 70 72 73 74 73 74 73 73 76 77 77 77 78 77 73 73 74 73 69 71 71 70 69 65 65 62
55 51 50 49 46 35 47 47 50 52 56 56 59 63 64 66 66 67 68 69 70 69 69 69 70 72 73 72 72 71 71 74 75 75 75 77 77 74 71 70 70 70 68 68 68 67 65 63 64
52 47 35 33 32 36 45 41 53 58 62 61 60 63 64 66 66 66 66 66 67 66 67 68 69 69 71 72 72 72 71 72 72 74 75 75 75 74 68 67 67 67 68 68 67 66 64 62 61
47 47 39 31 35 40 42 38 50 60 62 62 64 63 64 65 66 64 65 65 65 65 65 66 66 66 68 69 69 70 71 71 71 72 73 74 75 76 76 69 66 66 66 66 66 64 64 63 60
39 37 48 40 42 39 43 49 52 56 56 58 60 60 62 63 64 63 64 64 64 64 64 65 65 65 66 66 67 68 69 69 68 70 71 73 74 73 74 74 69 65 65 65 63 62 61 59 58
41 49 37 39 30 34 41 45 47 49 52 56 58 59 61 62 62 62 62 62 62 63 63 64 64 63 63 64 65 66 67 68 68 68 68 68 68 69 70 67 65 63 63 62 61 59 58 57 56
38 36 41 44 41 35 39 44 58 54 56 56 58 60 60 60 60 60 60 61 61 61 60 60 61 59 60 61 63 64 65 66 66 64 63 61 61 61 61 61 60 61 60 59 56 55 55 54 53
49 47 48 39 35 40 38 42 58 60 59 58 58 60 61 60 59 59 58 59 57 55 55 57 58 57 58 59 61 62 63 64 64 62 60 59 59 59 58 58 57 57 57 56 54 52 50 50 47

GFSSGP_sfc_temp_042.txt.gz
Temp
77 83 83 73 57 58 55 61 69 67 66 72 75 72 67 72 70 59 77 82 85 81 81 80 79 79 79 79 79 78 79 79 79 79 79 78 78 78 78 78 78 78 78 79 78 78 77 77 76
78 84 75 67 54 50 55 66 65 68 72 74 74 71 70 70 78 75 76 83 87 83 82 81 79 79 79 79 78 78 79 78 78 78 78 78 78 78 78 77 78 78 78 77 77 77 76 76 76
77 82 65 59 56 52 56 68 68 72 73 73 72 73 73 72 80 77 81 84 87 83 84 80 79 79 79 79 78 78 79 78 78 78 77 77 78 78 78 77 77 76 76 76 76 76 76 75 75
75 71 67 56 55 62 65 67 70 72 72 75 73 69 75 78 77 80 83 86 85 84 79 77 78 78 78 78 78 79 79 78 78 77 77 77 77 78 77 76 75 75 75 76 76 75 75 75 75
73 66 55 54 57 65 71 73 70 70 70 73 70 68 69 76 82 82 83 86 83 81 80 79 78 78 79 79 78 78 79 78 77 77 77 77 77 77 75 75 75 75 75 76 75 75 75 74 74
60 64 51 50 57 66 71 74 70 68 72 71 68 68 68 78 80 81 84 83 85 80 81 79 77 78 77 78 78 78 78 78 77 77 77 77 76 76 75 75 75 75 75 76 75 75 74 74 74
56 53 49 54 59 64 69 75 69 68 69 70 72 66 70 73 78 81 81 83 83 83 80 77 78 78 76 76 76 76 77 77 76 76 76 76 75 75 75 75 75 75 75 75 74 74 74 74 73
59 53 51 56 56 60 71 74 74 71 69 76 76 64 61 71 75 77 79 81 81 80 80 77 76 76 75 72 74 74 75 75 75 75 74 72 73 73 74 73 74 75 75 74 74 74 74 73 72
63 49 45 51 55 63 73 69 73 74 70 71 74 71 74 75 73 70 69 72 78 80 79 78 77 77 76 74 73 73 74 73 73 73 71 70 69 70 70 71 72 73 74 74 74 73 72 70 69
57 48 50 57 64 65 70 68 67 66 67 67 69 74 76 73 69 67 66 67 72 75 78 80 79 78 76 82 71 71 74 71 71 73 71 71 70 70 73 69 70 72 72 72 73 73 71 69 64
59 52 60 64 67 66 69 68 68 65 62 68 68 71 73 71 69 68 68 68 68 71 74 79 78 78 77 76 73 72 74 71 73 73 72 71 74 69 70 66 66 66 68 67 68 66 65 64 65
55 61 63 65 66 66 65 70 66 67 64 72 70 72 73 72 70 70 69 71 70 72 71 74 76 77 76 76 75 74 74 73 72 73 75 73 69 71 70 69 67 67 67 67 65 64 65 66 68
56 61 65 67 64 62 68 65 64 65 69 72 72 72 67 68 71 74 74 75 74 71 75 74 72 73 75 74 74 74 74 74 73 73 74 73 70 69 70 70 71 70 69 68 68 67 66 66 66
61 62 63 65 62 63 63 64 62 66 69 70 70 66 67 69 70 69 73 74 73 74 73 75 75 73 75 73 72 74 76 76 74 73 73 74 72 70 70 70 71 69 68 69 68 67 65 65 64
62 55 59 59 60 60 62 57 58 67 69 68 68 69 71 72 73 72 73 73 75 76 77 74 74 75 73 72 71 71 72 79 74 73 75 74 74 72 71 70 67 68 71 68 69 68 66 64 65
55 53 46 57 60 61 59 48 61 67 65 64 66 67 69 72 74 74 75 75 75 74 77 78 79 76 74 73 71 71 70 72 75 75 74 74 74 73 71 69 67 67 68 71 66 65 63 62 61
49 42 45 51 61 59 56 50 62 66 66 62 64 67 68 69 71 72 73 73 75 75 75 75 77 78 76 75 73 72 70 70 71 75 77 74 76 74 72 70 68 68 66 69 70 65 62 60 59
41 42 48 47 55 56 53 51 60 63 61 60 61 62 63 67 69 71 73 68 71 71 72 73 74 75 75 75 75 70 69 70 71 72 72 75 73 74 72 70 69 70 67 67 69 66 62 60 59
51 48 46 52 57 53 51 53 57 60 60 57 59 61 63 64 69 67 69 69 68 68 68 69 70 71 70 69 69 67 66 66 67 70 71 70 76 73 70 71 70 70 69 69 69 64 61 58 59
52 46 47 51 55 52 51 51 57 59 60 60 59 60 62 63 64 64 66 64 65 64 63 65 67 69 70 68 69 69 68 68 69 68 71 71 69 71 70 69 68 69 68 67 67 65 58 57 57
49 45 46 45 50 51 48 45 51 57 60 62 56 56 59 59 61 62 62 61 61 60 60 63 64 65 66 67 67 67 66 66 64 64 66 69 71 69 69 72 67 66 66 66 66 64 62 58 55
44 53 52 48 42 36 49 33 48 53 53 54 51 53 56 57 60 62 62 60 59 60 60 62 64 65 66 65 63 63 61 61 65 67 68 67 69 69 70 69 70 69 64 64 64 63 62 57 57
49 53 49 47 41 39 42 35 43 49 47 50 52 54 55 56 58 60 60 61 61 61 60 61 62 64 64 63 62 60 60 62 63 65 66 66 67 68 68 69 68 68 67 65 61 61 61 61 57
55 48 46 44 41 27 40 39 40 45 49 51 53 54 56 57 58 59 61 60 60 59 59 59 60 62 63 62 62 60 58 59 59 61 63 65 66 64 65 67 68 67 65 66 66 62 61 59 58
49 41 27 26 25 25 41 38 43 51 54 54 53 54 56 57 57 57 56 57 57 56 57 59 59 59 60 60 60 60 59 59 58 59 60 66 67 63 63 63 64 66 66 64 64 61 61 59 58
43 41 30 25 24 28 38 31 42 53 56 58 57 57 57 57 56 57 56 55 55 57 57 57 57 57 58 58 58 59 59 58 58 59 59 59 62 65 67 62 61 61 62 64 63 62 62 60 58
40 32 43 33 35 26 32 39 47 51 51 53 54 55 54 55 55 55 55 55 54 55 55 55 55 56 56 56 56 57 57 57 57 58 58 58 59 63 62 60 61 60 62 62 61 61 60 60 58
40 45 35 30 21 25 32 35 36 43 47 51 51 52 54 55 54 54 54 54 54 54 53 54 54 53 54 54 54 56 56 57 57 56 54 54 55 56 56 56 56 58 60 60 59 58 58 56 54
36 34 36 37 32 25 26 32 46 47 49 49 52 54 54 54 53 52 52 53 53 51 51 51 51 51 51 52 52 52 54 56 56 53 53 54 57 58 57 55 54 57 57 57 55 54 54 53 51
44 41 40 30 28 29 28 32 50 51 52 53 53 55 55 55 53 53 52 52 49 47 47 48 49 49 49 50 50 51 52 53 56 52 52 54 57 56 54 54 54 54 54 53 52 51 50 50 47

GFSSGP_sfc_temp_045.txt.gz
Temp
74 75 71 67 53 49 45 54 57 62 62 64 68 69 64 65 65 58 72 77 77 75 78 79 79 79 79 79 78 78 78 78 79 79 78 78 78 78 78 77 78 78 79 78 78 78 77 77 76
72 75 68 59 47 41 47 56 60 62 67 66 71 68 66 63 71 71 72 78 79 77 78 78 79 79 79 79 78 78 79 79 78 78 78 78 78 78 78 79 78 78 78 77 77 77 76 76 76
75 75 59 52 47 44 47 58 61 65 71 68 65 70 66 66 72 72 75 80 79 78 78 78 78 78 78 78 78 78 79 78 77 77 77 77 78 78 77 78 77 77 76 76 76 76 75 75 75
70 66 60 49 47 55 56 60 65 66 69 71 67 63 69 73 73 76 79 80 78 76 75 77 78 78 78 78 78 79 79 78 77 77 77 77 78 78 76 76 75 75 75 76 76 75 75 75 75
70 60 49 45 50 57 58 68 66 65 66 66 67 62 63 72 76 77 78 81 74 75 76 77 78 78 78 78 78 79 78 78 77 77 77 77 77 76 75 75 75 75 75 75 75 75 74 74 74
55 57 43 44 50 60 61 69 69 64 66 66 66 63 62 71 74 76 79 75 78 75 76 77 77 78 78 78 77 78 78 77 77 77 77 77 76 76 75 75 75 75 76 75 75 75 74 74 74
54 50 45 48 51 57 65 69 64 63 61 63 68 60 61 67 72 77 77 76 77 77 75 73 74 76 76 76 77 77 77 77 76 76 76 75 75 75 75 75 75 75 75 75 74 74 74 74 73
56 53 48 49 49 52 65 71 69 67 63 71 71 59 59 66 70 72 73 76 75 75 75 71 72 75 74 74 74 74 75 75 75 75 73 72 72 73 74 73 74 75 75 74 74 74 74 73 72
59 48 45 49 51 56 67 62 67 70 67 69 66 66 67 71 70 69 68 71 73 74 74 73 71 71 71 71 72 73 73 73 73 72 70 70 67 68 70 69 71 73 73 73 74 73 73 71 70
52 48 49 59 60 58 60 65 67 63 63 63 63 67 70 69 66 65 66 67 68 70 72 74 73 72 71 76 69 68 71 69 70 69 68 67 66 66 70 68 70 72 72 72 73 73 71 68 62
54 50 57 60 63 62 58 63 68 64 57 62 62 63 66 65 64 64 64 66 65 69 71 72 74 73 72 73 68 66 67 66 68 68 67 67 68 65 65 64 66 66 67 66 68 66 63 61 61
52 59 60 62 63 57 56 65 63 63 62 65 66 67 66 65 65 64 65 67 67 68 70 71 71 72 70 72 70 69 69 68 67 69 69 67 65 64 65 65 63 64 65 63 62 61 62 62 62
52 57 62 63 61 58 58 59 63 64 66 68 68 68 66 65 66 67 68 69 68 68 70 70 70 69 71 70 69 69 69 70 70 70 71 70 66 67 67 65 64 64 64 64 62 62 62 61 63
57 58 59 61 61 63 61 62 61 64 66 66 67 64 61 64 68 66 67 69 67 69 70 71 71 70 70 69 69 69 70 73 70 69 70 71 69 68 68 66 65 64 65 65 66 64 62 61 62
57 52 56 55 58 58 60 56 58 63 63 65 62 63 66 66 65 66 68 69 69 70 71 71 71 71 69 69 69 69 69 72 70 70 71 71 70 68 70 67 65 68 67 66 64 64 63 61 61
52 51 43 54 57 59 59 47 57 64 58 61 61 62 64 67 69 68 70 70 69 70 71 72 76 73 71 69 69 69 69 68 70 74 71 72 72 69 67 67 65 66 66 65 64 63 61 60 59
47 37 42 49 57 56 54 45 58 62 60 60 59 60 63 64 68 69 71 69 67 69 70 72 73 72 72 70 69 69 68 68 68 69 71 72 73 72 69 67 66 66 66 66 66 63 64 58 57
37 40 44 44 52 54 49 48 57 59 59 57 58 59 59 63 67 70 69 66 67 66 67 68 70 71 72 73 70 68 67 67 67 67 67 69 71 72 71 68 66 66 65 66 63 62 61 62 58
45 43 42 48 55 50 49 48 55 56 54 55 56 58 59 62 66 64 63 63 65 64 64 63 65 66 67 66 65 65 66 65 64 66 68 66 67 68 68 69 66 67 66 66 66 63 60 57 56
45 41 41 47 53 51 45 47 53 56 54 57 57 57 58 58 59 61 61 61 60 59 59 60 61 62 63 63 64 64 65 65 68 67 67 69 67 66 66 69 66 64 66 65 64 62 56 57 56
43 41 40 43 48 49 43 42 47 54 55 57 57 55 57 58 59 56 57 58 58 58 58 60 60 61 62 62 62 61 61 63 63 63 63 65 66 67 66 65 64 63 62 64 65 63 60 58 53
39 48 48 45 40 34 46 29 42 51 53 54 52 52 53 53 57 58 58 58 57 57 58 59 60 60 63 62 60 57 57 57 59 62 64 65 66 67 67 66 65 64 65 64 61 63 62 57 54
44 50 46 43 37 36 38 31 38 46 45 47 50 50 51 53 55 56 58 61 59 59 58 58 59 60 60 60 60 56 55 56 57 58 60 63 65 66 66 66 65 62 63 64 63 61 58 58 57
51 46 43 40 35 23 36 34 35 40 48 48 49 49 52 53 54 55 58 59 57 57 57 57 58 59 59 58 57 56 55 54 54 55 55 58 60 62 64 66 65 64 62 63 62 62 60 60 58
48 40 27 25 21 23 35 33 40 47 49 51 49 50 51 52 53 53 53 54 55 55 56 58 56 56 56 56 57 56 54 54 53 54 54 55 57 59 61 62 62 61 62 62 61 61 61 60 58
41 39 28 21 19 25 36 28 39 48 53 55 54 52 53 53 51 52 53 52 52 53 53 53 53 53 54 53 53 54 54 54 54 54 54 54 54 56 57 58 61 60 60 61 62 59 59 57 57
38 34 42 32 30 23 30 34 45 47 50 53 51 52 52 52 52 52 52 51 51 51 51 51 51 51 52 52 51 52 52 53 53 52 52 52 52 57 54 55 56 59 60 58 59 60 59 58 56
41 44 32 28 22 22 27 30 33 40 44 50 50 51 51 52 51 51 50 50 49 49 48 49 50 49 49 49 49 51 50 52 52 51 51 51 52 53 52 52 52 54 55 56 57 57 56 56 55
37 35 35 35 29 23 22 30 43 45 47 47 49 52 51 51 49 49 49 48 47 46 46 46 47 47 46 47 48 47 49 50 53 50 49 50 52 51 50 50 50 50 51 52 52 52 53 53 51
43 38 38 27 27 27 24 30 47 46 48 49 50 53 53 51 50 50 49 46 44 44 44 43 44 44 45 46 46 46 47 48 52 50 46 47 47 47 46 47 48 49 50 50 50 49 49 48 46

GFSSGP_sfc_temp_048.txt.gz
Temp
73 72 68 64 52 47 43 51 54 58 58 62 65 66 64 61 63 58 68 72 74 74 77 78 79 79 79 79 78 78 78 78 78 78 78 78 78 78 78 78 78 79 78 78 78 77 77 76 76
70 73 65 56 47 40 44 52 57 61 66 66 66 64 64 61 68 66 67 74 76 76 77 77 79 79 78 78 78 78 78 78 78 78 78 78 78 77 78 78 78 78 78 77 77 76 76 76 76
73 73 59 51 45 42 45 54 59 63 65 66 65 66 64 63 69 69 72 76 76 75 76 77 78 78 78 78 78 78 78 78 77 77 77 77 78 78 79 78 78 77 76 76 76 75 75 75 75
68 65 58 47 45 52 52 55 63 63 64 68 64 61 66 69 70 72 76 76 74 71 72 76 77 78 78 78 78 78 78 78 77 77 77 77 78 78 77 76 76 75 75 76 75 75 75 74 75
67 59 48 43 47 52 58 63 63 63 62 63 63 58 61 71 72 76 75 76 73 71 74 76 77 77 77 77 78 78 78 77 77 77 77 77 77 77 76 75 75 75 75 75 75 75 74 74 74
54 56 42 42 48 57 60 63 62 63 61 63 62 60 59 68 71 74 75 74 75 73 74 76 76 77 77 77 78 78 77 77 77 77 77 77 77 76 75 75 75 75 75 75 75 75 74 74 74
55 51 46 44 49 54 62 65 60 61 60 61 66 57 60 65 69 72 73 73 74 75 73 72 73 76 76 76 76 77 77 76 76 76 76 75 75 75 75 75 75 75 75 75 74 74 74 74 74
55 53 48 48 48 49 63 62 64 65 60 67 66 58 58 64 68 70 72 72 72 72 72 69 71 73 75 76 75 75 75 75 75 74 73 72 72 73 74 73 74 75 75 74 74 74 74 73 73
60 47 44 48 49 53 61 56 64 69 62 63 62 62 67 68 69 68 66 67 69 71 70 69 69 70 70 70 72 72 73 73 72 72 70 69 66 68 69 69 71 73 73 73 74 73 73 71 70
52 47 49 57 59 56 58 58 60 61 62 59 60 65 68 68 67 65 65 64 65 66 68 70 69 68 68 74 69 68 70 69 69 68 67 66 65 65 68 67 69 72 72 72 73 73 72 68 61
52 49 57 59 62 57 54 57 64 59 59 60 60 62 64 63 63 64 65 66 66 68 69 70 70 69 68 70 66 65 66 67 67 66 65 65 65 63 64 63 65 66 67 66 67 65 62 60 59
49 57 60 59 62 55 55 60 56 59 63 67 64 64 63 63 63 64 65 66 66 66 67 69 69 68 67 67 66 66 65 65 66 66 66 63 62 62 62 62 63 64 65 63 62 61 61 60 60
50 57 61 60 57 56 58 54 56 55 63 65 64 64 62 62 63 64 66 67 67 67 67 67 68 67 68 66 66 65 65 66 67 66 67 66 63 62 62 63 62 63 64 63 61 60 60 59 60
54 57 56 57 57 58 54 54 53 59 65 64 66 63 62 62 63 62 64 66 65 67 68 69 69 68 68 66 66 67 67 67 66 67 69 69 66 65 65 64 63 63 64 64 63 61 60 60 59
54 50 52 55 58 57 59 51 49 60 65 62 59 62 66 66 65 63 66 66 67 68 70 70 70 70 67 67 66 66 67 69 67 68 68 70 68 66 66 66 65 65 64 64 62 62 60 60 62
48 49 42 52 56 59 58 47 57 63 62 60 59 59 62 65 66 65 66 67 66 68 68 71 74 71 68 67 67 67 66 67 68 68 68 70 70 68 66 67 66 66 65 65 62 62 59 58 57
42 36 42 47 56 55 54 48 58 64 58 57 56 58 60 63 64 65 66 64 66 65 66 67 69 70 69 68 68 67 67 66 68 67 68 68 70 70 68 68 68 64 64 64 64 61 60 57 56
38 37 45 43 51 53 50 47 55 56 55 55 55 56 59 61 64 66 65 63 62 63 64 65 67 68 68 68 67 66 66 66 66 67 67 68 68 69 67 67 67 65 63 64 61 62 59 58 58
44 40 41 45 52 50 49 48 54 56 50 51 53 55 58 59 59 60 60 60 60 60 60 61 63 62 64 64 64 64 65 65 64 65 67 66 67 67 65 64 63 63 64 65 64 63 60 57 55
44 40 37 45 52 50 47 48 52 54 51 53 53 54 57 56 57 58 57 57 58 58 59 59 60 61 62 62 61 63 64 64 65 66 65 66 65 65 65 64 64 62 66 62 62 61 58 58 54
39 38 37 40 46 47 44 42 46 51 52 54 55 55 55 57 57 55 54 56 57 56 57 59 59 59 60 61 61 60 60 61 62 62 62 65 65 66 64 64 63 62 63 64 63 62 59 60 53
35 46 45 43 39 33 44 29 41 49 49 51 54 50 53 54 54 55 55 56 56 55 55 57 58 58 60 59 58 57 56 56 57 60 62 63 64 64 65 65 64 64 62 62 62 63 62 57 55
42 48 44 41 36 35 35 31 37 42 42 49 51 48 50 51 53 54 56 58 57 56 54 54 56 57 56 56 56 54 53 54 54 55 56 57 60 62 64 65 64 62 62 62 61 59 59 59 61
48 43 40 37 33 23 33 33 32 40 44 44 46 49 49 50 51 53 55 56 55 55 54 54 55 54 54 54 54 52 51 51 52 52 53 53 55 57 59 62 63 63 61 60 60 60 58 59 58
43 37 22 24 23 24 32 31 42 45 48 48 46 46 48 49 50 51 51 52 52 52 53 55 53 52 52 52 52 52 51 51 51 52 52 53 53 53 54 56 58 60 60 60 60 59 59 58 57
41 36 25 21 20 24 33 27 38 47 50 52 52 51 50 49 48 50 50 49 50 51 50 50 50 50 50 50 50 50 51 51 52 52 51 51 51 52 53 54 55 57 58 59 59 58 58 58 57
38 32 37 28 26 20 28 33 42 43 43 48 49 50 50 50 49 50 49 48 48 47 47 48 48 48 48 48 48 48 49 50 50 50 50 50 50 55 52 52 53 54 55 56 57 58 58 55 55
38 43 32 26 20 20 26 27 33 37 41 48 49 49 50 50 50 48 48 46 46 46 45 46 47 46 46 46 46 48 48 50 50 49 48 49 49 49 49 49 49 50 51 52 53 55 55 54 54
37 35 36 36 32 22 21 28 40 41 44 47 49 51 49 49 48 47 46 45 45 44 44 44 44 45 45 45 46 45 46 48 48 46 46 46 46 45 45 46 46 47 47 48 48 48 48 49 50
43 38 39 30 25 26 24 29 44 45 47 50 50 51 52 51 49 47 45 43 42 41 41 41 42 43 44 44 44 44 44 44 45 43 43 44 43 43 43 43 43 44 44 44 44 45 45 47 45

GFSSGP_sfc_temp_051.txt.gz
Temp
72 69 65 62 51 46 42 49 50 57 56 60 63 63 62 61 62 57 66 70 72 74 76 78 79 79 79 79 78 78 78 78 78 78 78 78 78 78 78 78 79 78 78 78 77 77 77 76 76
69 70 63 54 45 40 44 51 54 59 61 63 64 61 61 60 66 64 66 72 74 74 75 77 78 78 78 78 78 78 78 78 78 78 78 78 78 77 78 78 78 78 77 77 76 76 76 76 76
72 69 58 50 43 42 45 53 56 62 63 62 61 63 61 61 65 67 68 74 75 74 75 76 78 78 78 78 78 78 78 78 77 77 77 78 77 79 79 78 78 77 76 76 75 75 75 75 76
65 64 56 46 43 50 51 54 58 61 64 65 61 59 63 67 68 70 73 74 72 71 73 76 77 77 77 77 78 78 78 77 77 77 77 77 79 78 78 77 76 75 75 75 75 75 74 75 75
65 59 47 42 45 51 55 60 60 59 61 60 59 57 59 67 69 72 72 73 70 70 73 75 77 77 77 77 77 77 78 77 77 77 77 77 78 77 77 76 76 75 75 75 75 75 74 74 74
54 55 42 41 45 51 55 59 59 59 60 60 60 58 58 65 67 70 73 71 73 71 73 75 76 77 77 77 77 77 77 77 77 76 77 77 76 76 76 75 75 75 75 75 75 74 74 74 74
53 50 44 44 47 51 56 60 56 57 60 60 63 55 59 63 66 70 69 70 72 72 71 71 73 75 75 75 76 76 76 76 76 76 76 76 75 75 75 75 75 75 75 75 74 74 74 74 74
56 54 49 48 48 49 57 58 61 58 59 67 63 57 57 63 67 68 69 68 69 69 70 69 70 73 77 73 75 75 74 74 75 74 73 72 72 73 74 73 73 75 74 74 74 74 74 73 73
59 48 45 48 51 54 58 56 60 64 59 60 61 60 64 66 67 66 65 65 67 69 68 68 69 69 70 71 73 74 73 72 72 71 70 69 65 67 69 69 71 73 73 73 73 73 73 71 70
51 47 49 56 60 59 59 56 56 57 58 59 58 63 66 66 65 63 64 63 64 65 67 67 67 68 68 73 69 69 70 69 68 67 66 65 64 65 67 66 69 72 72 72 73 73 72 67 60
51 47 56 58 61 60 56 58 60 55 53 58 56 61 63 64 63 63 63 65 66 65 66 68 67 67 67 68 66 66 67 67 66 66 65 64 64 63 64 63 65 65 67 65 67 65 62 59 59
47 56 59 60 59 57 55 60 56 55 57 62 61 62 62 62 63 64 63 63 64 64 65 67 67 66 66 66 65 65 64 65 65 65 65 62 61 61 61 61 62 63 64 63 62 60 60 59 59
47 55 59 58 57 56 59 56 54 54 61 65 65 63 61 61 62 63 64 65 65 64 65 66 66 66 65 65 64 64 64 64 66 65 65 63 61 61 61 61 62 62 63 62 61 60 60 58 59
51 55 55 56 55 57 54 54 54 60 62 61 62 61 60 61 62 61 63 64 64 66 66 67 67 66 66 65 64 64 63 64 64 65 66 65 64 62 61 61 61 61 62 63 62 61 60 59 58
51 48 49 52 54 53 57 49 49 59 62 58 58 60 62 61 62 62 64 64 65 65 68 67 67 68 66 66 65 63 65 66 64 65 66 66 66 63 64 63 61 62 62 62 62 61 60 59 59
46 44 40 49 53 55 52 44 53 58 57 56 57 57 61 64 64 63 64 65 65 66 67 69 72 68 66 67 66 66 65 65 65 65 66 66 67 65 64 64 63 63 61 61 61 61 60 58 57
39 34 38 44 55 53 51 47 56 58 59 56 58 56 59 61 62 63 64 63 64 65 66 66 68 68 67 66 66 65 65 65 66 67 67 67 68 67 66 65 65 63 62 62 62 60 59 57 56
37 34 42 42 49 51 49 48 56 59 58 57 60 56 56 58 62 62 64 62 62 61 62 64 66 66 67 66 66 65 64 64 65 65 66 67 68 67 65 66 65 63 63 62 60 61 57 57 57
41 38 38 42 51 50 49 49 53 56 53 54 52 51 54 57 57 55 56 58 58 58 58 59 62 61 63 63 63 63 64 64 64 65 67 67 67 66 64 65 63 62 63 64 63 61 60 58 54
43 37 36 42 50 50 47 46 52 55 55 54 55 51 52 54 54 54 55 55 57 57 57 58 58 59 59 60 60 62 63 64 64 65 65 65 66 65 64 63 62 62 63 61 61 60 58 57 53
37 37 35 38 44 47 45 42 47 52 52 55 53 53 52 54 55 53 52 54 54 55 56 57 57 58 58 59 59 58 58 59 61 62 62 64 65 65 64 64 63 62 61 61 61 60 59 60 52
34 44 43 42 38 33 44 31 41 48 49 51 56 50 52 52 53 53 53 52 53 53 54 55 56 56 57 57 56 56 55 55 55 56 58 59 62 62 63 63 63 62 61 60 61 62 61 58 57
40 45 43 39 34 33 35 33 39 42 41 48 53 55 50 51 52 52 53 54 54 53 52 53 54 55 54 54 54 53 53 53 54 54 55 56 57 58 60 61 62 61 61 61 60 59 58 59 60
47 41 39 36 32 23 33 34 34 40 44 43 48 51 49 49 50 51 53 53 52 51 51 51 52 52 52 52 52 51 51 50 51 52 52 53 54 54 55 56 58 61 60 60 60 59 58 59 58
43 38 27 26 27 22 31 32 42 45 46 47 48 47 47 47 48 49 49 50 50 50 50 51 51 49 49 49 50 50 49 49 50 50 50 51 51 52 52 53 54 56 60 61 60 58 58 57 57
38 37 25 21 21 23 31 27 38 45 50 50 51 48 45 46 46 48 49 48 48 49 48 48 48 48 48 47 48 48 48 49 49 50 50 50 50 51 51 51 52 53 55 56 57 56 56 57 58
35 29 36 27 23 18 26 32 41 44 45 46 45 46 45 46 47 47 47 47 46 46 46 46 46 46 46 46 46 46 47 48 49 48 48 48 48 52 50 50 50 50 52 53 56 58 57 57 56
37 40 31 24 16 19 24 25 32 37 41 43 44 46 47 47 47 46 46 45 44 44 44 44 45 44 44 45 44 46 45 47 46 46 46 46 45 46 46 47 47 47 47 49 50 51 51 53 52
36 34 34 33 27 22 20 27 37 39 41 41 44 48 50 49 47 45 44 44 43 42 42 42 43 43 43 44 43 43 44 45 45 44 43 44 44 43 43 44 44 43 43 44 45 45 46 47 48
41 38 35 30 25 23 22 27 41 41 42 45 46 49 48 50 48 46 44 42 42 41 40 40 41 41 42 43 43 42 43 43 43 42 42 42 41 42 41 41 41 41 41 40 40 41 42 42 41

GFSSGP_sfc_temp_054.txt.gz
Temp
72 68 64 61 51 45 40 48 49 55 54 59 61 62 61 59 61 57 64 68 72 74 75 77 79 79 79 79 78 78 78 78 78 78 78 78 78 78 78 79 78 78 78 77 77 77 77 77 77
70 69 62 53 44 38 42 48 52 55 58 59 61 59 59 57 63 63 65 70 74 74 75 76 78 79 78 78 78 78 78 78 78 78 78 78 78 78 78 78 78 77 77 77 76 76 76 76 76
70 69 58 49 40 40 44 51 53 58 61 60 57 60 59 59 64 65 67 73 74 73 74 76 78 78 78 78 78 78 78 77 77 77 77 77 77 78 78 78 77 76 76 76 75 75 75 75 76
65 63 57 46 40 47 49 51 56 59 61 60 58 56 61 66 66 68 71 73 72 72 73 76 77 78 77 77 78 78 78 77 77 77 77 77 79 79 78 77 76 75 75 75 75 75 75 75 75
64 59 48 42 44 48 50 56 57 56 58 57 58 55 57 65 67 69 70 71 73 72 73 75 77 77 77 77 77 77 77 77 77 77 77 77 78 78 77 76 75 75 75 75 75 75 74 74 75
55 55 43 39 44 50 52 56 55 56 58 59 57 54 55 63 65 68 70 70 71 72 73 74 76 76 76 77 77 77 77 77 77 77 77 77 77 76 76 75 75 75 75 75 75 74 74 74 74
51 48 42 43 47 50 54 57 54 54 55 57 59 52 56 60 65 68 68 69 70 71 71 72 73 74 75 75 76 76 76 76 76 76 76 76 75 75 75 75 74 75 75 74 74 74 74 74 74
55 52 44 45 47 49 56 57 58 56 54 63 61 55 55 62 66 67 67 67 68 69 69 70 71 72 72 72 74 74 74 74 74 74 73 72 72 73 74 73 73 74 74 74 73 73 73 73 73
57 46 45 47 50 52 56 54 58 61 57 59 61 59 62 64 66 65 64 64 66 68 67 68 69 70 70 71 72 74 73 72 72 71 70 68 65 66 67 68 71 73 73 73 73 73 73 71 68
51 47 47 55 59 58 56 56 55 55 55 57 60 65 66 63 65 63 62 63 64 65 66 67 67 68 68 72 70 72 71 68 67 67 66 64 64 64 67 66 69 71 72 72 73 73 72 66 59
51 47 55 57 60 60 55 57 58 54 52 53 54 59 65 62 61 62 63 64 65 64 66 66 66 67 67 67 66 66 67 66 66 65 64 63 64 62 63 62 64 64 66 65 66 64 61 59 58
46 51 57 58 61 58 55 58 53 53 56 58 60 62 61 63 60 62 62 63 63 64 65 66 66 66 66 66 65 65 66 65 64 64 64 62 61 61 61 61 62 62 63 63 62 60 60 58 58
46 50 56 58 59 58 60 56 55 53 60 61 62 62 60 61 61 62 64 64 63 64 64 65 65 65 65 65 64 64 64 65 65 64 64 62 61 60 60 60 60 61 62 62 61 60 59 58 58
54 55 54 56 57 57 55 54 56 61 63 60 61 60 60 59 61 61 62 63 63 64 64 65 65 65 65 64 64 64 63 64 64 64 64 63 62 61 60 60 60 61 61 62 62 60 59 59 58
53 50 49 50 54 52 57 50 48 59 62 57 56 58 60 61 62 63 64 63 63 64 66 65 66 66 64 64 64 63 63 65 63 65 65 64 63 62 62 61 60 61 61 62 61 61 60 59 59
45 46 42 47 51 54 55 44 54 58 54 53 56 58 59 62 63 63 65 65 64 64 65 66 71 67 64 64 64 63 63 63 63 63 64 65 65 64 62 61 61 61 61 61 60 60 59 58 58
42 35 35 41 52 49 51 45 55 56 53 53 57 58 58 59 62 63 64 63 64 64 64 65 66 66 65 65 64 63 64 62 63 63 63 64 65 65 64 63 63 61 60 60 60 59 59 58 58
36 32 35 36 46 48 47 46 54 55 54 55 60 59 55 57 60 63 63 62 62 62 63 64 65 65 65 65 64 63 63 63 63 64 64 65 65 65 64 64 63 62 60 60 59 60 58 59 58
39 37 36 39 47 46 45 47 51 53 53 54 58 59 54 56 60 58 57 56 56 58 59 60 62 62 63 63 62 62 62 62 63 64 65 65 65 64 63 63 61 61 62 63 61 60 59 57 54
40 36 33 40 46 46 45 45 52 53 53 56 59 58 57 54 54 56 54 53 57 56 56 57 58 59 59 60 60 62 62 62 63 63 64 65 65 65 64 62 62 61 61 60 60 59 57 57 53
35 36 35 37 42 43 43 41 46 53 53 55 58 59 55 53 53 53 52 53 53 54 55 56 56 57 57 58 58 57 58 58 59 60 61 62 64 64 64 64 63 61 60 60 60 59 59 59 53
33 42 42 40 37 30 40 29 42 49 51 51 55 57 53 52 51 52 52 51 52 52 53 55 55 56 56 56 56 56 55 55 54 55 56 57 59 60 61 62 62 62 61 60 60 60 60 57 59
39 44 41 38 33 31 31 31 38 42 43 53 57 55 54 51 53 52 52 52 51 51 51 52 53 53 53 53 53 52 52 51 52 53 54 54 54 55 57 57 58 60 61 62 60 58 57 58 59
44 40 38 34 32 22 31 31 35 39 43 47 50 54 55 51 51 52 51 51 49 49 49 50 51 50 51 51 51 51 50 50 51 51 51 52 53 53 53 54 54 59 61 61 62 60 58 58 59
41 37 24 25 22 22 29 29 39 43 46 47 50 52 51 48 47 47 48 48 48 48 48 49 49 48 49 49 49 49 49 49 49 50 50 50 51 51 51 52 52 53 55 59 60 60 59 58 58
39 38 25 20 20 23 30 26 35 44 47 49 52 51 49 47 45 49 48 47 47 48 47 47 47 46 47 47 47 47 48 48 49 49 49 49 49 49 50 50 50 51 52 54 58 58 58 58 57
35 33 35 25 21 18 26 30 39 42 44 46 47 46 44 45 45 45 46 46 45 45 45 45 45 44 45 45 45 45 46 47 48 47 47 47 46 51 47 47 47 48 49 50 56 56 55 56 55
37 40 29 24 16 18 23 24 31 39 42 44 45 44 43 44 45 45 44 44 43 44 43 43 44 43 43 43 43 44 44 45 45 45 44 44 44 44 44 44 44 44 45 46 48 51 52 52 50
35 31 33 32 26 20 19 27 36 39 42 41 42 44 44 45 45 44 43 42 42 41 41 41 42 42 42 42 42 42 42 43 43 42 41 41 42 42 42 42 42 41 41 42 43 43 45 47 46
42 35 34 25 23 22 21 30 41 41 41 41 42 43 45 47 45 44 42 41 40 40 40 40 40 41 41 41 41 40 41 41 40 40 40 40 39 40 40 40 39 39 39 38 39 39 40 40 39

GFSSGP_sfc_temp_057.txt.gz
Temp
73 72 70 67 59 56 50 54 59 61 64 69 69 70 71 71 70 67 71 75 78 79 81 82 79 79 79 79 78 78 78 78 78 78 78 78 78 79 79 78 78 78 78 78 78 77 78 77 77
73 73 67 60 52 47 50 56 57 62 67 68 69 69 69 68 69 65 70 74 79 79 81 82 78 79 79 78 78 78 78 78 78 78 78 78 78 79 79 78 78 78 77 77 76 76 76 76 76
73 71 63 57 49 47 51 57 59 63 65 67 68 69 68 67 69 70 75 76 79 79 81 81 78 78 78 78 78 78 78 78 77 77 78 78 78 78 79 78 77 76 76 76 76 76 76 76 76
69 66 62 53 47 53 56 58 61 63 68 68 68 66 69 71 71 74 76 77 77 78 81 79 77 78 78 77 78 78 78 77 77 77 77 77 78 79 78 76 75 75 75 75 75 75 75 75 75
67 62 52 48 50 55 58 61 61 60 63 67 67 65 65 70 72 74 76 77 77 76 80 81 77 77 77 77 77 77 77 77 77 77 77 78 79 78 77 75 75 75 75 75 75 75 75 75 75
57 59 48 45 49 54 58 61 62 59 61 66 65 64 65 70 70 71 74 77 79 76 79 80 76 76 77 77 77 77 77 77 77 77 77 78 77 77 77 75 75 75 75 75 75 75 74 74 74
55 52 47 48 50 53 58 62 59 59 61 63 66 63 65 67 70 72 73 75 76 77 78 79 80 78 75 75 75 76 76 76 76 76 76 76 76 75 75 75 75 75 75 74 74 74 74 74 74
55 54 48 49 49 51 59 61 61 61 61 66 66 58 62 68 70 72 73 74 75 76 77 78 79 79 79 79 74 74 74 74 75 74 73 72 72 73 74 74 74 74 74 74 73 74 74 73 73
59 48 46 48 51 53 59 59 61 63 64 64 65 63 65 67 68 68 69 69 71 73 76 76 77 78 78 79 77 74 73 72 72 73 70 71 76 76 74 70 71 73 73 73 73 73 72 70 69
54 46 50 57 59 55 57 59 58 60 61 60 62 67 68 67 65 66 66 67 69 71 73 75 76 76 77 77 78 75 74 77 76 76 75 75 74 74 74 70 69 72 72 72 73 73 71 69 74
51 48 56 59 60 60 57 58 61 59 57 57 58 62 66 68 65 64 67 69 70 73 73 73 74 75 76 77 76 75 73 75 75 75 74 73 73 73 73 73 74 74 69 75 74 74 74 72 73
50 53 57 59 62 58 57 60 58 58 61 62 63 63 64 64 66 64 65 67 69 70 73 73 74 73 74 75 75 75 75 74 74 74 73 72 72 71 71 72 72 72 73 73 73 74 73 72 71
50 53 56 59 59 59 61 57 58 58 62 64 64 64 63 64 65 67 67 67 69 70 71 72 73 73 73 73 73 73 74 74 74 73 73 73 71 71 71 71 71 71 72 72 72 72 72 72 71
53 54 54 56 58 58 57 56 57 62 63 63 62 62 63 63 65 65 66 67 66 70 71 73 72 73 73 73 72 73 73 74 73 73 73 72 72 71 71 71 71 71 71 72 72 72 71 71 71
53 50 50 52 55 54 58 52 53 60 61 58 59 61 63 64 67 65 68 67 67 69 72 72 72 73 72 73 73 73 73 72 73 73 72 72 72 72 72 71 71 72 72 71 71 71 70 70 70
47 48 43 50 52 54 57 47 57 58 59 59 57 60 62 65 66 68 68 68 68 69 70 72 73 72 72 72 72 73 72 73 73 73 73 72 72 72 71 71 71 72 71 71 70 71 70 69 70
43 38 40 42 52 52 51 48 57 58 58 60 63 60 62 64 66 68 69 68 69 68 69 70 72 73 72 72 72 72 71 71 73 73 73 72 72 72 72 71 72 72 71 70 70 70 69 70 70
36 36 39 40 48 50 48 49 54 56 57 59 61 62 63 63 65 68 68 68 68 69 69 70 71 72 72 71 70 70 70 70 71 71 71 73 73 72 71 72 71 72 70 70 69 69 68 68 69
42 40 40 44 48 48 47 49 52 54 54 55 58 59 60 62 66 66 66 65 66 65 66 68 69 69 70 68 68 68 68 69 68 70 71 71 72 72 70 71 70 70 70 71 70 69 66 66 64
44 38 39 45 47 48 45 46 52 54 53 57 58 62 64 62 61 62 63 63 63 64 63 64 66 67 68 68 68 69 69 69 71 70 71 71 71 71 70 69 69 69 69 68 68 66 65 64 62
39 40 37 40 44 48 44 43 47 53 54 57 58 61 63 63 60 61 62 61 60 60 61 61 62 63 64 64 64 64 64 65 66 67 67 67 67 68 68 69 68 67 66 66 67 66 64 63 61
38 44 43 41 40 35 45 34 42 50 50 53 57 59 60 61 58 59 59 58 58 59 59 60 60 61 61 62 63 63 63 62 61 62 62 63 63 65 66 66 65 65 64 63 64 65 64 63 61
41 45 42 40 37 37 38 36 40 46 47 52 55 58 59 60 59 59 59 59 57 56 56 57 58 58 58 59 60 60 59 59 59 60 60 61 61 61 61 62 62 62 62 63 63 63 62 62 62
44 42 40 37 36 29 35 36 36 41 46 49 54 60 59 61 61 60 59 57 56 54 54 55 56 55 56 57 57 58 58 57 58 58 59 59 60 59 59 59 59 60 62 63 63 63 62 61 60
44 39 29 29 28 27 33 32 41 46 50 52 53 55 57 57 54 56 54 54 53 52 53 54 55 53 54 55 55 56 56 56 56 56 56 57 58 57 56 56 56 57 58 59 61 61 61 61 59
41 40 28 22 23 28 33 29 40 47 50 50 51 53 52 54 52 52 54 54 53 52 52 53 53 51 52 53 53 54 54 55 55 55 55 55 55 55 54 54 55 55 56 57 60 60 60 59 58
39 35 38 27 26 25 31 35 42 45 48 50 50 50 51 51 51 51 51 52 51 51 51 52 52 51 51 52 52 52 53 53 53 52 53 53 52 54 52 52 52 52 53 54 58 58 57 55 54
40 42 33 29 20 22 28 29 36 42 46 48 48 48 50 49 48 48 49 49 50 50 50 50 51 50 50 50 51 50 50 50 50 51 50 49 49 49 49 49 49 49 49 51 53 54 54 53 52
36 33 34 35 30 25 24 31 40 42 46 45 46 46 47 47 47 48 48 48 48 47 48 48 48 48 48 49 49 49 49 49 48 48 47 47 47 47 47 46 46 46 46 48 49 49 49 48 48
43 37 36 29 25 26 26 30 45 44 45 44 46 46 48 48 47 47 47 45 45 45 45 46 46 47 47 47 47 47 47 47 46 46 45 46 45 45 45 45 44 44 44 45 46 45 45 46 45

GFSSGP_sfc_temp_060.txt.gz
Temp
79 82 82 76 67 68 64 65 71 69 70 78 79 79 80 83 80 73 81 86 90 89 90 85 79 79 79 79 79 78 78 78 78 78 79 79 79 79 78 78 78 78 78 78 78 78 78 77 77
82 80 79 71 62 58 63 70 67 72 74 77 77 78 79 78 80 75 79 82 89 89 90 89 78 79 79 78 78 78 78 78 78 78 78 79 79 79 78 78 78 77 77 77 77 77 76 76 76
80 80 72 66 63 60 63 68 70 73 76 74 76 79 78 76 79 80 84 84 89 89 90 88 79 79 78 78 78 78 78 78 77 77 78 78 78 79 78 77 77 76 76 76 76 76 76 76 76
78 76 73 62 60 67 67 69 69 72 76 78 77 75 78 79 80 83 86 87 88 89 91 80 78 78 78 78 78 78 78 78 77 77 77 78 78 79 77 76 75 75 75 76 76 75 75 75 75
76 74 61 59 62 67 69 70 70 71 73 75 76 73 74 77 81 83 84 82 88 89 90 86 78 78 77 77 77 77 77 77 77 77 77 78 78 78 76 75 75 75 75 75 75 75 75 75 75
67 72 58 55 60 63 66 70 70 71 72 73 74 75 74 77 74 77 79 86 88 88 88 86 77 77 77 77 77 77 77 77 77 77 78 78 78 77 76 75 75 75 75 75 75 75 75 74 74
64 63 59 61 61 59 63 68 69 71 72 70 73 72 73 74 72 74 79 88 87 88 87 86 85 80 75 75 76 76 76 76 76 76 76 76 76 76 76 75 75 75 75 75 74 74 74 74 74
69 64 57 61 58 58 65 65 66 71 67 73 74 62 67 74 71 74 77 81 81 85 85 86 85 86 85 83 74 74 75 75 75 74 73 72 72 74 75 74 74 74 74 74 74 74 74 73 73
71 53 51 56 60 59 65 64 65 71 71 71 72 70 72 70 70 72 74 75 79 83 83 86 85 86 87 84 79 74 73 73 73 73 70 72 84 82 79 72 72 73 73 73 73 73 72 71 70
58 50 56 65 66 62 62 67 65 67 68 68 72 76 74 68 67 70 70 73 76 81 83 84 84 85 85 86 84 79 80 84 84 83 82 85 83 83 82 74 70 72 72 72 73 73 71 70 83
60 52 64 66 65 66 63 63 66 67 64 68 67 71 74 69 67 68 74 77 78 82 83 83 83 85 85 85 83 78 79 84 84 83 83 83 82 81 81 82 80 81 71 81 78 78 82 80 82
53 64 64 66 65 64 62 64 62 64 67 69 70 72 75 72 69 68 70 76 79 80 82 83 84 83 84 86 84 82 84 84 84 83 83 82 81 79 81 82 81 81 82 81 81 83 82 80 79
52 61 64 68 65 66 67 62 63 64 71 71 71 71 73 74 73 74 71 74 77 78 80 82 83 83 83 83 84 85 85 83 84 83 82 83 81 79 81 82 82 82 82 82 81 81 81 81 81
60 58 60 63 61 65 62 64 62 69 72 70 69 70 72 73 73 74 74 73 74 76 80 82 82 83 83 82 82 83 85 85 84 83 82 81 82 80 80 81 80 81 81 82 82 81 81 80 81
62 55 57 55 59 57 64 58 58 71 73 68 70 72 71 73 74 75 76 75 76 76 76 79 81 82 82 82 82 83 83 83 83 83 82 81 81 81 80 80 80 81 81 81 81 80 80 79 80
55 56 47 56 58 59 57 52 64 70 67 68 71 73 72 72 74 76 78 77 78 77 75 77 78 80 81 82 82 82 83 83 83 83 83 81 81 81 80 80 80 81 81 80 79 79 78 78 79
52 48 50 51 60 59 58 56 63 66 64 67 71 74 75 75 75 77 78 79 79 78 77 76 76 78 79 81 81 82 82 82 83 83 83 82 81 81 80 80 80 81 80 79 79 78 78 77 78
46 49 52 51 54 57 55 55 60 64 65 68 71 74 75 74 74 77 79 80 80 79 78 76 75 76 77 79 79 80 80 81 83 82 82 82 82 81 80 80 80 81 79 78 79 77 78 77 77
54 51 50 55 56 53 53 54 58 63 61 65 69 71 73 74 76 73 76 78 78 79 77 77 76 76 76 75 75 75 76 78 79 81 79 79 81 80 79 79 79 79 78 78 79 78 76 75 77
51 49 49 52 56 55 55 53 59 63 62 63 67 71 73 74 74 72 72 73 75 77 76 75 76 78 78 79 79 79 78 79 80 79 78 79 79 79 78 77 77 77 76 76 76 75 72 72 74
50 49 47 49 51 54 53 51 55 61 64 65 67 71 74 73 74 73 70 70 70 70 71 72 73 73 75 77 76 74 74 74 74 74 75 75 74 74 73 72 72 72 71 70 71 71 69 65 69
43 54 51 48 49 44 55 45 55 60 59 61 64 66 69 70 68 69 69 69 68 68 68 69 69 70 71 72 73 73 73 73 74 73 71 71 71 71 72 72 70 68 67 65 66 66 66 65 62
46 52 52 50 49 47 46 44 54 56 56 60 63 66 68 70 69 69 70 70 68 65 64 66 68 68 68 69 72 72 71 72 71 70 69 70 70 68 68 69 68 68 69 68 66 66 64 64 63
52 50 50 50 48 36 47 46 50 54 56 61 64 67 68 69 71 72 74 71 68 65 63 64 66 66 66 68 69 69 69 69 68 68 68 69 69 68 66 65 66 66 66 67 67 66 64 64 64
52 48 35 33 32 36 42 42 52 57 60 62 63 65 68 71 72 71 72 68 67 62 62 63 65 64 66 67 67 66 66 66 66 66 67 66 67 66 64 63 64 64 64 64 65 64 63 64 62
46 49 39 29 32 39 41 39 51 59 61 64 63 64 66 66 68 65 66 68 66 62 62 63 64 63 64 65 64 65 64 66 66 64 65 65 65 64 62 61 62 62 62 63 64 64 63 62 61
45 41 47 38 37 38 45 46 55 60 58 62 62 63 64 65 65 65 61 64 66 63 62 63 63 63 63 63 63 63 64 63 63 61 62 62 61 61 60 59 59 59 59 60 62 63 62 59 57
49 51 39 39 29 30 39 41 48 53 56 60 61 61 62 62 61 62 62 60 61 63 63 64 64 62 61 61 63 62 61 60 60 60 59 59 59 58 58 57 57 57 57 58 59 57 57 57 56
44 42 44 45 42 35 36 44 55 55 57 57 59 60 60 60 60 58 58 59 59 58 59 61 61 59 59 60 60 59 59 58 58 59 58 58 57 56 55 54 55 54 55 56 57 53 53 53 52
49 47 48 39 34 39 39 42 57 57 56 55 59 61 60 58 57 57 57 58 57 56 57 56 58 58 58 58 58 57 57 56 57 57 56 56 55 54 53 53 53 53 53 54 55 53 54 54 53

GFSSGP_sfc_temp_063.txt.gz
Temp
79 85 86 78 64 69 64 69 78 72 73 83 83 81 79 83 80 70 89 93 92 90 88 84 79 79 79 79 79 78 78 78 78 79 79 79 79 79 78 78 78 78 79 78 78 78 78 77 77
86 84 81 75 60 60 63 76 70 76 81 81 81 80 80 78 84 81 85 92 93 92 89 87 78 79 79 78 78 78 78 78 78 78 79 79 79 78 78 78 78 77 77 77 77 77 76 76 76
82 85 73 67 62 60 64 75 75 78 80 76 79 83 81 77 83 85 90 92 94 92 90 86 78 79 78 78 78 78 78 78 77 78 78 78 79 78 78 77 76 76 76 76 76 76 76 76 76
79 78 75 62 61 68 73 76 79 76 79 81 80 78 79 81 83 88 90 93 93 92 92 79 78 78 78 78 78 78 78 77 77 77 78 78 78 77 77 76 75 75 75 76 76 75 75 75 75
75 75 62 60 63 71 76 76 76 76 79 79 80 74 75 76 84 87 88 92 92 92 90 85 78 78 77 77 77 77 77 77 77 77 78 78 78 77 76 75 75 75 75 75 75 75 75 75 75
67 69 58 57 62 72 75 74 75 77 79 78 76 77 72 75 78 83 86 91 93 92 89 85 77 77 77 77 77 77 77 77 77 77 77 78 77 77 76 75 75 75 75 75 75 75 75 75 75
63 61 57 63 64 66 68 73 72 76 77 74 79 77 72 71 73 76 85 91 92 92 89 86 84 79 75 75 76 76 76 77 77 76 77 77 76 76 76 75 75 75 75 75 74 74 74 74 74
68 65 58 62 61 62 70 69 70 74 74 78 79 71 68 74 72 74 84 89 90 90 83 85 85 85 83 81 74 74 75 75 75 74 73 72 74 75 75 74 74 75 74 74 74 74 74 73 73
72 49 53 59 62 64 70 66 69 74 74 75 76 74 75 74 71 72 79 80 81 83 82 83 86 84 84 83 77 73 73 73 73 73 71 72 84 81 78 71 72 73 73 73 74 73 72 71 71
56 48 53 67 71 65 67 70 68 70 70 72 74 76 75 72 68 72 74 73 77 77 83 81 82 82 83 83 82 80 81 82 83 83 80 85 85 84 81 74 71 72 73 72 73 73 72 70 82
60 54 62 67 67 69 66 67 71 69 66 72 70 74 74 71 69 70 72 76 80 80 80 81 81 81 81 80 82 81 80 79 83 85 85 86 84 81 81 81 78 78 71 78 75 75 78 82 81
51 64 66 63 66 67 65 69 67 69 69 73 74 75 77 73 71 70 72 75 80 83 83 85 83 81 81 81 80 82 79 83 85 85 85 84 82 80 82 83 82 82 81 82 82 83 83 81 81
55 59 66 66 66 68 67 64 66 67 72 73 73 74 75 75 76 74 73 74 76 77 79 80 84 83 84 81 80 81 82 86 86 85 84 85 82 80 82 83 83 83 83 83 82 82 82 82 82
61 54 59 64 62 65 62 62 65 70 74 72 72 73 75 76 75 77 75 73 76 78 80 82 82 83 85 81 80 84 87 87 87 86 85 84 83 82 81 82 81 82 82 83 82 82 82 81 82
61 50 52 61 59 65 66 56 56 69 75 71 71 74 74 76 77 77 78 77 78 80 81 80 81 82 81 80 79 81 86 87 86 86 85 84 83 83 82 82 82 82 83 82 82 82 81 80 81
56 54 40 58 60 62 62 53 63 69 69 69 72 74 76 76 77 79 79 79 80 81 80 82 82 82 83 83 82 84 85 85 85 86 86 84 83 83 82 81 81 82 82 81 80 80 79 79 79
52 47 41 47 61 61 59 55 65 65 68 66 71 74 76 78 77 79 80 81 81 81 80 79 80 80 81 82 84 83 83 83 85 85 85 84 83 83 81 81 81 82 81 80 80 79 79 77 78
47 50 53 47 55 58 56 55 63 68 68 68 70 73 75 77 79 80 81 81 82 82 82 80 79 79 79 80 80 81 82 83 84 84 84 84 84 83 82 81 81 82 79 78 78 77 77 75 74
57 53 54 56 60 54 51 52 58 67 67 67 70 72 74 77 81 79 78 80 80 81 81 80 78 78 78 76 76 76 76 79 81 83 83 82 83 82 81 80 79 78 77 77 78 76 73 72 75
57 53 53 58 57 56 55 53 61 66 66 68 69 70 74 77 79 76 75 77 79 80 79 79 79 78 78 77 76 77 77 79 81 81 81 81 81 80 79 78 77 76 74 76 75 74 71 71 72
55 52 52 51 55 57 56 54 58 64 67 69 70 71 73 75 76 78 75 74 74 76 78 79 79 79 79 78 78 76 76 75 75 77 77 78 78 77 75 73 71 70 69 69 69 68 66 64 65
46 57 56 53 49 43 56 44 56 61 62 64 67 68 69 72 75 74 75 74 72 73 74 75 76 76 77 77 76 72 71 72 76 77 76 73 73 73 73 73 71 69 67 65 65 66 65 64 62
51 58 54 52 50 52 49 46 56 63 59 63 65 68 69 71 74 73 72 73 75 72 69 70 72 73 73 72 73 73 72 75 73 72 71 72 71 70 70 70 69 68 68 69 68 67 66 65 63
57 53 52 52 50 37 48 48 51 57 59 64 68 70 71 72 73 74 74 75 74 69 67 67 69 69 70 71 72 72 71 70 68 68 68 70 70 69 68 67 67 67 67 67 67 67 66 64 63
54 48 35 34 34 36 49 47 54 60 63 65 66 67 71 74 74 74 74 74 72 67 65 64 66 65 68 69 70 72 71 71 69 68 68 68 68 67 67 64 65 65 65 65 65 64 64 63 61
51 51 40 31 34 40 46 40 53 63 67 66 67 68 69 71 72 71 72 70 71 67 65 65 66 66 68 69 69 69 68 68 68 67 67 67 67 67 65 63 63 63 63 63 63 63 63 63 62
48 42 51 42 45 41 45 51 58 62 62 64 65 66 67 69 69 70 70 66 71 69 66 65 66 65 65 66 67 67 67 66 66 65 65 65 64 63 62 61 61 61 61 61 61 61 62 60 59
51 55 41 42 31 32 41 44 49 55 58 62 63 63 65 66 67 67 68 67 68 69 67 68 68 66 65 65 66 65 64 64 63 64 63 62 62 60 60 59 59 59 59 59 60 58 58 57 56
46 44 47 48 43 36 38 44 59 58 60 60 62 63 64 65 65 64 65 66 65 66 65 65 66 64 63 64 64 63 62 61 62 62 61 60 60 59 58 57 57 57 57 58 58 55 55 54 53
52 49 50 40 36 43 41 44 61 61 61 60 61 64 66 66 64 63 63 63 62 62 62 61 62 62 62 63 62 62 61 60 60 60 59 59 58 57 56 55 55 55 55 55 56 55 55 55 54

GFSSGP_sfc_temp_066.txt.gz
Temp
75 80 78 70 56 55 54 61 72 67 69 76 79 75 68 73 68 59 81 84 83 79 80 79 79 79 79 79 78 78 78 78 78 79 79 79 78 78 79 78 79 80 79 79 79 78 77 77 76
78 81 72 64 52 48 54 68 67 70 72 76 77 75 72 67 77 76 76 86 85 82 80 79 79 79 79 78 78 78 78 78 78 78 79 79 79 78 78 78 78 78 77 77 77 76 76 76 76
75 79 63 57 53 49 55 68 69 74 76 72 74 79 73 68 78 76 82 87 86 82 82 80 78 78 78 78 78 78 78 77 78 78 78 78 78 78 77 77 76 76 76 77 76 76 75 76 76
73 69 66 55 53 60 63 71 72 73 74 76 75 68 72 71 75 78 82 87 85 83 80 77 78 78 77 77 77 78 77 77 77 77 78 78 77 77 76 76 75 75 75 76 75 75 75 75 75
68 66 54 52 55 64 70 72 72 71 72 74 75 67 67 73 77 81 82 87 84 80 78 77 77 77 77 77 77 77 77 77 77 77 78 78 77 76 76 75 75 75 75 75 75 75 75 75 75
57 63 51 48 55 65 70 71 68 69 73 73 72 71 64 73 73 77 82 84 86 79 80 78 76 76 76 76 76 76 77 77 77 77 78 77 77 76 76 75 75 75 75 75 75 75 75 75 75
54 54 50 54 57 62 66 70 63 68 70 70 74 68 64 66 70 74 80 85 86 82 79 77 77 76 75 75 75 75 76 76 76 77 77 76 76 76 75 75 75 75 75 74 74 74 74 74 74
59 56 52 53 57 60 66 67 66 67 65 74 74 61 60 65 71 73 76 81 84 81 79 79 76 76 75 74 74 74 74 74 74 74 73 73 73 73 74 73 74 74 74 74 74 74 74 73 73
64 49 48 53 57 62 66 62 65 71 68 70 71 66 68 70 70 70 73 78 77 79 78 79 78 78 77 75 74 72 73 73 72 71 71 70 72 72 72 71 72 73 73 73 73 73 72 71 71
53 47 50 61 64 61 64 64 64 65 66 65 66 70 71 68 68 68 70 70 75 74 75 78 78 79 78 79 75 72 73 71 71 71 69 71 72 70 73 68 70 72 72 72 73 73 72 70 67
55 49 56 60 62 66 64 64 69 65 62 67 64 66 68 66 68 69 70 71 73 74 76 76 78 78 76 76 75 72 72 73 76 73 72 72 73 70 69 65 66 66 68 67 69 68 67 66 69
48 58 62 60 62 65 63 67 64 65 63 69 70 71 69 66 67 68 69 72 73 75 75 77 77 77 76 75 77 73 71 75 74 75 75 72 70 69 69 68 68 67 67 67 67 68 69 71 71
49 58 62 63 60 65 67 62 62 62 66 69 71 72 70 69 68 69 70 70 71 73 76 76 76 76 76 76 75 77 73 74 78 77 76 74 71 70 70 70 70 69 69 69 69 70 70 70 71
56 57 60 58 57 59 61 60 61 64 69 68 69 67 69 69 69 69 69 69 72 73 72 75 77 76 78 76 76 75 75 80 75 75 75 76 73 71 71 70 70 69 70 70 70 69 70 70 70
58 50 51 53 55 59 63 56 55 64 69 67 67 67 69 70 71 70 71 70 72 74 73 71 75 77 77 77 76 76 77 80 76 75 76 75 74 72 71 70 69 70 71 72 70 70 70 69 71
52 51 42 52 53 55 58 46 59 66 63 62 65 66 68 70 72 72 73 73 74 74 73 73 77 75 74 76 75 76 77 75 74 75 75 76 75 74 71 70 70 71 71 70 69 68 68 67 67
48 39 42 43 51 51 51 51 61 64 61 61 63 66 68 69 71 71 73 73 74 75 74 73 75 74 76 77 76 75 74 73 74 75 74 75 76 75 72 71 71 72 70 69 70 69 68 66 67
40 40 43 42 47 47 48 52 57 60 61 60 63 67 67 69 70 73 74 73 74 75 74 73 72 73 73 73 73 72 74 73 74 74 74 76 75 75 72 71 72 72 73 73 72 71 71 70 69
49 47 40 44 51 46 48 51 55 59 60 59 63 64 67 69 74 74 71 73 73 73 73 73 71 71 71 69 68 68 68 70 71 73 76 76 75 75 72 71 74 74 72 72 72 71 69 68 69
51 48 46 48 53 50 50 48 54 57 58 61 61 62 66 69 73 68 69 70 71 71 70 72 72 71 71 70 69 69 69 70 72 73 75 75 74 74 72 71 71 72 70 71 70 69 67 67 67
50 48 46 43 49 48 50 45 50 57 59 62 63 64 65 64 70 66 65 67 67 69 70 69 72 72 71 71 70 69 69 68 68 70 70 72 74 72 71 69 68 67 67 66 66 65 64 63 64
45 56 52 49 44 37 50 35 48 55 57 61 60 60 60 62 65 67 66 64 64 65 68 68 69 70 70 71 69 66 64 63 66 66 67 67 68 67 67 67 67 67 65 64 63 63 63 63 61
47 55 50 48 44 43 42 35 45 55 51 54 57 60 61 62 63 63 65 66 65 64 63 65 67 67 67 66 67 65 64 65 64 63 63 64 64 65 64 64 62 61 61 61 61 60 60 59 58
55 50 48 47 42 27 39 38 41 46 52 57 60 60 63 62 62 64 66 66 65 61 60 60 63 64 64 64 64 64 64 62 61 60 60 60 61 61 62 62 61 60 60 60 60 60 59 58 57
50 43 28 26 24 25 42 38 43 52 56 57 56 57 58 61 62 63 64 63 63 58 59 59 60 60 63 64 63 64 64 63 62 60 59 59 59 58 58 59 58 58 58 59 59 58 58 58 56
44 43 30 25 23 30 42 32 43 54 58 60 60 58 57 57 60 59 60 61 60 60 58 59 60 59 61 62 63 63 62 60 60 61 60 58 57 56 56 56 56 56 57 56 57 56 56 57 56
43 35 44 35 35 30 36 41 48 55 55 56 57 57 55 56 57 58 56 57 58 58 59 59 59 60 61 62 61 61 61 60 59 59 57 55 55 57 54 54 54 54 54 54 55 54 54 55 54
46 49 35 32 25 27 34 36 38 46 52 55 53 52 54 56 56 57 57 56 57 57 58 60 60 58 58 58 60 59 60 59 58 57 55 55 53 54 52 52 52 52 52 53 52 52 53 54 53
41 38 43 41 33 27 28 33 48 50 52 51 52 54 53 54 54 54 55 56 56 56 56 57 59 58 57 58 56 55 55 56 56 56 54 53 53 52 51 51 50 50 50 50 50 53 53 52 51
46 44 44 32 31 33 30 34 52 52 53 53 54 53 54 56 55 55 54 54 53 53 54 54 54 54 55 56 56 55 54 53 53 53 53 53 52 51 50 50 49 49 49 48 48 48 49 52 51

GFSSGP_sfc_temp_069.txt.gz
Temp
73 72 69 65 53 47 44 55 64 64 64 74 71 72 65 66 64 57 74 76 75 75 78 78 79 79 79 78 78 78 78 78 78 79 79 79 78 79 79 80 79 79 79 79 78 78 77 77 77
70 72 64 59 47 39 45 58 61 68 69 76 71 70 68 65 75 71 70 76 77 77 78 78 78 78 78 78 78 77 78 78 78 78 78 78 78 78 78 79 79 79 79 78 77 76 76 76 76
71 71 58 51 47 42 47 61 62 72 73 73 69 71 67 66 74 72 77 78 78 76 77 78 78 78 78 78 77 77 78 78 78 78 78 78 78 77 77 77 77 77 77 77 76 75 76 76 76
65 59 55 46 46 52 56 62 68 68 72 73 73 66 68 69 71 76 80 79 76 76 76 76 77 77 77 77 77 77 77 78 77 77 77 77 77 77 76 76 75 75 76 75 75 75 75 75 75
61 54 45 43 47 55 62 68 69 65 68 72 69 64 66 69 74 77 79 80 76 74 75 76 77 77 77 77 77 77 77 77 77 77 77 77 77 76 76 75 75 75 75 75 75 75 75 75 75
54 53 42 41 47 58 62 71 68 64 68 71 67 65 63 70 75 75 75 77 77 74 76 77 76 76 76 76 76 76 77 77 77 77 77 77 76 76 75 75 75 75 75 75 75 75 75 74 74
50 47 43 47 47 55 62 66 59 61 63 67 71 59 63 64 72 74 73 75 76 76 75 74 75 75 74 75 75 75 76 76 76 76 76 76 75 75 75 75 75 75 75 74 74 74 74 74 73
54 51 44 45 49 50 65 63 63 63 61 71 71 59 58 65 71 73 73 72 74 75 73 71 72 74 73 72 73 73 73 73 74 75 73 72 72 73 74 73 73 74 74 74 74 74 73 73 73
59 45 44 47 49 53 63 61 61 66 64 65 66 65 67 70 69 73 69 70 71 73 74 72 72 72 72 71 72 72 72 72 72 71 70 70 69 70 70 70 71 72 73 73 73 73 72 71 71
50 45 48 56 56 55 59 61 62 60 61 60 61 66 68 67 68 71 68 67 69 72 73 73 73 72 72 75 69 68 70 68 69 69 68 68 68 68 71 68 69 71 72 72 73 73 72 70 65
52 47 54 56 59 62 60 59 65 60 56 62 60 62 66 65 65 67 68 70 70 73 75 74 75 75 72 72 69 67 67 67 67 68 67 67 68 67 65 65 66 65 67 66 68 67 66 63 63
46 54 58 57 60 60 59 62 61 60 59 65 65 66 66 65 65 66 67 67 70 72 72 75 76 75 71 72 72 69 68 69 70 69 69 67 65 64 63 63 63 63 65 64 64 63 64 65 66
48 52 58 62 60 57 60 59 58 58 63 67 69 67 64 66 67 67 68 68 68 69 71 74 74 75 73 73 70 71 69 70 70 73 71 69 67 66 65 64 64 63 64 63 63 64 65 65 67
52 53 56 57 58 56 54 56 58 60 64 64 67 65 65 66 68 68 66 67 68 70 69 71 75 74 74 74 73 75 70 71 70 74 73 71 69 68 67 66 66 65 65 66 66 66 66 66 66
53 47 51 53 55 54 53 51 52 59 64 62 63 65 66 67 67 67 66 66 69 70 70 71 74 74 74 73 74 74 76 75 71 72 74 72 70 69 69 67 66 67 67 68 66 66 66 66 67
46 48 42 48 52 53 52 44 56 59 60 59 60 62 65 67 68 68 69 70 68 69 72 73 76 74 73 76 75 72 75 75 76 74 72 73 73 71 69 68 67 67 67 67 66 66 65 64 64
42 38 41 42 51 50 49 44 57 60 59 57 56 59 63 65 67 68 69 70 71 69 71 71 73 72 73 75 72 74 74 71 73 74 72 72 73 73 70 68 68 69 67 66 67 66 65 64 65
36 38 43 41 45 49 47 45 53 61 56 55 56 58 61 64 66 68 71 70 71 69 68 71 72 73 72 70 71 72 71 71 70 71 71 72 72 73 70 69 68 69 70 71 71 70 69 69 69
46 43 41 46 48 46 44 45 51 55 54 52 53 57 59 63 68 69 70 70 70 70 68 69 68 70 70 67 66 68 66 67 68 70 73 73 73 73 70 69 69 72 72 72 71 70 68 67 67
47 40 40 45 49 46 44 43 49 54 53 53 55 56 59 62 66 66 65 68 68 70 68 67 70 67 69 68 67 67 67 67 69 70 73 74 73 73 71 69 69 70 70 70 70 68 67 67 67
44 42 41 42 47 48 45 40 44 53 55 57 57 59 60 62 64 63 64 65 66 65 66 69 69 69 68 69 67 66 66 66 66 67 68 71 71 70 70 69 69 68 67 66 66 65 65 63 62
37 50 49 45 41 34 45 33 44 52 52 53 55 55 58 60 61 63 66 62 63 64 64 66 67 68 70 68 66 64 64 63 64 64 66 65 65 67 66 65 65 65 65 63 62 62 61 60 60
46 52 48 45 40 40 41 33 42 50 46 50 53 55 57 60 60 61 62 63 64 64 63 64 65 66 68 68 67 65 62 63 61 61 61 61 62 63 63 62 61 61 60 60 59 59 58 58 57
51 48 45 43 41 26 40 38 37 40 49 49 55 55 57 58 59 60 61 63 63 61 60 59 61 62 62 62 63 63 62 60 59 59 59 59 59 60 60 61 59 59 58 58 57 57 57 57 56
48 40 28 26 25 27 40 38 38 46 50 52 52 52 53 54 55 57 59 59 59 58 58 58 59 59 60 60 60 61 61 59 59 58 58 57 57 56 57 57 56 55 56 56 56 55 55 55 55
40 41 29 22 20 28 39 33 41 48 52 55 56 55 54 53 54 55 55 56 56 57 57 57 57 57 59 60 60 60 62 60 59 59 58 57 58 55 56 56 56 54 55 54 54 53 53 54 54
42 31 41 32 31 24 31 37 46 48 50 51 52 52 50 51 52 53 54 54 55 54 55 56 56 57 59 61 60 60 59 59 57 58 58 56 55 56 54 54 54 52 52 52 52 51 52 52 52
44 45 31 28 20 24 29 31 35 42 45 49 49 50 51 52 53 53 53 52 53 53 55 55 56 57 58 58 58 58 58 59 58 55 55 55 54 54 52 52 51 50 50 50 50 50 51 50 50
40 38 40 37 31 26 25 30 43 44 47 46 49 52 51 50 52 52 52 52 52 52 51 52 54 55 55 58 56 55 55 55 55 53 54 52 53 52 52 50 49 49 48 48 47 48 49 49 48
42 42 42 31 30 30 28 32 47 48 48 50 51 52 50 50 52 52 51 51 50 50 50 50 51 52 52 53 53 52 52 53 52 52 52 53 50 51 50 49 48 48 47 46 46 47 47 48 49

GFSSGP_sfc_temp_072.txt.gz
Temp
75 71 67 61 49 47 43 51 60 62 61 69 72 64 63 66 64 55 69 73 74 74 77 78 78 79 78 78 78 77 78 78 78 78 78 79 79 79 79 79 79 79 79 78 78 78 77 77 77
70 72 63 57 43 38 45 57 58 65 68 73 69 64 63 65 71 67 69 74 76 76 77 77 78 78 78 78 77 77 77 78 78 78 78 78 79 79 79 79 79 78 77 77 77 77 76 76 76
70 70 55 51 42 40 47 58 62 67 71 68 66 65 66 66 70 70 72 75 76 74 76 77 77 77 78 78 77 77 77 78 77 77 77 77 78 79 79 79 78 77 76 76 76 76 76 76 76
64 57 55 46 42 49 55 61 66 67 72 74 74 58 67 68 68 71 75 75 72 72 73 76 77 77 77 77 77 77 77 78 77 77 77 77 77 77 77 77 76 76 75 75 75 75 75 75 75
61 52 46 41 44 49 58 63 68 64 68 71 74 59 61 66 71 72 73 75 71 72 74 75 77 77 76 76 76 77 77 77 77 77 77 77 76 76 76 75 75 75 75 75 75 75 75 75 75
52 52 44 41 45 52 59 65 66 63 68 70 69 63 61 67 70 70 72 74 74 72 74 76 76 76 76 76 76 76 77 77 77 77 77 76 76 76 75 75 75 75 75 75 75 75 75 74 74
50 47 44 46 44 49 59 67 62 65 64 66 70 61 62 65 69 69 71 73 74 74 73 73 74 74 74 74 75 75 76 76 76 76 76 75 75 75 75 75 75 75 75 74 74 74 74 74 74
53 48 45 43 46 48 62 63 63 63 62 69 68 58 58 67 68 70 70 71 73 73 73 71 71 72 71 71 73 73 73 74 74 74 73 72 72 73 74 73 74 74 74 74 73 74 74 73 73
56 45 43 46 47 51 61 58 61 64 62 62 64 64 70 73 71 69 68 68 69 72 72 72 71 70 69 69 70 72 72 72 72 72 70 69 68 69 69 69 71 72 73 73 73 73 73 71 70
49 44 45 55 54 54 57 56 59 59 59 58 61 65 71 70 69 66 68 66 66 68 70 71 70 69 69 73 67 67 70 68 69 69 68 67 66 67 69 67 69 71 71 72 73 73 72 69 63
51 46 53 57 57 59 56 57 62 58 55 59 60 64 66 65 66 67 68 69 68 67 70 71 71 70 69 69 66 64 65 66 67 67 66 66 67 65 65 64 65 65 66 64 67 65 64 62 61
44 53 55 57 60 60 54 57 57 57 58 64 64 66 66 65 65 67 67 68 67 69 71 71 73 71 70 69 68 66 66 64 64 65 66 64 62 64 63 63 63 63 64 62 62 62 62 62 63
45 50 55 59 60 57 59 55 55 55 60 64 65 65 62 65 65 66 67 69 70 70 71 70 71 72 71 70 67 68 67 67 67 67 66 65 63 62 62 62 62 62 62 62 62 62 62 62 63
48 51 52 56 57 56 54 54 54 57 60 62 63 62 62 64 65 64 67 65 70 70 70 71 70 71 72 71 70 70 69 69 68 68 68 68 67 65 63 62 62 61 62 62 62 62 62 63 63
51 45 49 51 54 55 54 50 50 56 61 61 60 61 62 64 66 65 66 67 70 70 71 71 72 70 72 73 72 74 72 71 68 69 72 69 68 67 66 64 63 63 63 63 62 63 63 63 65
46 46 40 50 53 53 52 44 52 54 56 56 58 59 61 63 66 66 65 67 69 69 69 71 74 72 71 73 72 73 74 70 70 69 69 71 70 69 67 66 65 66 65 65 64 64 63 62 62
41 36 40 43 53 49 50 45 54 58 55 54 55 55 59 60 62 65 67 69 67 68 70 69 71 70 72 73 73 72 71 71 73 74 73 73 71 70 68 66 66 67 66 65 65 64 64 63 64
37 36 42 39 45 47 46 45 48 55 55 53 55 55 56 61 63 64 67 67 67 68 69 69 70 70 71 72 71 69 70 70 69 71 73 71 71 70 68 67 67 67 66 66 68 69 68 68 68
39 40 39 42 47 46 45 45 48 51 54 52 52 55 56 58 64 66 65 67 67 65 67 67 67 69 71 68 67 67 65 69 69 70 71 70 71 70 68 67 67 67 69 70 70 69 68 67 67
40 40 39 45 46 46 44 44 48 49 51 52 54 53 56 58 61 64 64 64 64 68 67 66 69 67 70 68 67 67 65 65 67 70 69 70 73 72 69 67 67 67 69 70 70 68 66 64 65
39 40 39 39 45 47 44 41 43 50 54 54 55 55 55 58 60 60 61 63 64 64 65 68 70 69 70 69 66 65 65 65 65 65 66 71 72 71 70 69 68 68 67 67 66 66 65 63 63
34 46 45 41 39 34 44 32 41 48 50 52 53 52 54 55 58 61 61 63 61 63 63 66 67 67 69 66 66 66 64 64 65 64 64 65 67 66 66 67 67 66 65 63 63 62 61 59 58
42 49 47 43 36 36 36 33 40 48 45 50 51 52 53 55 58 59 60 65 65 62 61 62 64 67 68 68 66 65 62 63 62 62 63 61 61 62 62 62 61 61 62 61 60 57 57 57 57
49 44 43 42 38 30 36 36 37 40 47 50 51 52 54 55 56 58 59 61 61 59 58 59 61 62 62 63 64 64 63 62 59 59 58 58 58 59 60 60 59 59 58 57 57 56 55 55 55
45 38 29 28 27 26 40 37 40 46 50 51 51 52 51 50 52 54 55 57 59 59 59 58 59 60 59 60 61 62 62 61 60 58 58 57 57 57 58 58 57 55 56 56 56 55 54 53 53
41 38 28 24 24 27 38 32 42 48 49 51 51 49 49 50 50 51 53 55 55 56 55 56 57 57 57 57 57 58 59 57 58 59 58 58 58 58 58 56 55 54 55 55 54 53 52 52 52
40 34 38 31 30 29 33 39 46 48 47 48 49 49 48 49 50 51 52 52 53 54 55 55 55 56 56 57 57 56 59 57 56 56 56 56 54 56 56 55 55 53 53 52 51 50 50 51 51
43 45 31 27 21 25 29 30 37 42 44 46 47 47 48 49 52 51 50 51 52 51 52 52 53 55 55 56 56 57 55 56 58 59 58 56 54 54 52 51 50 51 51 51 50 48 49 49 49
38 35 37 34 29 24 23 29 41 42 46 45 46 48 48 49 50 51 50 50 50 49 49 50 51 52 53 53 52 52 54 55 54 53 53 53 52 51 50 50 49 49 49 48 47 47 48 48 47
40 37 37 26 26 27 26 32 44 46 45 46 46 48 47 48 50 50 50 49 49 49 49 49 49 50 51 51 51 51 52 53 50 51 52 51 51 50 51 48 48 47 47 46 46 46 47 47 46

GFSSGP_sfc_temp_075.txt.gz
Temp
71 70 65 61 49 43 46 49 58 59 59 66 69 67 64 62 61 54 68 71 73 73 76 77 78 78 78 78 77 77 77 78 78 78 79 79 78 78 79 79 79 79 78 78 78 78 77 77 76
68 71 62 55 44 36 40 55 58 62 66 72 70 66 63 60 67 67 69 73 75 75 76 76 78 78 78 78 77 77 77 78 78 78 78 79 79 78 79 79 78 78 77 77 77 77 76 76 76
68 69 54 49 42 38 44 53 62 64 69 64 64 66 62 60 67 68 70 75 75 73 75 76 77 77 77 77 77 77 78 77 77 77 78 78 79 79 79 78 77 76 76 76 76 76 76 76 76
61 59 54 46 42 46 49 55 64 63 65 70 70 61 62 66 67 70 74 74 71 71 73 75 76 77 77 77 77 77 78 77 77 77 77 78 79 79 79 77 76 75 75 75 75 75 75 75 76
59 54 45 43 43 46 52 58 64 63 63 68 71 63 60 65 71 72 73 72 71 71 73 74 76 76 76 76 77 77 77 77 77 77 77 77 77 77 77 76 75 75 75 75 75 75 75 75 75
48 54 41 40 43 50 53 59 63 61 66 69 68 66 62 66 69 71 71 71 72 73 73 74 75 76 76 76 76 76 76 77 76 76 76 76 76 76 76 75 75 75 75 75 75 75 75 75 75
45 46 43 45 45 47 54 61 58 61 62 65 72 59 61 61 69 70 69 70 71 71 71 72 73 73 74 74 75 75 75 76 76 76 76 75 75 75 75 75 75 75 75 74 74 74 74 74 74
50 49 45 43 44 46 58 62 59 62 63 66 69 58 56 63 69 70 69 70 71 70 70 70 71 71 70 70 73 73 74 74 75 74 73 72 72 73 74 73 74 74 74 74 73 74 74 73 73
53 43 42 45 45 50 58 57 60 63 61 61 63 63 67 67 69 67 65 68 69 70 69 70 71 69 69 68 70 72 72 72 72 71 70 69 67 68 69 69 71 72 73 73 73 73 73 71 70
46 43 46 52 53 52 56 55 58 59 57 57 61 65 67 66 67 65 62 63 65 69 70 72 71 69 68 72 68 68 69 69 70 69 67 66 66 66 67 66 69 71 71 72 73 73 72 69 62
46 43 52 55 57 58 56 55 60 58 54 59 61 63 63 65 65 66 66 67 66 67 69 71 70 69 68 67 65 65 66 66 67 67 66 65 66 64 64 63 64 64 66 64 66 65 63 61 60
42 49 52 55 58 58 55 57 56 56 59 64 66 68 66 65 65 66 67 68 66 68 68 68 69 69 69 67 65 64 65 65 65 66 66 64 63 63 63 63 63 62 63 61 61 60 61 61 61
44 46 53 54 58 56 59 55 53 53 59 64 65 67 66 66 65 68 69 69 69 69 70 70 70 68 69 68 67 66 66 65 65 65 65 64 62 62 62 62 61 61 61 61 60 61 61 61 61
46 47 49 55 54 56 56 53 54 56 60 60 63 63 65 66 65 64 65 66 66 69 69 71 71 70 69 68 68 68 68 68 66 65 64 64 63 62 62 62 61 61 61 62 61 61 61 61 61
46 41 47 50 51 53 55 51 50 54 57 58 59 60 63 63 64 65 67 68 69 69 70 70 71 71 69 68 68 70 70 70 68 67 67 66 65 64 63 62 61 61 61 61 61 61 61 61 63
40 43 37 49 49 53 53 44 53 55 52 54 56 57 59 62 64 64 66 68 70 70 70 71 73 71 70 70 69 70 70 68 70 69 69 68 68 66 64 63 62 63 62 61 61 61 61 61 61
39 34 36 43 51 50 49 45 52 55 53 53 53 53 57 59 62 63 65 65 67 67 68 70 71 70 70 71 71 69 69 69 68 70 69 69 69 69 66 65 64 64 63 62 63 62 63 62 62
34 33 39 41 46 49 46 45 49 51 53 51 51 53 55 57 61 63 65 66 68 66 68 69 70 71 69 70 70 67 68 70 69 70 71 72 73 69 67 66 65 65 64 63 63 64 64 65 67
40 36 38 41 48 45 45 46 50 50 50 51 50 52 54 56 61 62 64 64 64 64 65 67 67 68 69 67 66 65 67 67 67 66 70 71 71 69 67 66 65 65 64 65 66 68 67 66 66
41 36 38 41 45 45 43 43 48 49 49 53 50 52 54 56 58 62 64 63 64 64 64 64 66 67 68 69 71 69 65 64 67 69 71 72 71 70 69 66 65 65 64 67 68 67 65 65 65
38 36 38 39 41 45 41 39 43 48 49 53 52 53 54 55 57 59 60 62 63 62 63 65 67 69 69 66 65 64 64 64 64 66 68 69 70 69 69 68 66 65 66 66 67 66 65 63 61
35 42 43 41 37 34 42 31 40 46 46 49 51 50 52 53 55 57 60 59 61 63 62 64 65 66 66 65 65 66 66 64 63 64 64 64 66 67 69 67 66 66 65 65 64 63 63 60 58
38 46 41 40 35 36 37 33 40 46 44 47 51 49 51 54 54 56 58 61 62 63 62 63 64 64 65 64 64 63 62 63 62 62 62 62 61 62 62 62 62 61 61 61 61 60 59 57 56
46 44 41 40 35 28 34 34 36 41 47 50 51 50 52 54 53 55 57 57 57 56 58 59 60 62 63 64 64 64 63 61 60 60 60 59 59 59 60 60 59 59 59 58 58 57 55 54 53
43 37 29 27 27 27 38 33 38 45 48 50 50 50 52 50 52 53 53 55 54 55 57 57 58 60 60 61 61 62 64 63 62 60 60 58 57 57 58 58 58 58 57 57 56 54 53 53 52
38 38 29 24 24 28 37 31 39 45 47 48 50 48 47 48 49 50 50 53 54 53 55 55 56 56 58 58 59 59 60 60 61 60 59 58 58 57 58 57 56 55 55 55 54 53 51 51 50
37 32 40 31 31 28 31 38 45 48 46 47 45 47 46 47 48 50 50 50 51 52 52 53 53 55 56 56 56 56 57 57 56 56 56 55 56 56 56 56 55 54 53 52 51 50 50 49 50
41 43 32 28 24 24 28 29 35 41 43 45 46 45 46 47 48 49 49 50 50 50 49 50 51 52 53 54 53 54 54 55 55 54 54 55 55 56 55 54 53 52 52 50 49 48 49 49 49
38 37 36 33 29 24 24 31 41 43 45 45 44 45 46 47 47 47 48 48 47 47 48 48 49 50 51 52 52 51 51 52 52 54 54 52 52 51 52 52 51 50 49 47 46 46 46 47 46
38 35 34 26 26 25 24 28 42 44 44 45 45 46 47 47 46 46 46 46 46 46 46 46 47 48 49 49 50 50 50 51 51 51 52 51 51 50 50 50 48 47 46 45 44 44 45 45 45

GFSSGP_sfc_temp_078.txt.gz
Temp
70 68 64 60 47 44 39 46 51 55 59 60 68 64 63 62 59 53 68 72 72 73 75 77 78 78 78 78 77 77 77 78 78 79 78 78 79 79 80 79 79 79 79 79 79 78 78 77 77
66 68 60 52 43 38 40 48 53 57 63 67 65 64 64 62 65 67 69 73 73 73 75 75 77 78 78 77 77 77 77 78 78 78 78 77 78 79 79 79 78 78 78 78 77 77 76 76 76
66 66 52 48 44 41 40 49 56 60 66 66 61 63 63 63 68 69 69 74 73 72 74 75 77 77 77 77 77 77 77 77 77 78 78 77 78 79 79 78 77 77 76 76 76 76 76 76 76
59 55 52 44 42 45 47 51 57 60 65 66 66 61 64 66 66 70 74 72 71 70 72 75 76 77 77 77 77 77 77 77 77 77 77 78 78 78 77 76 75 75 75 76 76 75 75 75 76
56 50 44 43 44 46 49 56 59 58 60 63 68 58 61 66 70 72 72 72 70 70 71 73 76 76 76 76 76 77 77 77 77 77 78 78 79 78 77 75 75 75 75 75 75 75 75 75 75
48 48 42 40 44 49 51 57 56 56 59 65 66 63 60 68 68 69 72 70 72 70 71 73 74 76 76 76 75 76 76 76 76 76 77 78 78 77 76 75 75 75 75 75 75 75 75 75 75
45 42 42 41 44 44 51 57 53 55 58 63 71 64 58 62 67 69 69 70 71 70 70 70 71 73 74 74 74 75 76 76 76 76 76 76 76 76 75 75 75 75 75 75 74 74 74 74 74
48 48 41 43 41 44 54 58 61 59 58 64 72 58 57 63 68 68 67 67 68 68 68 69 69 70 70 70 73 73 74 74 74 74 73 72 72 73 74 73 74 74 74 74 74 74 74 73 73
52 42 39 44 45 48 56 56 63 63 57 60 62 63 66 68 68 65 62 64 66 67 67 69 70 69 68 68 70 72 72 72 72 71 70 68 66 68 69 68 71 72 73 73 73 73 73 71 70
44 38 42 51 52 48 55 56 60 60 55 56 59 64 67 66 66 62 61 60 62 66 67 68 69 69 68 71 68 68 69 71 70 67 66 65 65 65 67 66 69 71 71 71 72 72 72 67 61
44 40 48 50 53 54 53 55 58 58 52 57 59 60 64 64 63 63 63 62 62 65 68 69 70 68 67 68 66 66 66 67 70 66 65 65 65 64 63 63 64 64 66 63 65 63 61 60 59
39 46 48 50 55 55 53 57 54 55 57 59 64 65 64 63 62 64 64 66 65 65 66 67 69 67 67 66 65 65 65 66 67 68 65 64 62 62 62 62 62 62 62 61 60 60 60 60 60
39 43 48 51 53 54 59 55 54 54 57 59 66 65 63 64 64 65 67 68 66 64 64 65 66 66 67 65 64 65 65 66 66 66 65 64 63 62 62 62 61 61 60 60 59 60 60 60 61
42 44 46 49 51 53 53 55 52 57 55 57 62 62 64 65 65 65 66 64 65 66 64 66 65 69 68 66 65 65 65 65 65 65 66 64 63 62 62 62 61 60 60 61 60 60 60 60 60
44 38 43 47 49 49 55 49 49 52 54 55 58 63 62 65 67 65 67 66 68 68 67 67 69 70 68 68 66 66 68 67 65 65 64 64 63 62 63 62 61 61 60 61 60 60 59 59 61
37 39 33 44 49 50 50 43 54 52 52 51 54 57 62 63 64 66 69 69 68 68 69 70 72 71 69 67 67 67 66 66 68 67 67 65 65 64 62 62 61 61 61 60 59 59 59 59 60
35 28 31 39 49 49 48 43 51 53 51 50 52 53 56 59 63 64 67 68 68 69 69 69 71 70 69 68 69 68 68 66 67 67 68 69 67 66 64 64 63 63 61 60 61 60 60 60 61
29 29 35 37 44 47 45 44 49 51 51 48 50 51 53 57 59 62 66 66 68 69 70 70 69 69 69 68 67 67 67 68 66 66 67 68 69 67 66 65 64 63 62 61 61 61 61 62 64
33 34 33 39 45 44 44 43 47 50 50 48 51 52 53 56 59 61 63 63 64 64 64 68 69 68 68 66 66 66 66 67 67 67 69 69 69 70 69 66 64 63 63 64 63 62 64 65 66
33 35 34 40 47 45 43 42 47 49 50 50 50 51 53 55 57 59 59 59 62 63 63 64 68 69 67 66 67 69 68 66 66 65 66 68 69 70 68 68 66 64 64 63 64 65 65 65 65
34 35 35 37 41 42 40 38 40 48 49 52 51 52 53 54 55 58 58 60 59 61 62 64 65 68 69 70 68 63 63 63 63 64 64 65 69 69 69 67 64 63 64 64 64 65 65 63 62
33 39 41 39 36 31 41 30 39 44 45 48 51 52 51 54 55 57 58 59 61 61 61 64 64 65 65 65 65 64 64 63 63 63 63 63 64 64 64 64 64 64 65 64 63 63 63 62 61
37 44 42 39 34 35 35 32 39 44 42 46 49 54 52 53 55 56 58 60 62 61 59 61 63 63 64 64 65 64 63 63 62 62 61 61 61 61 62 62 62 62 62 61 61 60 59 58 58
44 41 40 38 36 28 33 34 36 38 44 48 51 52 53 54 54 56 56 57 57 57 57 58 60 61 62 62 62 62 63 62 61 60 60 60 60 60 60 60 61 61 60 59 60 59 58 57 55
43 37 28 26 26 26 34 32 38 42 46 49 52 53 53 52 53 54 54 55 56 55 55 57 58 58 59 59 61 62 62 62 61 60 60 60 58 57 58 58 58 57 57 57 57 56 55 54 53
40 37 30 24 24 27 37 29 39 43 44 47 50 49 47 48 48 50 50 51 51 53 54 55 55 57 56 56 57 59 60 60 60 60 59 60 60 59 58 57 56 56 56 56 55 54 52 52 51
39 33 41 31 32 27 33 38 44 46 44 46 46 47 45 46 47 48 48 48 49 49 50 50 53 54 55 55 55 54 55 57 57 57 58 58 57 58 57 57 56 55 54 53 53 51 50 50 49
40 43 32 30 24 24 30 29 34 41 40 43 42 42 43 45 46 46 46 46 46 47 47 49 49 50 51 53 53 54 54 54 55 55 54 54 54 54 53 53 53 52 52 51 50 48 48 48 48
36 34 33 33 30 26 26 31 40 41 43 40 41 43 43 43 43 43 44 45 45 46 46 47 47 48 49 50 50 51 52 52 52 52 52 52 52 53 52 53 51 50 50 49 49 47 47 47 46
36 35 34 27 26 24 24 30 40 41 43 44 42 42 43 43 42 42 43 43 43 43 44 45 46 47 47 47 48 49 49 49 49 49 50 51 50 50 50 50 49 48 48 46 45 44 44 44 44

GFSSGP_sfc_temp_081.txt.gz
Temp
71 72 70 65 54 51 47 51 59 60 64 70 69 69 66 64 63 61 73 75 77 78 80 80 78 79 79 78 78 78 78 78 78 79 80 79 79 79 80 80 79 79 80 80 79 79 78 77 77
70 70 64 56 48 42 46 56 57 62 67 68 68 67 66 65 69 69 70 74 78 78 80 81 78 78 78 78 77 77 78 78 78 78 79 79 79 79 79 79 79 79 79 79 79 78 77 77 76
69 67 57 51 48 44 48 55 61 65 67 68 64 64 65 65 69 71 74 77 77 78 79 80 77 77 78 77 77 77 77 78 78 77 77 78 79 79 79 78 78 78 77 77 77 76 76 76 76
64 60 56 46 45 52 54 60 61 63 68 69 66 61 66 69 67 73 76 77 77 77 79 77 76 77 77 77 77 77 77 77 77 77 77 77 79 78 78 77 76 76 76 76 76 76 76 76 76
60 54 46 43 46 52 56 59 60 61 66 66 68 63 64 66 69 71 73 76 76 76 78 79 76 77 76 77 76 77 77 77 77 77 77 78 78 78 77 76 75 75 76 76 76 76 76 75 76
52 52 42 41 46 53 57 60 58 61 64 67 65 63 64 69 69 70 73 74 76 76 77 79 75 76 76 76 76 76 76 77 77 77 78 78 78 77 76 75 75 75 76 76 76 76 75 75 75
49 46 43 46 47 49 54 61 56 60 62 65 71 63 63 64 69 69 69 71 74 75 76 77 78 76 74 74 75 75 76 76 76 76 77 77 76 76 75 75 75 75 75 75 75 75 75 75 74
52 49 43 45 45 48 58 58 62 59 61 71 74 61 57 66 70 68 66 64 69 72 74 74 76 77 77 77 73 73 74 74 74 74 74 72 74 73 74 73 74 74 74 74 74 74 74 74 73
56 43 40 44 46 51 58 56 61 65 64 66 69 71 68 67 66 66 63 62 64 70 70 71 73 75 75 75 75 73 72 72 72 72 70 71 74 76 75 71 71 72 73 73 73 73 73 71 70
47 40 43 52 55 53 56 57 60 58 61 63 65 67 67 66 65 65 63 61 61 67 71 70 71 72 73 74 75 75 74 75 75 74 74 74 74 75 74 70 69 71 71 72 73 73 71 70 75
46 41 49 51 53 56 55 56 61 59 56 63 65 62 64 64 65 65 65 66 65 65 67 71 70 70 72 73 72 72 72 72 74 73 73 73 72 73 73 73 73 73 69 74 73 73 74 73 74
41 47 48 50 53 52 52 58 56 55 62 69 67 66 65 63 63 63 65 67 65 64 68 66 66 68 71 73 72 72 73 72 71 73 72 71 70 70 70 71 71 71 72 71 72 74 73 72 73
41 45 48 50 51 52 54 51 54 56 60 61 65 64 64 63 64 66 66 65 68 65 65 66 66 65 68 70 71 71 72 73 72 72 72 71 70 69 70 70 70 70 71 71 71 72 73 73 73
44 45 46 48 48 50 49 51 54 58 57 58 61 61 65 63 65 65 65 65 67 70 65 65 67 67 69 67 69 70 71 73 73 74 71 72 72 71 70 70 70 70 70 71 71 72 72 73 73
44 38 43 45 47 47 52 47 49 59 57 56 58 59 64 65 65 65 67 66 67 67 69 66 70 68 70 68 67 68 71 70 71 71 73 72 72 72 71 71 70 71 71 70 70 71 70 70 71
39 38 32 44 46 49 49 41 54 55 56 53 55 57 63 64 65 67 68 68 70 70 67 69 72 68 70 70 68 68 68 67 71 71 72 72 72 72 71 71 71 71 70 70 70 70 70 70 70
35 29 31 36 48 48 46 43 54 55 54 52 53 55 57 61 65 66 68 70 68 68 68 67 69 69 70 70 68 69 69 69 70 70 71 72 72 71 72 72 71 71 70 69 70 69 70 70 70
29 29 33 33 44 46 45 45 49 52 53 52 52 54 55 56 57 60 65 69 69 69 68 68 69 70 69 69 68 69 69 70 69 68 69 71 73 72 71 71 72 71 70 70 68 69 69 71 71
33 32 33 39 45 44 42 44 47 48 50 48 50 52 55 56 57 56 59 63 66 68 68 68 69 70 69 67 65 67 66 68 68 69 70 70 73 73 72 72 70 69 69 70 70 69 69 69 69
33 31 32 38 46 45 44 43 44 47 49 50 51 52 53 57 59 56 57 58 62 65 67 68 68 70 70 66 65 65 66 68 70 69 68 68 70 69 70 69 68 68 70 69 69 69 68 67 67
34 31 33 36 42 43 43 39 41 48 50 52 54 53 54 55 57 59 60 58 59 63 63 67 70 69 69 69 66 65 65 65 64 65 67 66 66 66 67 67 68 66 66 66 68 68 67 65 64
33 41 41 40 38 33 41 30 40 44 47 50 53 54 55 53 57 58 59 61 60 60 64 65 66 67 67 66 67 65 64 62 64 65 65 66 66 65 65 66 66 66 64 64 64 66 66 66 67
36 44 41 40 36 37 36 34 39 44 42 47 51 54 55 55 57 58 59 60 62 61 60 63 64 63 65 67 67 65 63 62 64 63 63 63 63 64 64 65 64 63 62 62 62 65 62 63 63
44 43 41 39 36 27 33 36 37 39 45 49 51 54 55 54 57 58 59 60 59 59 59 62 63 64 63 63 63 64 64 63 62 63 62 62 62 62 63 64 64 63 62 61 60 60 60 60 60
42 38 28 27 27 27 35 33 40 46 48 49 52 53 53 54 54 57 56 56 56 56 57 59 60 60 62 64 62 63 62 63 63 63 63 61 62 61 62 62 63 62 61 61 60 59 59 58 57
38 36 29 24 24 28 36 31 39 45 46 47 51 53 51 51 48 50 52 53 54 54 54 56 58 59 59 61 60 61 62 62 63 63 62 63 63 63 63 62 60 58 59 59 59 57 57 57 57
37 33 40 32 33 30 33 39 46 47 45 46 46 48 49 49 48 50 50 51 51 52 52 54 56 56 57 58 59 59 60 61 61 61 62 62 62 60 60 60 58 58 58 56 55 55 55 55 55
40 45 34 32 24 24 31 33 34 40 41 44 44 44 45 47 47 48 48 49 50 50 51 53 54 54 55 55 56 56 58 58 59 59 59 59 60 59 58 57 57 56 55 56 54 54 54 55 53
38 37 36 35 31 28 27 32 42 42 43 41 42 44 44 45 45 46 47 48 48 49 49 50 51 52 53 53 54 56 56 56 57 57 57 57 57 57 57 56 55 54 54 54 54 53 51 52 52
38 37 36 30 28 27 28 32 40 43 45 43 43 43 44 44 44 45 45 47 47 47 48 48 49 50 50 51 53 54 54 55 56 56 56 56 56 56 57 56 54 53 53 52 52 51 51 51 50

GFSSGP_sfc_temp_084.txt.gz
Temp
76 80 82 76 62 62 58 62 70 69 71 81 81 78 76 76 73 69 81 83 84 87 87 84 78 79 78 78 78 78 78 78 79 79 80 80 80 79 79 79 80 80 80 80 80 79 78 78 77
78 77 76 70 56 54 57 68 64 71 77 80 79 75 74 67 78 77 78 78 84 87 87 86 78 79 78 78 78 77 78 78 79 79 79 79 79 80 79 79 80 80 80 79 79 78 77 77 76
75 75 66 60 57 54 57 66 69 75 75 74 75 76 76 70 77 80 82 83 85 86 88 86 78 78 78 78 77 78 78 78 78 78 78 78 79 79 79 79 79 78 77 78 77 76 76 76 76
73 68 66 53 53 61 64 70 72 74 76 77 75 73 74 77 77 80 83 85 85 86 88 79 77 77 77 77 77 77 78 78 77 77 77 78 79 79 78 78 77 76 76 77 76 76 76 76 76
71 66 55 52 54 63 68 72 73 70 73 75 77 72 73 74 76 77 78 82 84 85 87 84 76 77 77 77 77 77 77 77 77 77 77 78 79 79 77 76 76 76 76 76 76 76 76 76 75
60 62 51 48 55 63 67 71 72 70 73 74 75 74 76 80 76 76 79 80 84 86 85 85 76 76 76 76 76 76 77 77 77 77 77 77 78 77 77 76 75 76 76 76 76 76 75 75 75
57 54 50 53 56 59 64 72 68 68 70 72 78 72 78 75 80 77 72 67 72 82 83 83 82 79 74 75 75 75 76 76 76 76 76 76 75 75 76 75 75 75 76 75 75 75 75 75 74
60 56 51 54 53 55 67 68 70 69 67 80 79 69 73 79 79 75 71 67 66 72 79 81 81 83 83 80 73 74 74 74 75 75 74 72 72 73 75 74 75 75 75 75 74 75 75 74 73
63 48 47 52 54 58 68 66 71 74 70 75 77 77 83 80 73 70 70 70 65 65 66 76 79 83 85 82 77 73 72 72 72 73 70 72 80 79 77 73 73 73 73 74 74 74 73 71 71
53 48 50 60 61 60 64 65 67 66 66 68 71 79 79 74 71 71 70 65 63 61 63 67 75 79 83 83 79 80 79 80 81 81 80 79 80 83 81 73 70 72 72 72 73 73 71 70 82
53 46 57 58 59 60 59 62 68 64 61 69 68 73 77 74 72 71 70 64 63 63 64 65 71 75 79 81 80 77 80 80 81 81 81 81 80 78 79 79 77 78 71 80 77 76 81 82 83
46 54 56 57 58 56 55 61 59 64 66 74 64 75 75 73 71 70 70 67 66 65 65 67 69 71 75 82 81 79 78 79 79 80 80 79 79 79 80 80 80 80 80 81 81 82 82 81 81
47 51 55 57 56 56 58 55 57 60 69 72 68 68 72 73 71 71 71 70 69 65 66 66 66 66 71 77 80 81 78 79 81 80 80 81 79 77 79 79 79 80 80 80 80 81 82 82 82
52 50 51 53 53 54 52 54 58 62 69 67 66 66 71 73 73 69 71 70 69 67 68 67 65 66 69 70 76 80 81 79 80 80 80 80 81 78 77 77 77 79 80 81 81 81 80 81 81
49 43 48 50 52 51 55 48 51 62 66 64 65 66 69 73 73 66 68 68 72 72 72 69 66 66 68 74 74 79 79 81 78 80 80 79 79 79 78 80 79 79 80 80 79 80 80 79 80
43 44 35 50 52 52 51 42 58 65 64 62 64 63 67 70 72 69 68 69 72 73 73 71 71 68 72 73 73 76 77 79 79 79 80 78 79 77 78 80 80 81 80 79 78 78 77 78 79
38 33 38 42 52 51 49 45 57 65 63 61 62 63 64 65 71 68 71 72 73 74 74 72 72 70 70 74 74 74 75 75 75 77 79 77 77 77 79 79 80 80 79 78 78 77 78 77 78
33 30 38 39 48 48 47 47 57 61 61 61 61 61 61 62 63 68 68 69 72 71 73 74 71 69 71 71 73 73 73 74 75 73 75 76 77 77 77 79 80 79 77 77 77 77 78 78 79
37 33 32 41 49 46 46 49 54 51 56 57 59 57 59 58 56 59 60 62 67 68 72 74 73 69 69 69 69 70 70 72 72 72 74 76 76 77 77 78 79 78 77 77 78 77 76 75 77
34 33 35 42 47 46 47 47 54 53 52 55 57 59 59 61 55 57 57 59 60 64 67 71 68 68 69 66 68 69 69 71 72 73 74 75 74 76 75 75 77 77 74 77 76 75 74 76 76
33 31 33 35 43 48 47 43 45 52 54 55 57 57 58 58 56 54 56 57 59 61 62 64 67 65 65 66 67 67 66 68 70 71 71 72 72 69 71 72 69 68 68 71 73 75 74 70 70
32 39 36 35 35 33 48 34 45 52 51 54 56 55 52 56 60 58 56 54 59 60 62 63 64 64 65 65 65 65 64 62 65 66 69 69 70 70 67 67 66 65 65 64 64 65 65 69 68
40 45 37 33 38 41 41 39 44 48 48 51 54 53 51 54 56 57 58 57 57 60 63 64 64 66 66 67 66 64 63 63 64 63 64 67 65 67 65 64 64 64 64 63 62 63 62 62 61
49 46 40 43 41 31 36 38 40 45 47 52 55 57 59 58 56 53 58 60 58 59 61 63 64 66 67 66 66 64 63 62 60 61 62 62 64 64 64 64 64 64 63 62 61 61 59 60 60
44 41 32 30 32 30 37 39 42 49 52 53 56 60 60 58 52 53 53 55 55 57 60 62 65 64 66 66 68 67 67 65 63 63 64 64 63 63 63 64 63 63 64 65 63 61 60 61 60
41 41 35 27 29 30 39 35 44 51 53 54 57 60 59 55 51 47 52 55 57 58 60 62 64 62 64 64 63 64 66 66 66 67 67 66 65 65 66 64 64 65 66 65 64 62 62 61 61
41 37 46 38 39 36 39 42 50 53 51 53 54 54 50 51 49 47 52 54 57 59 59 61 63 63 62 63 64 64 65 66 66 66 67 66 67 66 65 64 65 64 63 62 62 60 57 58 57
41 48 38 40 30 28 37 39 41 46 46 49 50 51 49 48 50 48 50 54 57 58 60 61 62 62 61 62 63 62 63 63 65 65 64 66 68 67 67 64 64 62 62 63 62 59 58 58 59
44 43 43 42 40 37 35 38 48 48 48 48 50 50 48 48 47 51 52 55 57 58 58 59 60 61 61 62 62 62 62 62 63 64 64 63 64 64 63 63 61 61 62 62 61 59 57 57 58
45 43 44 41 36 39 42 39 49 51 50 51 49 50 49 49 49 52 53 55 56 56 57 57 57 58 58 61 62 62 61 61 62 62 61 63 64 63 62 61 60 60 60 60 58 56 56 57 56

GFSSGP_sfc_temp_087.txt.gz
Temp
76 82 85 78 62 63 58 63 75 74 76 85 86 82 80 82 75 67 84 88 90 90 86 83 78 79 79 79 78 78 78 78 79 79 80 80 80 79 79 79 79 80 80 80 80 79 79 78 77
82 83 79 71 57 53 58 70 69 75 79 84 84 81 79 76 83 80 82 86 89 87 83 85 78 78 78 78 78 78 78 79 78 79 79 79 79 79 80 80 79 80 80 79 78 78 78 77 76
78 81 68 62 58 53 59 71 73 78 80 79 78 83 80 78 82 84 86 86 88 84 84 83 78 78 78 78 77 77 78 78 78 78 78 79 79 79 80 79 79 79 78 78 77 77 77 76 76
75 72 69 57 55 62 64 72 77 76 80 81 80 76 83 83 83 85 87 88 88 84 85 77 77 77 77 77 77 77 78 78 78 78 78 78 79 79 79 78 77 77 78 77 76 76 76 76 75
75 70 56 54 56 64 72 75 77 73 76 79 80 74 78 81 84 84 85 83 84 83 83 83 77 77 77 77 77 77 77 77 77 77 77 78 79 79 78 77 76 76 76 76 76 76 76 75 75
63 65 53 51 57 65 70 75 75 75 77 78 77 77 79 81 81 81 82 82 81 82 82 83 76 76 76 76 76 77 77 77 77 77 77 77 78 78 77 77 76 76 76 76 76 76 76 75 75
59 58 52 55 58 62 68 76 72 72 74 74 81 73 81 79 83 81 80 79 72 69 77 77 82 79 74 74 75 76 76 76 76 76 76 76 76 76 77 76 76 76 76 76 75 75 75 75 74
64 59 53 56 54 57 70 73 75 73 71 82 82 72 73 84 83 76 74 72 71 67 66 64 77 81 83 78 73 74 74 75 75 74 71 72 73 74 74 74 74 75 75 75 75 75 75 74 73
66 51 48 53 56 60 70 68 75 78 74 76 79 79 83 81 76 75 73 72 69 67 66 66 65 77 84 81 76 73 72 72 73 72 70 71 76 76 76 74 72 73 74 74 74 74 73 72 71
56 50 51 62 64 62 67 68 70 71 70 70 73 78 83 79 70 72 73 71 68 68 67 65 66 65 76 82 77 79 80 79 80 80 76 78 79 81 81 73 70 72 72 73 73 73 72 71 80
56 48 58 62 65 64 61 62 68 67 64 71 70 75 80 79 72 72 75 74 71 71 65 66 66 66 65 78 74 74 80 81 82 82 81 80 82 80 79 76 75 74 69 75 74 74 77 80 83
49 57 58 59 62 60 57 63 61 64 67 75 74 74 73 75 73 73 72 76 74 68 67 66 66 65 66 79 74 74 74 82 81 82 82 81 80 78 79 78 77 78 78 80 79 80 82 82 83
51 53 57 60 60 60 61 57 58 61 69 73 74 73 72 75 76 77 74 76 77 70 69 68 66 65 65 72 79 72 74 79 81 80 80 81 79 77 79 80 81 81 81 82 80 81 82 81 82
55 54 54 56 56 57 54 55 58 61 68 68 69 71 72 73 76 76 75 69 73 72 70 69 68 66 64 66 77 78 73 76 80 80 80 81 80 78 78 79 79 80 81 81 80 80 81 82 82
53 45 49 52 54 53 57 49 51 61 65 65 68 70 71 72 75 76 74 70 68 71 73 70 69 67 64 64 70 78 78 74 75 81 81 81 81 80 79 79 78 78 80 80 81 81 81 80 81
46 46 38 51 55 55 53 42 57 64 63 62 66 68 70 71 73 77 74 73 72 66 72 72 71 67 66 65 71 75 78 77 72 75 79 81 80 80 79 78 78 80 80 79 79 78 77 78 78
41 34 40 45 55 53 52 45 56 64 64 63 65 68 69 69 70 74 74 71 66 65 73 72 71 68 67 68 72 75 78 77 78 77 77 77 79 79 78 78 78 80 76 79 78 78 78 76 77
36 36 40 40 50 52 48 47 54 61 62 63 65 67 68 67 67 69 72 72 67 67 70 74 73 69 68 67 70 70 75 78 77 78 79 79 77 77 76 78 78 79 76 78 77 77 78 77 77
39 38 37 44 50 45 46 48 53 59 59 61 64 66 67 66 65 64 70 70 69 67 67 70 71 67 65 65 65 67 69 73 74 76 75 75 76 76 77 77 78 77 75 77 77 77 76 75 77
38 34 36 43 48 45 42 47 53 58 57 59 60 59 59 65 61 59 61 61 59 60 62 66 67 66 66 66 67 68 70 70 71 72 74 75 75 75 75 75 76 75 74 76 75 75 74 74 75
36 32 33 33 43 46 45 43 49 57 58 58 61 62 61 61 60 57 58 57 58 58 61 64 66 66 65 65 65 64 67 68 67 70 70 72 74 72 73 73 71 70 69 69 70 69 73 69 71
31 41 36 35 35 32 47 32 46 53 54 56 59 60 59 59 60 58 58 57 57 58 60 62 63 63 64 64 63 63 62 62 66 67 69 70 71 71 69 68 70 68 67 65 64 65 66 68 66
37 41 39 38 37 35 40 37 45 53 50 55 59 60 59 57 57 56 56 58 59 59 59 60 61 62 63 63 63 62 62 63 64 63 65 66 66 66 67 67 66 65 65 64 64 63 62 62 60
46 36 35 38 33 29 37 37 40 46 49 54 58 60 57 54 53 53 56 58 57 55 56 56 59 60 62 63 63 62 62 61 61 62 62 62 63 64 64 64 64 65 64 63 62 61 60 60 60
45 37 31 29 30 32 42 35 41 50 53 55 57 58 54 52 51 49 52 55 54 54 57 58 60 58 60 62 64 63 63 63 62 62 62 63 63 63 63 64 63 64 64 63 62 61 61 61 59
42 41 32 26 30 31 39 33 35 51 56 57 59 54 51 48 48 48 51 53 53 54 59 61 62 61 63 61 63 64 64 64 64 65 64 65 66 66 67 65 64 64 63 62 62 61 61 61 60
41 36 43 35 39 34 35 41 49 47 54 53 53 50 47 47 47 48 49 54 55 56 59 61 62 62 62 62 64 62 64 66 66 65 66 66 67 67 68 67 65 65 63 62 62 60 61 61 61
41 46 36 40 30 30 38 38 37 41 44 49 45 46 47 47 47 47 48 49 55 58 60 61 62 61 61 62 62 62 63 64 65 65 66 67 67 67 64 64 65 63 62 61 61 59 59 59 58
43 44 46 44 42 33 35 35 49 47 46 45 44 44 44 44 46 49 48 49 53 57 59 60 60 59 60 61 63 62 62 63 64 65 66 66 67 67 65 64 62 61 60 61 60 60 59 59 58
48 47 49 41 39 44 43 37 52 52 47 48 46 47 48 48 47 49 54 56 56 57 58 59 59 58 59 60 61 61 63 62 63 63 63 64 64 64 64 64 61 60 59 61 61 60 59 59 57

GFSSGP_sfc_temp_090.txt.gz
Temp
73 76 76 70 52 53 49 54 65 64 68 78 80 76 69 73 69 56 78 81 84 80 79 79 79 79 79 78 78 78 78 78 79 79 80 80 80 79 80 80 80 80 80 80 80 80 80 77 77
74 77 72 62 48 44 49 61 61 67 73 77 77 76 71 69 76 73 74 82 84 81 79 79 78 78 78 78 78 78 78 78 78 79 79 79 79 79 79 80 80 80 80 79 79 79 78 76 76
73 76 60 54 50 44 49 62 66 72 76 74 71 75 74 70 78 76 78 83 82 81 80 79 77 78 78 78 77 77 78 78 78 78 79 79 79 80 80 79 79 79 78 78 78 77 77 76 75
69 65 63 51 48 55 57 63 68 70 73 72 71 68 79 76 74 80 81 84 80 79 79 76 77 77 77 77 77 77 77 78 78 78 78 78 78 79 79 78 78 78 77 77 76 76 76 75 75
68 62 49 47 49 57 64 68 69 67 70 72 73 67 72 76 80 80 81 82 79 78 76 77 77 77 77 77 77 77 77 78 78 78 78 77 78 78 78 78 79 79 77 76 76 76 75 75 75
56 57 45 43 49 59 63 68 68 67 71 71 71 71 66 76 76 76 78 78 78 76 77 77 76 76 76 76 76 76 77 77 77 77 77 77 77 78 78 78 79 78 77 76 76 76 75 75 75
52 51 45 48 50 55 62 70 65 66 66 68 73 66 67 69 72 76 76 73 70 70 70 68 75 75 74 74 75 75 76 76 76 76 76 76 76 77 78 78 77 76 76 76 76 75 75 75 74
57 52 46 49 49 51 63 66 69 67 66 75 76 63 65 71 75 74 72 68 67 66 67 67 68 73 74 72 73 74 74 74 75 75 74 72 73 75 77 75 76 76 75 75 74 75 75 74 73
62 45 42 47 50 54 64 62 69 72 68 69 72 69 73 74 71 68 68 69 66 66 67 67 66 67 66 72 72 72 73 72 71 70 69 70 74 75 75 73 73 73 74 74 74 74 73 72 71
51 43 45 56 58 57 62 62 62 62 63 64 67 73 76 71 68 66 65 64 65 65 66 67 66 66 67 70 69 71 72 69 71 71 69 71 74 74 74 70 70 73 72 72 74 73 72 70 67
52 44 52 56 60 61 59 59 63 58 55 62 65 68 72 71 69 65 65 68 64 66 65 66 67 69 66 66 65 67 72 71 71 71 71 71 75 72 70 66 70 69 67 67 69 68 67 66 68
46 53 55 56 59 57 55 59 56 58 58 66 68 69 68 67 68 64 66 68 70 66 66 65 66 65 67 65 66 69 70 72 71 73 74 71 73 71 70 69 66 66 66 66 66 65 67 68 71
48 51 55 56 56 56 58 54 54 55 61 65 67 69 66 67 66 64 64 68 68 67 66 65 64 65 66 66 66 69 69 74 73 72 74 74 69 68 69 69 69 69 69 69 69 69 70 70 71
51 50 51 53 52 54 52 52 54 56 61 62 64 64 66 67 67 65 65 64 66 65 66 66 65 65 66 65 65 65 68 70 72 71 71 75 70 70 69 71 71 70 71 70 71 71 69 70 71
51 43 46 48 50 49 53 45 47 56 59 58 61 64 65 67 68 67 67 65 66 66 68 67 65 66 65 65 66 66 67 70 69 74 73 73 72 70 70 69 69 69 70 71 70 70 71 70 72
42 42 34 46 49 51 49 36 50 57 56 55 58 61 64 65 68 68 70 67 65 65 67 68 69 65 65 65 66 68 69 68 69 70 75 72 72 72 70 68 68 69 70 69 68 69 67 67 69
37 29 34 40 52 50 47 40 51 56 56 55 57 59 62 63 66 67 67 67 66 65 65 64 67 65 65 64 66 67 69 70 69 70 70 73 73 73 71 69 69 70 69 69 69 68 68 67 67
30 32 37 37 46 49 44 44 50 55 55 54 57 59 61 63 63 65 64 66 64 64 64 65 67 65 67 65 66 67 66 70 72 69 68 71 74 73 71 70 70 70 69 69 69 68 68 68 67
37 33 32 38 46 44 41 42 46 52 54 53 54 56 60 61 58 60 62 63 62 62 62 64 64 67 64 63 63 64 65 66 68 70 71 71 70 73 71 71 70 69 69 69 70 69 68 67 67
38 33 32 38 44 42 41 39 46 50 52 54 54 55 55 58 55 57 59 57 57 59 61 62 64 65 63 64 65 65 65 67 66 67 69 70 69 70 70 69 69 70 69 68 70 68 66 67 67
34 32 32 32 39 41 39 34 41 48 54 55 55 55 55 55 56 57 58 56 56 58 59 61 63 64 64 64 64 63 63 64 65 66 65 66 70 69 69 69 67 67 65 65 65 65 64 64 64
30 41 37 34 32 26 40 23 37 45 48 52 52 52 53 53 53 54 57 55 56 57 59 61 61 62 63 63 62 62 62 60 62 63 64 66 68 67 67 67 67 65 64 63 62 63 62 62 61
35 41 38 36 33 32 34 28 34 46 42 48 52 53 53 53 52 53 56 58 58 57 57 59 61 61 62 62 62 61 60 61 61 61 61 62 64 65 65 65 65 64 63 63 62 62 62 62 60
44 37 38 38 33 25 32 30 32 39 46 49 55 56 51 52 51 50 55 56 55 55 54 56 56 59 60 61 62 61 60 60 60 60 60 61 62 62 63 64 64 64 64 63 62 62 62 61 61
42 33 27 24 22 27 34 29 34 43 49 53 54 53 51 51 48 49 48 50 52 52 53 55 56 56 58 59 60 61 60 60 59 58 60 60 61 61 62 62 63 63 63 63 62 61 60 60 60
40 37 30 23 25 28 34 30 33 43 49 54 54 49 47 46 46 47 47 49 50 51 53 57 56 54 56 56 57 60 61 61 61 60 60 61 61 62 63 62 62 63 62 63 62 61 60 60 59
39 34 39 32 33 31 32 33 41 46 43 46 46 46 45 45 44 45 46 47 50 51 53 55 56 55 57 57 57 58 61 61 61 62 63 63 62 63 63 62 62 61 62 62 62 61 60 59 59
39 44 32 33 26 26 30 31 33 37 38 41 41 41 43 45 45 46 46 47 50 52 55 57 56 56 57 58 58 58 58 59 59 59 61 62 63 63 63 62 63 62 62 63 61 61 60 59 58
39 39 41 41 37 28 28 29 40 39 39 38 40 42 42 44 45 46 46 48 51 54 54 54 54 54 54 55 56 56 57 57 58 58 59 60 60 61 61 61 60 61 63 62 60 59 57 57 56
45 43 43 29 31 33 29 29 44 44 42 42 41 42 43 44 44 45 48 48 50 52 52 52 53 52 52 54 55 55 56 56 56 56 57 58 57 58 59 61 60 60 59 59 59 57 57 56 55

GFSSGP_sfc_temp_093.txt.gz
Temp
70 69 65 60 47 43 40 47 53 57 59 66 70 67 66 66 65 56 72 77 76 75 77 78 78 78 78 78 78 78 78 78 79 79 80 80 79 79 79 80 80 80 79 79 80 79 79 79 78
66 70 61 54 41 35 39 51 53 59 65 69 69 70 66 63 70 69 71 77 77 76 77 77 78 78 78 78 78 77 78 78 78 79 79 79 79 79 80 80 80 79 79 79 79 78 78 78 77
69 70 53 47 41 37 40 53 57 63 67 68 65 69 69 65 71 70 73 79 77 76 77 77 78 78 78 78 77 77 78 78 78 78 78 78 79 79 80 79 79 78 78 78 77 77 76 76 75
61 58 55 44 39 46 50 56 61 62 67 69 68 62 69 73 72 74 77 79 75 75 76 76 77 77 77 77 77 77 78 78 78 78 78 78 78 79 79 79 77 77 77 77 77 76 75 75 75
59 53 41 39 42 48 55 59 61 60 61 65 67 62 64 71 75 76 76 77 75 73 74 76 77 77 77 77 76 77 77 78 77 78 78 78 79 78 78 77 77 77 77 77 76 76 75 75 75
50 50 37 36 42 51 54 60 60 59 61 63 67 61 60 70 73 74 74 72 74 72 74 76 76 76 76 76 76 76 76 77 77 77 77 77 78 78 78 78 78 79 78 76 76 75 75 75 75
46 42 37 39 43 47 54 61 56 58 59 62 64 59 61 66 70 71 69 68 69 71 71 72 74 74 74 74 75 75 76 75 76 76 76 76 76 77 78 78 79 77 76 76 75 75 75 75 75
50 50 40 39 41 45 57 60 62 59 60 69 67 58 57 65 69 67 66 65 66 67 67 67 69 70 69 71 73 73 74 73 75 75 74 72 73 75 78 75 76 77 75 75 75 75 74 74 73
55 39 35 40 44 48 58 56 61 63 58 61 65 64 66 69 69 67 65 65 66 65 65 67 66 67 69 69 71 72 72 72 71 71 70 70 73 76 75 73 73 74 73 74 74 74 73 72 71
45 36 40 50 50 50 56 54 55 56 55 56 60 66 69 68 67 65 63 62 65 64 64 65 65 65 67 70 67 68 69 68 68 68 70 71 74 75 76 71 71 73 72 72 74 73 72 69 64
46 39 48 51 54 56 53 53 57 52 50 54 54 60 64 65 64 64 64 64 65 66 65 65 65 65 65 65 65 65 67 65 67 67 69 69 72 72 71 70 72 71 67 67 68 67 65 63 63
42 49 51 51 54 53 50 54 52 53 53 58 59 61 62 63 63 62 62 62 63 64 65 64 65 64 64 65 65 64 65 68 64 68 70 67 70 70 68 68 69 70 65 64 64 63 63 64 65
42 46 51 52 52 52 54 50 50 51 56 59 61 62 60 62 62 64 64 64 63 63 64 63 63 63 63 64 64 64 65 68 70 68 70 69 67 69 69 68 66 65 64 63 63 63 64 65 66
45 46 47 49 49 50 48 48 49 51 56 58 60 59 60 62 62 61 62 63 63 65 62 62 62 63 64 63 64 63 64 66 71 71 71 72 71 70 69 68 67 66 66 66 66 65 65 66 67
46 39 42 45 47 46 50 42 44 51 55 55 57 59 59 61 63 62 63 62 64 65 65 63 62 63 64 64 64 64 65 67 66 70 71 70 71 70 69 68 67 68 68 67 67 67 67 66 68
38 37 29 42 46 47 45 33 46 53 52 52 55 56 58 59 62 65 64 63 63 63 65 65 67 63 64 64 64 65 65 66 66 67 67 71 72 71 67 67 68 69 68 67 66 65 65 64 65
31 22 29 36 47 46 43 38 47 53 52 51 53 53 56 57 60 63 65 63 63 62 64 63 63 62 63 63 64 65 66 66 66 67 68 69 71 71 69 66 67 68 67 66 66 64 65 64 65
24 25 32 31 41 43 40 40 47 50 50 50 52 51 54 56 58 62 62 63 62 61 61 61 63 63 63 64 64 64 66 66 67 66 67 70 71 71 70 67 67 67 66 65 66 66 65 65 66
33 30 29 35 42 39 37 38 43 48 48 47 48 51 52 56 60 57 58 61 60 59 60 61 61 62 63 62 62 62 63 65 66 67 68 70 70 71 69 68 68 68 68 68 68 67 66 64 66
34 30 30 36 42 40 36 35 41 45 47 48 49 48 48 53 53 56 55 55 58 58 59 61 61 62 63 63 63 63 64 64 67 68 69 70 72 70 70 68 68 67 67 68 68 66 64 65 65
31 28 31 32 37 39 35 31 36 44 47 49 52 53 51 51 52 54 55 54 54 55 57 59 62 62 63 63 63 62 63 64 65 67 68 69 70 70 70 66 67 65 65 64 64 65 64 62 63
30 40 39 35 33 22 36 21 33 38 42 46 50 52 49 50 51 52 53 56 55 54 56 58 60 62 63 63 62 61 60 60 62 62 63 65 70 67 65 65 65 65 64 63 63 63 62 62 60
35 42 37 36 33 31 31 27 29 38 38 43 46 50 51 48 48 50 52 58 58 56 54 58 60 60 61 62 63 61 60 61 61 61 61 62 62 64 67 66 64 63 63 63 63 62 61 61 60
43 36 34 35 33 21 31 25 27 34 39 43 47 49 47 47 47 47 52 54 54 55 53 56 57 58 60 60 61 61 60 60 60 60 60 60 61 61 62 63 63 63 63 62 62 62 62 62 61
41 34 26 23 22 22 33 28 30 38 42 46 50 49 46 45 46 46 49 50 51 52 52 56 55 55 57 59 59 60 60 60 60 59 59 60 60 60 61 61 61 62 63 62 61 61 61 61 61
38 35 29 22 25 27 32 29 33 42 46 47 48 46 46 45 46 46 48 49 50 52 53 54 54 54 55 55 55 57 60 60 59 58 59 60 61 61 62 62 61 62 63 62 61 61 60 60 60
39 34 39 32 33 27 30 33 38 41 41 44 44 44 43 44 44 45 46 47 49 50 51 53 55 54 54 55 55 54 56 60 59 60 59 59 61 61 61 61 61 62 62 61 61 60 60 60 60
40 43 29 30 25 26 29 30 31 33 34 39 40 41 42 44 44 45 46 46 48 49 50 52 54 53 54 55 55 55 55 57 57 58 59 61 62 62 62 61 61 61 61 61 61 60 60 59 59
37 35 36 36 32 26 24 28 37 34 37 38 40 41 41 42 43 44 44 46 47 50 52 53 52 51 52 53 54 54 55 56 57 56 57 57 59 59 59 60 61 61 61 61 61 60 60 59 59
41 38 38 27 28 28 29 29 41 40 41 41 40 41 42 43 43 44 45 46 49 49 49 49 49 48 50 51 52 52 53 53 53 53 54 55 54 55 56 57 58 59 60 60 60 60 59 58 57

GFSSGP_sfc_temp_096.txt.gz
Temp
67 66 63 59 46 42 37 44 49 52 55 60 64 61 62 65 63 55 69 74 74 74 76 77 78 78 78 78 78 78 78 78 79 79 80 80 79 79 79 79 79 80 79 79 79 79 79 78 77
64 68 59 52 39 35 37 46 50 54 59 63 65 66 63 63 68 67 68 74 75 75 76 76 78 78 78 78 78 77 78 78 78 79 79 79 79 79 79 79 79 79 79 79 79 79 79 77 76
66 68 53 46 38 35 38 48 52 58 62 62 61 68 65 63 69 69 70 75 76 75 76 76 77 78 78 78 77 77 78 78 78 78 78 78 79 79 80 79 78 78 78 77 78 78 77 76 76
59 57 53 41 37 43 45 50 54 57 61 62 63 60 68 72 72 73 74 75 73 73 74 76 77 77 77 77 77 77 78 78 78 78 78 78 78 79 79 78 77 77 76 77 77 77 75 75 75
57 51 40 37 39 44 49 54 56 56 57 60 60 60 62 70 73 73 74 74 71 72 73 75 77 77 77 76 76 77 77 77 78 78 78 78 78 78 78 77 76 76 76 77 76 75 75 75 75
48 48 36 34 39 46 50 53 54 54 57 60 60 57 60 67 69 69 72 71 72 72 73 75 76 76 76 76 76 76 76 77 77 77 77 78 78 78 77 76 76 76 76 76 76 75 75 75 75
44 41 35 35 39 43 50 55 52 54 54 57 62 57 60 64 65 67 67 68 69 71 71 72 74 74 74 74 74 75 76 76 76 76 76 76 76 76 77 76 77 78 78 76 75 75 75 75 75
47 44 36 36 38 41 52 55 57 55 54 63 62 54 56 65 65 65 65 65 66 66 67 69 70 71 71 71 73 73 74 73 74 75 74 73 73 74 76 75 76 76 76 75 74 74 74 74 74
52 38 33 38 41 44 53 50 55 58 54 57 58 56 62 67 65 64 63 63 65 66 66 66 66 67 68 69 70 72 72 71 71 71 70 69 71 75 75 72 73 75 74 74 74 74 73 72 71
44 35 38 47 46 45 51 50 52 52 51 53 55 61 64 65 63 62 63 62 62 65 65 66 64 64 66 68 66 67 68 67 67 68 68 68 70 75 75 71 71 74 73 73 74 73 72 69 63
44 37 45 48 51 52 49 50 52 50 47 51 51 56 59 61 59 61 62 62 62 64 65 65 66 65 64 65 63 63 64 65 67 67 66 67 70 71 70 71 73 71 68 67 68 67 64 62 62
39 46 48 49 52 49 47 51 48 50 51 56 55 58 58 58 58 59 62 62 62 62 64 65 65 65 65 65 63 63 63 65 66 67 69 66 66 67 69 70 70 70 68 65 64 63 62 62 62
40 43 48 49 49 49 51 47 46 48 54 56 57 59 56 57 58 59 62 62 63 62 62 64 64 65 63 63 63 62 63 65 67 66 67 68 66 65 67 66 68 70 68 65 62 62 61 61 62
42 43 44 46 46 47 46 46 46 48 53 55 56 56 55 57 58 60 60 61 62 63 61 61 62 62 63 63 62 62 63 65 66 67 67 68 67 66 66 66 66 66 67 66 63 61 61 62 63
43 37 40 43 44 44 47 41 42 51 52 52 54 56 57 57 58 58 60 61 61 62 61 61 62 64 63 63 63 62 62 64 64 66 68 67 67 67 67 68 67 68 68 66 62 62 63 63 64
36 35 28 40 43 45 43 32 44 51 49 48 51 54 56 55 57 58 60 61 62 61 61 62 66 64 63 62 62 62 62 63 65 65 66 67 68 67 68 67 68 69 68 66 64 63 62 62 62
29 22 27 33 44 43 40 34 44 49 49 48 50 51 53 55 55 58 59 61 61 61 62 62 63 64 64 63 62 62 63 63 64 65 66 68 69 70 69 67 67 68 65 65 66 62 63 61 62
23 23 29 30 38 41 37 36 44 47 47 45 47 49 50 53 54 57 58 60 61 60 61 61 62 62 62 62 62 62 63 64 65 65 66 68 71 71 69 68 68 68 66 66 65 64 63 63 63
31 28 26 34 40 37 36 37 41 45 45 45 43 45 48 51 55 54 58 59 59 58 59 60 60 61 61 61 61 61 62 63 64 66 68 68 68 69 68 69 68 67 68 68 68 64 63 63 64
32 29 29 35 40 37 35 34 40 43 43 46 46 43 44 49 49 54 55 56 57 57 59 59 60 61 61 61 60 61 63 63 65 65 68 69 68 68 68 68 68 68 67 66 66 66 62 63 62
28 24 29 29 38 40 36 32 35 42 44 46 48 48 47 48 51 52 53 53 54 55 57 58 59 60 60 61 60 60 61 62 61 63 63 67 68 68 68 67 67 65 66 65 64 64 63 62 61
28 37 37 35 33 27 35 22 32 36 38 42 44 45 46 47 47 49 52 52 53 53 56 60 60 61 60 60 60 59 59 59 61 61 63 64 67 67 66 67 67 66 66 65 65 65 64 62 60
32 41 38 37 33 30 31 25 28 37 36 39 43 45 45 46 47 51 53 53 56 56 55 57 57 59 61 62 62 60 60 60 61 61 62 62 62 65 65 65 63 62 61 62 62 61 61 62 61
43 38 36 35 33 18 29 24 26 31 37 39 45 48 47 47 47 48 52 54 53 55 55 56 58 58 60 60 60 61 59 59 60 60 60 60 61 61 64 64 63 64 62 62 61 61 60 61 60
38 33 24 17 23 21 33 24 26 38 42 42 43 45 46 46 47 48 48 50 51 52 54 56 54 54 57 57 58 59 60 60 60 61 60 59 60 60 60 61 62 62 62 62 62 61 61 61 61
36 35 28 21 24 26 32 26 33 41 45 46 46 45 45 45 46 46 47 48 49 50 52 54 54 53 55 54 54 56 57 60 59 59 60 60 60 60 61 61 61 61 62 62 62 61 61 61 61
38 34 39 31 32 23 29 33 37 42 40 43 43 43 43 44 45 45 46 47 48 49 50 52 52 52 53 53 54 53 55 57 59 59 59 59 60 60 60 60 60 61 61 62 62 61 60 60 60
40 42 31 31 21 25 29 30 30 33 33 40 40 41 42 44 44 44 44 44 46 47 47 48 50 51 51 52 52 52 52 54 55 57 57 58 59 60 60 60 60 60 61 61 61 60 60 59 59
37 34 35 35 33 26 24 28 35 34 35 37 40 41 41 42 43 43 43 44 45 46 46 47 48 49 50 52 52 51 50 52 53 54 54 54 56 57 57 58 59 60 60 60 60 60 60 59 59
39 37 34 26 28 28 26 29 39 39 39 40 41 41 42 42 42 43 43 44 44 44 46 48 49 49 49 50 50 50 51 51 51 51 52 53 53 54 53 54 56 58 59 60 60 60 60 59 58

GFSSGP_sfc_temp_099.txt.gz
Temp
65 64 61 58 46 41 36 42 46 49 50 55 60 58 59 62 61 54 68 71 72 73 75 77 78 78 79 79 78 78 78 78 78 79 80 80 79 79 79 79 79 80 80 80 80 79 78 78 77
62 65 58 50 38 33 36 43 47 51 56 59 61 63 58 61 66 66 66 72 74 74 75 75 78 78 78 78 78 78 78 78 78 79 79 79 78 79 79 79 79 79 79 78 79 78 77 77 76
65 65 52 44 37 34 38 45 47 54 58 58 58 61 62 62 68 67 68 73 74 73 74 75 77 78 78 78 77 78 78 78 78 78 78 78 79 79 79 79 79 77 77 78 78 78 76 76 76
59 56 51 40 35 41 42 45 51 53 58 59 58 57 66 70 68 70 72 73 72 71 72 75 77 77 77 77 77 77 78 78 78 78 78 78 78 79 79 78 76 76 76 77 77 77 75 75 76
56 50 39 35 37 42 46 52 53 51 53 55 57 56 59 68 70 71 70 73 71 70 72 74 77 77 77 76 76 77 77 78 78 78 78 78 78 79 78 76 76 76 76 77 77 76 75 75 75
47 47 35 32 36 44 48 50 51 51 53 56 55 55 58 65 66 68 69 68 71 70 72 74 75 76 76 76 76 76 77 77 77 77 77 78 78 78 77 76 76 76 76 76 76 75 75 75 75
44 40 34 33 37 41 47 52 48 49 50 52 56 51 58 62 64 66 67 68 67 69 70 71 73 73 74 74 75 75 76 76 76 76 76 76 75 76 77 75 76 76 76 76 75 75 75 75 75
46 42 36 36 37 40 49 52 53 52 50 58 56 49 50 60 66 66 66 67 67 68 68 68 69 70 70 70 73 73 74 74 74 74 73 73 72 74 75 74 75 76 75 75 74 74 74 74 74
50 37 32 36 39 42 49 47 53 56 50 53 55 53 59 62 64 63 64 65 65 66 67 67 67 68 69 69 70 72 72 72 72 71 70 70 70 72 72 73 72 74 75 74 74 74 73 72 71
42 34 37 44 44 43 48 46 48 48 49 49 53 59 61 61 59 58 59 61 62 64 66 65 65 66 68 69 67 67 68 66 67 68 68 68 69 72 75 70 71 73 73 73 74 73 72 69 62
41 36 42 46 50 50 47 47 50 46 44 49 49 54 57 58 57 56 57 60 61 63 65 66 64 64 65 65 64 64 65 65 66 66 66 66 68 69 72 72 72 71 69 70 70 69 65 62 61
37 44 45 47 49 47 45 48 46 48 46 54 52 55 55 56 55 56 56 58 60 62 64 66 64 64 65 66 65 63 64 64 65 66 66 66 65 67 67 70 70 70 68 67 66 64 62 61 60
38 41 45 46 46 46 48 44 44 46 50 53 53 55 54 55 56 56 57 59 60 61 62 65 65 63 64 64 64 63 62 62 64 65 67 67 66 65 66 67 66 69 67 67 64 63 61 60 60
39 41 42 44 44 45 44 45 45 46 50 52 53 53 53 54 57 56 57 57 59 61 62 62 64 64 64 64 64 64 64 63 63 63 66 67 67 67 66 66 65 66 68 66 65 64 62 59 59
42 36 39 41 42 42 45 39 39 49 49 48 50 53 54 54 56 56 57 57 58 59 62 60 62 63 63 64 63 63 63 63 63 64 65 67 67 67 67 65 65 65 66 65 64 63 63 60 60
34 33 28 39 42 44 42 33 42 48 47 46 48 50 52 52 54 56 57 57 58 58 60 61 65 62 62 62 63 62 64 63 63 62 64 66 67 67 66 66 65 66 65 66 64 62 62 60 59
29 22 26 32 42 41 39 33 42 47 47 46 49 48 50 50 52 55 57 57 57 58 60 60 61 61 61 61 62 61 61 61 61 63 63 64 66 68 67 66 67 68 66 65 65 63 62 60 60
22 22 28 28 37 39 36 36 43 47 45 44 45 46 45 48 50 54 55 56 56 58 59 60 61 61 61 61 63 61 61 61 62 62 63 64 67 67 67 68 68 67 66 65 64 64 62 61 63
29 26 25 32 39 35 34 35 40 44 44 43 44 44 47 47 51 51 53 54 55 56 58 60 60 60 60 59 61 62 61 61 61 63 65 65 66 68 68 68 67 67 66 66 65 65 62 62 62
29 26 28 33 39 39 36 36 41 43 43 44 44 43 44 44 46 50 52 53 55 56 57 59 61 60 60 60 60 61 61 63 61 63 65 67 66 66 66 66 66 65 65 66 66 65 62 64 62
28 25 27 28 38 41 36 31 34 41 42 43 45 45 44 44 46 48 51 52 55 56 57 58 59 60 60 60 60 59 59 60 60 62 63 65 66 66 65 65 65 64 65 64 64 64 65 63 60
26 35 34 33 33 29 38 23 30 35 37 41 41 41 42 44 46 48 52 53 54 55 58 60 60 60 60 60 60 59 58 58 59 62 63 64 65 65 65 65 65 64 64 63 63 63 64 63 60
32 39 36 36 34 32 31 24 27 37 37 41 40 41 42 46 48 51 52 55 54 54 54 55 57 60 60 61 59 60 60 61 59 59 60 62 63 63 64 63 63 63 62 63 62 62 62 62 60
42 35 35 35 32 19 27 28 27 34 37 41 45 43 46 47 48 49 50 53 53 54 52 55 55 55 57 58 58 60 60 60 60 60 60 60 62 62 63 63 63 62 61 60 60 60 60 61 60
37 33 22 19 17 20 32 26 26 39 41 43 43 44 45 46 47 47 47 48 50 52 52 55 53 51 54 55 56 56 56 58 60 60 60 60 61 60 61 62 62 62 62 61 61 60 60 60 60
34 36 28 21 17 25 32 24 33 42 44 45 45 45 45 45 46 46 46 47 47 48 50 52 52 52 51 52 54 55 55 57 60 59 60 61 60 61 61 62 62 62 62 62 60 60 60 60 60
35 33 40 32 31 28 29 33 39 40 39 43 42 43 43 44 44 43 44 45 45 46 47 48 50 51 51 52 53 52 53 54 54 56 58 58 59 60 60 60 60 60 61 61 60 60 60 60 60
38 41 31 30 23 23 29 30 29 33 33 39 40 41 42 43 43 43 43 44 45 45 46 47 48 48 50 51 51 50 50 51 52 53 52 54 55 57 59 59 59 59 60 60 60 60 60 60 60
35 33 34 33 31 26 24 28 36 34 35 36 39 40 41 41 42 42 43 44 44 45 45 45 46 47 48 49 50 50 50 50 50 50 50 51 53 54 54 55 57 58 59 60 60 60 60 59 59
38 35 33 24 26 27 28 30 41 39 39 39 38 40 41 42 42 43 43 43 43 43 44 44 45 47 48 49 48 48 49 49 49 49 49 50 50 52 52 53 54 55 56 58 59 59 59 59 58

GFSSGP_sfc_temp_102.txt.gz
Temp
64 63 60 57 46 40 35 41 43 47 48 53 56 55 56 58 59 52 67 69 70 72 74 76 79 79 79 79 78 78 78 78 79 80 80 80 79 79 79 79 79 80 80 80 80 79 79 78 77
61 64 58 49 38 34 38 41 44 48 53 56 57 57 54 58 64 66 65 70 72 73 74 74 78 78 78 78 77 78 78 78 78 79 80 80 79 79 79 79 79 80 79 78 78 78 77 77 76
63 64 52 43 36 35 37 42 44 52 56 54 56 57 58 61 67 65 69 71 72 71 72 74 77 78 78 77 78 78 78 78 78 78 79 78 79 79 79 79 79 78 77 77 77 77 76 76 76
58 56 50 39 35 39 40 43 49 52 56 56 55 53 62 65 63 67 70 71 70 70 71 74 77 77 77 77 77 78 78 78 78 78 78 78 78 79 79 78 77 76 76 77 77 76 76 75 76
54 49 38 34 35 41 44 48 50 49 49 53 53 53 55 63 66 68 69 71 69 69 71 73 76 77 77 77 77 77 78 78 78 78 78 78 78 78 79 76 76 76 77 77 77 76 75 75 75
46 45 34 32 34 42 46 48 48 48 49 53 52 50 53 61 62 65 68 68 69 69 71 72 75 76 76 76 76 76 77 77 77 77 77 78 78 78 78 76 76 76 76 77 76 76 75 75 75
44 39 33 32 35 40 45 50 45 45 47 49 52 47 54 58 62 64 67 67 67 69 70 71 72 73 74 74 75 75 76 76 76 76 76 76 75 76 77 76 76 76 76 76 75 75 75 75 75
46 43 35 33 34 39 46 50 50 48 47 55 53 47 48 57 60 61 65 67 67 67 68 69 70 70 71 71 72 73 74 74 75 74 74 72 72 73 75 74 74 75 75 75 74 74 75 75 74
49 37 32 36 37 41 47 46 51 53 48 50 53 51 56 60 61 59 59 62 65 66 66 67 68 69 69 70 70 72 72 72 72 71 70 70 69 71 72 71 72 74 74 74 74 74 74 72 71
42 34 36 43 43 42 46 44 46 47 46 46 51 57 58 58 56 55 55 55 59 63 66 66 66 67 68 69 68 67 68 67 67 68 68 68 68 69 72 69 70 73 73 73 74 73 72 69 63
40 36 41 44 47 47 45 44 47 43 41 46 47 51 54 55 55 54 55 56 57 61 63 66 65 65 67 66 65 65 65 65 66 66 66 66 67 67 67 68 71 70 68 69 71 68 64 61 60
36 42 43 45 46 44 43 46 44 45 44 53 51 52 52 53 53 53 54 55 56 58 62 64 66 65 66 66 65 64 64 64 64 65 66 65 64 64 65 69 68 69 68 68 68 65 64 61 59
37 38 43 44 44 44 46 42 42 43 50 52 51 52 50 52 53 55 55 56 56 57 61 64 67 65 65 65 65 64 64 64 65 65 65 65 64 64 66 66 66 68 66 66 66 65 62 60 59
37 40 40 43 43 43 42 42 43 43 48 49 51 51 49 51 54 55 54 54 56 58 59 61 65 65 64 65 65 64 64 64 64 64 65 65 65 64 64 64 66 66 67 65 65 65 62 61 58
39 35 38 39 40 41 43 37 37 46 47 46 48 50 50 50 52 54 57 55 55 56 58 60 63 66 63 62 63 64 65 65 64 64 64 65 65 64 64 64 64 64 66 66 64 64 62 60 60
33 32 30 39 40 43 42 33 41 46 45 46 47 49 49 50 51 54 56 55 55 55 56 59 64 64 64 62 62 62 63 62 63 64 64 65 65 64 64 64 64 64 65 65 64 64 62 60 60
28 23 26 32 41 40 37 34 41 45 45 44 47 48 50 51 49 52 54 55 56 58 56 58 60 60 62 61 61 62 62 62 62 62 62 63 65 65 65 64 64 65 65 65 64 62 63 60 60
22 21 27 27 36 37 35 35 42 46 45 44 46 47 47 48 48 51 53 55 55 56 57 57 59 60 60 60 60 60 60 60 60 60 62 62 64 66 65 63 63 63 63 64 64 64 61 62 63
27 24 24 30 38 34 33 34 39 44 44 42 43 44 45 47 50 49 50 51 51 53 56 56 58 59 59 60 61 61 60 59 59 60 62 63 63 64 65 65 63 64 63 65 65 64 62 59 61
28 24 25 31 37 37 36 36 41 43 41 42 42 42 42 43 44 48 48 49 49 51 54 57 59 60 60 59 59 60 59 60 60 61 62 63 63 63 64 65 64 65 64 65 64 65 63 63 62
25 23 25 26 37 40 37 31 34 40 41 43 44 42 42 42 43 45 48 49 50 52 54 56 58 59 60 59 59 59 59 60 59 60 61 62 63 64 65 65 65 63 64 65 63 63 63 62 61
25 33 33 33 31 27 38 24 29 34 37 43 44 40 39 40 42 44 49 51 54 57 59 58 58 59 59 61 60 59 58 58 58 59 60 61 63 64 64 64 64 64 63 62 63 63 63 63 59
32 37 35 36 32 31 29 26 27 34 38 40 43 42 45 48 48 47 52 54 54 55 54 56 59 58 60 61 61 60 59 60 60 59 58 59 60 62 63 64 64 63 63 63 63 62 61 62 62
40 35 36 35 32 19 27 26 26 33 37 41 44 45 46 47 47 48 49 51 52 54 53 52 55 55 55 59 58 57 57 59 60 59 59 61 60 61 62 63 63 63 63 63 62 62 62 62 61
37 32 20 16 14 19 30 25 29 38 40 42 43 44 45 46 46 46 46 46 48 49 51 54 51 51 53 53 55 55 55 56 58 60 60 60 60 61 61 62 62 62 63 62 62 61 60 60 60
36 36 28 18 15 22 30 21 31 39 42 45 45 44 44 44 44 44 44 45 45 47 48 50 51 50 52 53 53 53 54 54 55 55 58 59 59 60 62 62 62 62 62 62 61 60 60 60 60
34 32 40 31 31 26 25 33 39 41 39 41 42 43 41 42 43 43 44 44 45 45 45 47 48 50 50 51 51 51 51 51 52 53 53 54 55 56 57 60 60 60 61 62 61 61 59 60 60
36 38 27 31 18 17 24 27 30 33 34 38 38 39 40 42 42 43 43 44 44 45 45 47 47 47 48 49 50 50 49 50 50 50 50 51 52 53 53 54 56 58 59 60 60 60 60 59 60
33 31 33 32 28 24 23 24 37 35 36 36 38 39 38 41 42 42 43 44 44 45 45 45 46 46 46 48 49 48 48 48 48 48 48 49 50 51 51 52 53 54 55 56 58 59 59 59 59
35 32 31 23 24 26 26 26 41 41 40 38 37 39 39 42 42 43 43 43 43 43 44 43 44 45 47 47 47 47 47 47 47 46 47 48 47 49 49 50 50 51 52 53 54 54 56 58 58

GFSSGP_sfc_temp_105.txt.gz
Temp
67 68 68 64 55 51 46 49 54 54 57 62 62 62 63 65 65 61 75 75 76 77 80 81 79 79 79 79 78 78 78 78 79 80 80 79 79 79 79 79 79 80 80 80 80 80 80 79 78
67 68 65 57 49 47 48 49 51 55 60 62 63 64 63 64 70 72 73 76 75 78 80 81 78 79 79 78 78 78 78 78 79 80 80 79 79 79 79 79 79 80 80 79 79 78 78 77 77
68 66 59 51 45 46 47 50 53 58 60 61 63 66 65 60 68 68 73 76 76 77 79 80 78 78 78 78 78 78 78 78 78 79 80 79 79 79 80 79 79 79 77 77 78 77 77 76 76
64 62 56 48 44 47 49 53 55 57 61 62 61 61 65 68 65 69 71 75 75 76 79 78 77 77 77 78 78 78 78 78 78 78 78 78 79 80 79 79 77 76 76 76 77 76 76 76 76
60 55 45 42 43 47 51 54 56 56 57 59 60 60 61 68 69 70 69 72 74 75 77 79 77 77 77 77 77 77 77 77 78 78 78 78 78 78 79 78 76 76 76 77 76 76 76 75 75
51 52 42 41 42 47 51 54 56 55 56 59 58 57 61 67 65 65 68 69 71 74 76 78 76 76 76 76 76 76 77 77 77 77 78 78 78 78 78 76 76 76 77 77 76 76 76 75 75
49 45 40 40 41 45 50 55 53 53 54 57 59 56 63 65 66 65 68 71 70 72 75 77 78 77 74 75 75 75 76 76 76 76 76 76 76 76 77 76 76 76 76 76 76 75 75 75 75
50 47 40 41 41 44 50 53 56 54 54 61 61 56 58 64 65 65 67 68 70 69 70 74 75 77 77 77 73 74 74 74 75 74 74 73 73 73 75 74 74 75 75 75 75 75 75 75 74
53 42 38 41 41 46 51 50 55 57 55 56 60 60 64 65 64 64 63 64 65 68 70 70 71 75 76 76 75 72 72 72 72 73 71 71 78 78 78 74 72 74 74 74 74 74 74 73 71
46 40 41 46 48 47 50 49 51 52 51 52 56 61 64 63 61 60 60 59 62 64 66 70 69 70 74 74 74 74 74 75 76 76 76 76 76 78 78 73 70 72 73 73 74 74 73 71 77
45 41 44 47 50 49 47 48 52 49 47 52 54 57 60 60 60 59 61 61 61 64 65 68 70 68 70 72 72 70 69 71 73 74 74 75 74 75 77 77 77 78 71 74 75 74 75 72 75
43 45 45 47 48 46 45 49 47 49 52 58 57 58 56 57 58 58 59 61 63 62 64 67 69 68 68 70 69 69 67 70 70 72 74 72 72 72 73 76 76 77 76 72 76 75 74 69 73
42 41 45 46 45 45 47 44 45 47 53 55 55 55 54 55 56 60 59 61 61 62 64 65 68 68 66 67 67 66 66 67 71 71 71 72 71 70 71 70 71 74 74 75 74 72 71 73 72
42 42 42 44 44 45 43 44 46 50 52 51 52 53 54 55 57 58 58 58 60 62 63 65 67 69 66 66 66 68 65 66 66 67 70 72 71 68 70 71 69 70 69 71 71 73 72 71 72
42 40 41 43 44 43 45 39 40 50 50 49 51 53 54 55 56 56 59 59 61 61 63 64 66 68 67 65 66 68 66 65 65 65 68 70 71 71 70 69 70 71 71 69 67 70 68 71 71
36 37 36 42 42 44 45 38 46 51 48 48 50 52 53 54 56 59 59 59 61 60 62 64 67 68 68 66 66 67 65 66 65 65 67 68 71 72 71 70 70 71 71 71 69 65 65 65 70
33 33 32 36 43 42 42 39 45 50 49 47 50 51 52 53 55 57 58 60 61 60 61 62 63 65 66 66 65 66 66 66 66 66 67 70 71 71 71 70 70 71 70 70 69 66 65 63 62
31 30 31 31 39 40 37 37 44 48 48 47 48 49 51 52 52 56 57 58 58 58 60 62 62 64 65 64 63 63 64 65 65 66 66 68 70 70 70 68 68 69 67 67 67 66 63 62 63
31 29 28 32 39 35 35 36 41 46 46 47 48 49 50 50 53 53 54 55 56 56 56 59 61 64 62 61 62 62 62 63 64 65 66 68 67 69 69 67 66 67 66 67 67 67 64 61 62
31 27 27 34 37 38 38 37 43 44 44 46 46 47 46 47 48 50 52 53 53 54 56 57 60 61 62 63 63 64 64 65 65 65 66 66 67 68 68 67 66 66 66 67 68 68 67 63 61
28 26 28 31 36 40 37 35 37 43 44 46 48 47 46 45 46 48 49 51 52 53 55 57 61 62 61 63 63 62 63 63 63 63 64 65 67 67 67 68 68 67 66 66 65 65 65 64 62
26 34 34 33 32 29 39 26 34 39 39 44 47 46 47 49 50 50 51 53 53 55 57 59 61 62 62 62 62 61 60 59 62 63 64 65 66 66 67 67 67 67 66 65 64 64 63 63 60
35 38 36 36 32 32 31 28 34 37 38 41 46 46 48 48 49 49 49 51 53 55 57 60 60 61 61 61 62 61 59 61 62 63 63 64 64 66 66 66 66 66 66 66 65 62 62 62 61
40 37 37 36 32 23 26 29 32 34 36 39 45 47 47 47 47 47 48 49 50 52 54 54 56 56 57 58 58 57 57 57 60 61 61 62 63 64 64 65 65 66 65 65 64 64 63 62 62
38 34 26 20 18 23 30 28 31 38 39 41 43 43 44 45 45 44 45 46 47 48 50 52 52 52 55 55 55 55 55 55 55 55 59 60 62 62 62 63 63 63 65 65 64 63 63 62 61
37 36 28 21 19 24 32 25 33 40 41 42 44 43 44 43 44 43 44 44 45 46 48 49 50 50 51 52 52 52 53 52 52 52 53 53 53 54 57 57 60 61 62 63 63 62 62 62 61
37 33 40 31 31 26 27 32 40 44 39 39 40 40 40 42 43 43 44 44 44 45 45 47 48 49 50 50 50 50 50 50 49 49 50 51 52 54 54 55 56 56 58 59 61 61 60 61 60
38 40 29 31 23 20 25 27 31 35 35 38 37 37 38 42 43 43 43 43 44 45 45 46 47 47 48 49 49 49 49 49 48 48 48 49 50 50 51 52 53 53 54 54 56 58 60 59 60
34 32 34 34 31 24 23 28 39 36 38 37 37 37 38 41 42 43 43 43 44 44 44 45 45 46 46 47 46 47 47 48 47 46 46 47 48 48 49 50 50 51 51 52 52 54 54 55 58
37 35 33 27 26 28 27 28 41 41 40 39 38 39 40 43 43 43 43 43 42 42 43 43 43 45 45 45 46 45 46 47 46 46 47 47 47 49 49 50 50 50 50 51 50 51 52 51 52

GFSSGP_sfc_temp_108.txt.gz
Temp
75 80 84 80 66 66 63 60 66 63 65 71 72 70 71 74 71 67 84 82 84 84 86 85 79 79 79 79 79 78 79 79 79 80 80 78 79 79 79 79 79 80 80 81 81 80 80 79 79
79 78 81 75 63 61 61 62 61 64 68 72 72 72 71 70 76 77 81 81 83 84 87 85 79 79 79 78 78 78 79 79 79 80 80 79 79 79 79 79 79 80 80 79 80 79 78 78 77
77 77 72 68 65 62 60 61 63 66 69 70 70 74 72 67 74 76 81 78 82 84 87 85 78 78 78 78 78 78 79 79 78 79 79 79 79 79 79 79 79 79 78 77 78 77 77 77 76
78 76 72 62 59 58 61 63 64 66 69 71 70 68 70 73 72 76 79 75 79 84 86 82 78 78 77 77 78 78 79 79 79 79 79 79 79 80 79 79 78 78 76 77 77 77 76 76 76
78 72 62 58 57 59 62 63 64 64 66 68 69 67 69 73 77 78 77 74 73 80 85 86 77 78 77 77 77 77 77 77 78 78 79 79 78 79 78 77 77 76 76 76 77 76 76 76 76
66 68 59 57 57 58 61 63 64 64 66 67 67 67 70 75 74 74 76 77 73 74 83 85 77 77 77 77 77 77 77 77 77 77 78 78 78 78 77 77 77 76 76 76 77 76 76 75 76
63 62 57 56 56 57 59 64 63 63 64 66 68 64 72 73 76 75 76 77 77 73 78 84 84 81 73 75 75 76 76 77 77 76 76 76 76 76 77 77 76 76 76 75 76 76 76 75 76
67 65 54 55 56 54 58 61 63 62 63 69 70 65 67 75 77 76 77 75 76 77 75 76 82 83 84 85 74 74 74 75 75 75 74 73 73 74 75 74 74 75 75 75 75 75 75 75 74
63 58 54 53 53 55 59 57 61 64 62 66 69 69 74 77 74 74 74 74 75 75 76 77 75 79 83 84 81 74 72 73 72 74 71 72 83 84 82 76 73 73 74 74 74 75 74 73 72
59 56 54 57 58 56 57 57 59 59 62 63 66 71 74 74 73 70 70 70 71 73 74 75 76 75 78 81 81 82 83 84 84 83 83 83 84 85 83 76 70 73 73 73 74 74 73 72 82
55 54 54 55 56 56 55 57 59 57 58 65 65 69 71 70 70 69 71 73 72 73 73 74 76 76 71 77 78 78 74 74 79 84 82 83 83 83 83 83 80 77 71 79 77 77 79 78 83
51 52 54 54 54 54 53 57 55 58 62 68 68 68 67 66 67 67 69 72 73 73 72 74 75 76 72 70 75 76 75 76 73 79 83 81 81 80 82 83 81 79 77 78 80 81 80 81 81
51 51 52 54 53 53 55 52 54 57 65 68 66 64 64 65 66 69 69 71 71 71 73 74 75 75 76 70 69 73 76 71 71 77 80 82 80 79 81 80 79 80 78 77 76 79 81 80 77
51 50 52 52 52 52 49 53 51 62 62 61 62 63 65 66 67 68 68 68 70 72 72 74 75 76 76 74 69 69 75 74 68 68 73 79 79 79 78 78 77 80 78 76 75 73 73 74 81
50 49 51 51 51 51 52 52 49 61 61 60 62 63 63 64 66 66 68 68 71 72 74 73 74 77 76 75 72 68 73 74 71 67 68 69 80 78 78 77 78 78 78 71 71 72 70 75 76
49 50 50 50 51 50 51 51 59 61 59 59 60 62 62 64 66 68 68 68 71 71 72 73 75 75 77 77 73 68 72 75 72 70 66 67 70 75 77 79 78 78 79 77 76 74 69 69 67
50 49 46 49 50 49 49 49 58 61 59 57 59 62 63 64 66 67 67 68 69 70 70 71 71 72 74 77 76 69 69 74 75 73 67 68 69 74 77 78 78 79 75 74 73 73 72 68 67
44 45 44 44 49 48 47 48 55 59 57 56 59 62 63 62 62 63 63 65 66 68 68 69 70 71 72 74 72 67 65 67 71 73 73 71 72 74 75 77 77 76 71 72 72 71 70 70 70
42 40 40 48 48 44 47 49 53 56 56 56 58 59 60 59 61 62 62 63 63 64 64 66 67 69 70 69 64 63 63 66 65 67 71 69 65 69 73 74 73 69 67 70 69 67 67 65 69
40 39 43 46 46 46 48 46 52 52 53 55 55 56 56 57 57 59 60 61 62 63 64 65 67 67 66 68 64 67 67 65 69 72 72 72 71 73 72 72 72 72 66 67 67 68 66 67 70
39 36 39 38 44 51 45 47 47 51 54 55 58 57 56 55 52 57 58 60 62 62 63 64 66 67 65 70 65 65 68 69 68 69 71 71 72 71 72 72 72 70 69 65 68 71 70 69 71
35 43 41 39 38 35 46 35 48 49 50 53 54 52 51 53 54 55 56 54 56 58 62 65 66 67 67 69 66 63 66 65 66 68 70 71 72 72 71 70 70 71 69 69 70 71 70 68 65
41 43 42 40 36 35 38 32 46 47 47 47 52 49 49 48 49 48 52 50 53 53 58 64 67 67 65 64 61 63 62 63 64 64 63 68 70 71 71 71 69 68 69 69 70 68 68 67 63
46 41 40 39 36 29 36 35 44 45 40 42 47 46 46 46 46 47 49 50 49 51 53 56 57 57 59 57 57 58 58 59 59 59 61 63 64 68 68 68 68 69 69 69 69 67 66 66 63
41 39 32 31 29 34 36 31 40 46 42 42 41 43 45 45 45 44 45 45 46 48 49 51 52 52 54 55 54 56 55 55 53 53 55 55 54 55 56 58 60 62 64 67 67 65 64 64 63
44 42 32 25 31 34 36 29 43 46 46 45 44 42 43 44 44 43 44 44 45 46 50 51 50 50 51 52 53 54 55 54 52 52 52 51 52 53 54 55 56 57 58 59 59 61 63 64 62
42 37 42 32 35 30 39 39 47 48 46 43 42 40 39 43 43 43 44 44 45 45 45 49 51 50 51 52 51 51 52 50 49 50 50 50 50 53 52 53 53 54 55 55 57 57 57 60 61
45 45 35 36 27 28 37 37 38 39 38 41 40 38 39 43 44 44 43 43 45 46 46 46 49 48 48 49 50 50 49 50 49 48 48 48 49 50 50 50 51 51 52 53 53 53 54 54 55
40 40 40 41 38 31 33 39 44 40 41 39 39 39 39 42 43 43 43 44 43 45 45 45 45 46 47 47 48 49 47 48 50 51 47 47 49 50 50 50 50 50 50 51 51 51 52 51 52
46 44 44 38 33 38 36 37 48 45 43 42 40 40 42 44 43 43 43 43 42 42 43 42 45 46 45 46 47 44 46 48 48 48 49 50 49 50 51 52 52 53 52 53 51 50 52 50 50

GFSSGP_sfc_temp_111.txt.gz
Temp
77 85 88 82 68 69 67 67 73 69 70 76 77 75 75 77 74 67 86 85 84 83 84 82 79 79 79 79 79 79 79 79 79 80 80 79 79 79 79 79 79 80 80 80 80 79 79 79 78
84 84 83 78 64 62 67 70 67 70 73 76 76 75 74 73 80 80 82 84 84 85 85 82 79 79 78 78 78 78 79 79 79 79 79 79 79 79 79 79 79 79 80 80 80 79 79 78 77
81 83 75 70 68 64 64 68 70 71 74 74 73 78 76 70 77 78 82 83 83 85 87 83 79 79 78 78 78 78 78 79 79 79 79 79 78 79 79 79 79 79 78 77 78 78 77 77 76
80 78 76 65 65 65 67 69 69 70 73 75 75 72 74 76 74 79 82 81 81 81 86 78 78 78 78 78 78 78 79 79 78 78 79 79 79 79 79 79 78 78 77 77 77 77 76 76 76
81 76 65 63 65 65 69 70 69 69 70 72 73 72 73 76 80 80 80 81 76 79 80 86 78 78 78 77 77 77 78 78 78 78 79 79 79 79 79 77 77 77 76 76 77 77 76 75 76
69 72 62 61 64 65 67 69 69 69 70 72 71 71 74 79 78 77 79 80 79 75 78 84 78 77 78 77 77 77 77 78 78 78 78 78 78 77 78 77 77 77 77 76 76 76 76 76 76
67 65 64 65 63 62 64 69 68 68 69 70 72 67 76 77 80 79 80 80 79 79 78 79 80 81 75 76 76 76 77 77 77 77 77 77 76 76 77 76 76 76 77 76 76 76 76 75 75
69 66 60 63 61 59 63 66 67 67 68 74 74 68 70 80 82 79 80 79 79 79 78 79 78 78 82 86 74 74 75 75 76 75 74 74 73 74 75 75 74 75 75 75 75 75 75 75 75
68 60 59 59 60 60 64 63 67 69 67 71 74 74 78 81 80 77 76 77 78 78 79 79 78 80 79 81 81 74 73 73 73 73 71 73 80 83 81 77 74 74 74 75 75 74 74 73 72
64 60 60 63 63 62 62 61 64 63 67 68 71 77 78 78 76 73 73 73 75 76 77 78 78 77 79 80 79 83 84 83 82 83 83 82 83 85 83 77 72 73 73 73 74 74 73 72 79
62 59 60 60 61 60 60 61 63 62 62 69 67 70 73 73 72 71 73 75 75 77 77 77 77 77 78 76 75 76 81 81 84 85 85 84 85 80 83 84 80 77 71 76 76 76 77 78 81
56 59 60 58 58 58 58 61 60 63 65 72 71 71 70 70 70 70 71 73 75 74 75 76 77 76 77 76 74 73 74 78 78 79 80 83 82 82 80 82 83 78 78 76 76 75 79 80 80
57 57 58 59 57 58 60 57 59 61 68 71 69 68 68 69 71 73 73 74 74 74 75 76 77 76 76 77 74 74 73 76 79 80 81 83 80 80 79 82 81 79 78 77 75 75 74 80 81
58 56 57 57 57 57 54 58 56 65 66 66 67 68 69 69 70 71 71 72 73 74 75 77 77 77 77 76 77 74 74 77 78 79 78 76 72 72 73 76 76 76 77 77 77 77 76 75 78
57 53 55 55 56 55 56 54 54 65 66 64 67 68 68 69 70 70 72 71 73 74 75 76 77 77 77 76 77 78 74 72 76 78 77 75 71 71 74 74 75 76 77 76 76 75 73 71 70
54 54 52 55 55 54 54 52 64 66 65 63 65 66 67 69 70 72 72 71 73 73 73 75 76 77 76 77 78 78 74 73 75 77 77 73 74 74 71 71 75 75 75 76 75 73 67 68 66
55 52 52 51 55 53 53 53 63 67 65 63 64 65 67 68 69 69 69 70 70 71 71 72 73 73 74 75 77 79 75 74 75 76 73 73 69 70 69 67 70 73 74 75 74 72 72 70 69
50 51 51 50 54 52 51 52 60 64 64 62 63 66 66 66 65 66 66 68 69 69 69 70 71 71 72 73 74 75 68 70 73 77 76 75 71 71 70 67 66 69 72 74 71 71 71 69 69
49 48 48 54 53 48 52 53 57 62 60 60 61 62 63 63 65 64 65 66 66 68 67 67 67 69 70 70 69 70 64 64 67 75 77 75 75 75 73 70 71 71 71 71 72 70 67 66 68
46 45 48 51 50 50 51 50 58 57 57 58 59 60 59 58 60 60 62 63 62 63 66 66 67 68 70 69 70 69 65 64 65 66 69 74 74 73 72 71 69 72 69 69 69 67 66 66 65
45 41 44 41 48 54 49 51 51 56 57 59 62 61 56 53 52 56 56 55 57 57 60 63 66 68 69 70 68 67 66 64 63 66 69 70 72 72 72 72 70 68 69 67 67 66 64 62 67
40 47 45 44 41 38 50 39 54 56 55 57 57 56 49 50 54 54 52 51 53 53 57 60 65 68 69 69 66 65 61 62 66 67 68 69 70 70 69 71 71 69 68 66 67 68 67 66 64
44 48 46 44 38 38 43 37 52 53 52 56 52 50 48 49 50 49 49 48 50 51 52 55 62 65 67 67 67 64 62 62 62 64 64 66 67 68 67 67 68 68 67 67 67 66 67 66 65
49 45 43 43 41 32 40 40 47 52 49 48 48 47 47 47 48 49 51 50 48 50 51 53 54 55 60 62 59 56 56 54 54 56 59 58 58 57 58 60 61 65 65 64 65 66 66 66 65
47 43 35 33 32 35 41 34 41 54 50 48 44 44 45 46 46 46 46 46 45 46 49 51 51 51 54 54 53 53 53 54 52 53 54 55 55 54 54 56 57 58 58 58 59 61 63 64 62
47 45 34 26 33 37 40 31 46 53 54 50 47 45 44 44 46 45 44 45 44 45 47 50 50 50 51 51 50 50 51 50 50 52 53 52 52 52 53 54 55 55 56 55 56 57 57 57 60
45 40 46 34 40 32 40 42 52 53 53 48 46 44 41 43 45 45 44 44 45 45 45 49 51 50 52 52 51 50 51 50 49 51 51 49 50 52 51 52 52 53 53 53 53 53 53 53 55
47 50 37 37 28 29 41 42 42 45 40 47 45 41 41 44 44 44 44 44 44 46 47 45 46 49 49 50 52 51 51 51 51 50 48 48 49 50 50 51 51 51 52 52 52 52 52 52 52
42 42 42 44 42 33 35 42 49 44 46 45 45 43 41 44 43 44 44 44 44 44 44 45 45 44 48 48 47 48 48 47 48 48 49 49 49 49 49 50 50 51 50 51 51 50 51 50 50
50 49 49 40 38 42 40 38 53 51 49 47 45 44 44 45 45 45 44 44 44 43 43 43 45 44 46 46 47 47 48 49 49 49 49 51 51 53 52 52 52 51 52 51 50 49 51 50 49

GFSSGP_sfc_temp_114.txt.gz
Temp
75 77 78 71 55 55 53 56 65 63 62 68 70 67 63 69 65 55 75 78 80 80 82 81 79 79 79 79 79 78 79 79 79 78 79 79 80 79 79 79 79 80 80 80 80 79 79 79 77
73 82 73 65 51 49 53 61 62 64 67 68 69 68 67 64 71 71 70 78 80 81 81 81 79 79 79 78 78 78 78 79 79 78 79 79 79 79 79 79 79 79 79 79 79 78 78 77 77
73 82 63 57 54 50 52 62 63 67 68 68 66 69 69 63 71 68 73 78 79 78 80 82 79 79 78 78 79 78 78 78 79 78 78 79 79 79 79 79 79 78 78 78 78 78 77 76 76
73 68 66 53 55 56 60 61 65 66 66 67 67 62 68 71 70 71 75 77 76 78 77 76 78 78 78 78 78 78 78 78 79 79 78 78 79 79 79 78 77 77 77 77 77 77 76 76 76
71 65 54 52 55 58 64 65 65 64 64 66 66 62 62 70 74 74 73 75 73 75 78 79 78 78 77 77 77 78 78 78 78 78 78 79 79 78 77 77 77 77 77 77 77 77 76 75 75
60 62 51 50 55 60 62 65 63 63 63 65 62 62 61 71 70 70 72 73 73 73 76 78 77 77 77 77 77 77 77 77 78 78 78 78 78 78 77 76 76 77 77 77 77 76 76 75 75
57 54 53 55 54 56 60 64 58 61 61 61 62 56 64 69 70 71 72 72 73 72 74 76 77 77 75 76 76 76 76 77 77 76 77 76 76 76 77 76 76 76 77 76 76 76 76 75 75
59 55 52 54 54 53 59 62 64 61 60 65 64 57 58 65 71 71 70 70 71 73 72 72 73 77 77 78 74 74 75 75 75 75 74 73 73 74 75 75 75 76 76 75 75 75 75 75 74
63 49 49 52 55 54 60 58 62 62 58 62 63 64 68 71 71 67 65 67 67 71 71 71 71 72 75 77 77 73 73 73 73 72 71 71 71 74 74 73 73 74 74 75 75 75 74 73 72
54 48 51 58 57 57 60 57 58 56 58 59 62 66 69 70 66 63 62 61 64 66 68 69 69 69 71 76 74 74 77 72 72 73 73 71 73 75 78 74 71 73 73 73 74 74 73 71 69
55 50 57 58 58 59 58 57 60 55 53 59 58 62 65 64 63 62 62 63 63 65 66 68 69 68 68 69 69 69 73 72 75 78 76 74 76 75 74 72 71 69 69 70 72 71 72 68 69
51 57 59 57 57 56 54 58 54 57 56 63 61 63 62 62 62 62 62 63 63 64 65 66 67 67 67 65 67 68 68 71 69 72 73 74 72 73 74 73 73 70 70 69 68 69 70 71 72
52 53 57 57 55 54 57 52 53 54 60 63 63 64 61 62 62 63 64 65 65 64 65 65 66 65 67 66 65 67 67 68 72 70 70 74 73 71 72 71 73 70 69 69 68 68 69 70 73
55 54 55 55 54 55 51 52 54 56 60 62 64 62 61 62 62 62 63 62 64 65 64 66 67 66 65 64 65 66 67 69 70 71 71 72 69 68 68 69 69 70 70 69 68 68 68 67 69
55 48 51 52 53 52 53 48 49 57 61 59 61 63 62 62 64 61 62 61 63 64 65 65 66 68 66 64 64 65 67 69 67 68 68 68 69 69 68 69 68 69 69 69 68 68 68 67 67
49 47 40 49 52 51 49 42 55 61 58 57 60 61 61 62 62 63 62 62 62 62 62 65 69 66 65 64 63 64 66 67 67 69 68 68 69 69 67 68 66 69 68 68 68 67 66 66 65
45 37 43 44 53 51 47 43 55 60 60 57 58 57 59 60 61 61 61 60 61 63 61 61 63 63 63 64 63 63 64 65 66 67 67 66 66 67 66 66 64 65 64 67 67 66 66 63 64
37 39 44 41 48 49 45 45 53 57 58 54 54 53 56 57 57 60 59 61 61 60 61 61 61 61 61 60 60 59 58 63 65 66 64 65 66 66 64 63 64 65 64 64 65 65 65 64 64
44 42 41 47 49 44 44 46 51 56 52 51 50 52 52 52 56 57 59 57 56 57 57 58 59 61 59 57 56 56 56 60 62 63 68 68 68 68 64 64 66 65 64 65 66 65 63 63 64
42 38 39 45 50 46 44 45 51 55 53 51 50 49 48 49 51 54 54 53 52 53 53 54 57 58 60 58 58 58 58 59 60 63 65 66 68 69 67 66 64 64 64 64 65 65 62 63 64
39 33 37 37 45 48 44 40 45 50 53 55 54 50 48 46 47 50 51 50 50 50 50 53 55 56 59 60 58 57 58 58 59 61 63 65 67 66 67 65 64 63 63 62 62 63 63 61 62
35 45 44 42 35 28 43 25 43 47 48 53 49 46 44 44 48 51 49 49 49 49 52 54 55 57 60 59 57 55 55 55 57 60 62 64 67 68 65 65 65 63 62 61 61 63 63 61 60
41 46 43 42 37 33 36 27 40 47 46 45 45 45 44 45 46 48 48 49 49 49 49 52 53 55 55 57 56 54 52 53 56 56 58 59 58 60 60 61 63 63 61 60 61 62 61 62 60
49 42 43 43 37 28 31 30 34 42 42 43 45 43 44 45 46 48 48 49 47 48 48 51 51 52 53 53 53 52 53 53 53 53 53 54 54 55 56 58 58 58 58 58 59 60 61 60 61
44 34 24 24 29 23 36 26 33 46 45 43 42 41 43 45 46 46 45 45 45 45 46 50 49 49 50 50 50 50 48 49 49 50 48 49 49 50 51 53 54 54 55 55 56 57 57 55 57
42 39 23 18 19 23 35 23 34 48 48 47 45 41 42 44 46 45 45 44 44 45 45 45 49 49 50 48 48 48 47 47 47 46 46 46 47 47 50 51 52 52 53 54 54 54 53 53 54
41 36 41 28 30 23 28 35 45 49 47 45 42 43 43 43 45 45 45 44 44 45 44 44 45 47 47 49 49 48 48 47 46 46 46 46 47 50 50 50 51 51 52 52 52 51 51 52 51
42 45 30 33 16 19 27 33 31 40 40 43 42 39 42 44 44 45 44 44 45 45 45 44 45 44 47 47 48 48 47 47 47 48 46 46 45 46 47 48 50 50 50 51 50 50 51 50 50
37 36 38 38 33 22 23 26 42 41 41 42 42 42 42 43 44 44 44 45 44 44 44 44 44 45 45 46 46 47 46 47 47 46 47 47 48 48 48 49 49 49 49 50 49 49 49 49 49
43 42 40 28 30 32 30 29 49 47 46 45 44 43 42 45 45 45 45 45 44 44 44 43 44 45 46 46 47 46 47 48 47 47 46 48 47 48 47 46 46 48 48 48 48 47 48 48 47

GFSSGP_sfc_temp_117.txt.gz
Temp
71 69 65 63 51 47 44 51 54 57 58 60 64 63 60 60 60 52 71 73 76 78 80 80 79 79 79 78 78 78 78 78 78 79 79 80 79 79 79 79 79 79 80 80 80 79 78 78 77
67 70 64 56 45 40 45 52 53 57 60 64 67 65 63 59 67 65 64 73 76 79 79 80 78 78 78 78 78 78 78 79 78 79 79 78 79 79 79 79 79 79 79 79 79 78 78 77 77
70 72 57 50 44 43 46 53 56 61 65 64 62 65 62 60 66 63 67 73 75 77 77 79 78 78 78 78 78 78 78 78 78 78 78 78 79 79 79 79 78 78 77 78 78 77 77 76 76
64 62 58 48 45 51 52 52 59 61 64 66 61 57 64 67 66 65 70 72 71 75 75 77 77 78 78 77 78 78 78 78 78 78 78 78 79 79 79 78 77 76 77 77 77 77 76 75 76
62 56 47 44 48 51 54 60 61 59 59 59 61 55 57 66 70 69 69 71 70 74 75 78 78 78 77 76 77 77 78 78 78 78 78 78 79 79 78 77 77 76 76 77 77 77 76 75 75
54 54 43 42 47 52 53 58 58 57 59 59 58 55 56 64 66 66 68 69 70 70 74 77 77 76 77 77 77 77 77 77 77 77 78 78 78 78 78 77 76 76 77 77 77 76 76 75 75
52 48 45 44 48 50 53 59 52 54 56 56 57 52 57 60 64 67 67 69 69 70 71 74 74 76 74 75 75 76 76 76 76 76 76 76 76 76 77 76 76 76 76 76 76 76 76 75 75
53 50 46 46 47 46 55 58 58 56 53 62 60 53 51 57 63 66 66 65 67 69 68 70 70 73 75 76 73 74 74 74 75 74 74 73 72 73 75 74 74 75 76 75 75 75 75 75 74
57 45 43 45 48 50 56 54 59 59 53 57 57 57 61 63 65 63 61 62 63 67 67 68 68 70 70 72 75 72 72 72 72 72 71 70 70 71 72 71 71 73 74 75 75 75 75 73 72
50 42 46 52 51 51 55 54 54 53 53 53 57 62 64 63 61 59 58 57 59 61 63 64 65 66 68 72 70 70 73 73 71 70 70 70 70 71 74 71 70 72 73 73 74 74 73 71 68
51 46 52 51 55 56 55 53 57 50 49 53 52 57 60 61 60 59 59 58 59 61 62 64 64 64 64 65 64 66 67 68 72 71 70 70 73 71 72 69 70 70 69 69 71 71 71 68 67
47 53 54 54 54 53 50 54 51 52 53 57 56 58 59 59 59 59 59 59 59 60 62 63 63 63 62 61 62 63 65 67 68 71 72 70 72 70 71 69 68 69 69 68 68 68 68 67 68
48 49 54 53 52 50 53 49 48 50 56 58 60 61 58 58 59 60 60 61 59 59 60 61 62 62 63 61 60 61 63 65 68 69 69 67 67 71 72 69 68 68 68 68 67 67 68 67 68
49 51 51 51 51 52 49 49 50 52 55 59 59 58 57 58 59 58 58 57 58 59 59 61 62 62 62 61 60 60 61 65 66 67 69 69 65 66 66 66 67 67 68 68 68 67 67 67 67
51 45 46 47 50 49 49 45 45 53 57 57 58 59 59 60 59 55 56 57 57 58 59 60 62 63 61 60 59 60 59 64 65 66 67 65 66 64 66 65 65 66 67 67 66 66 67 66 65
45 43 35 45 48 49 48 41 51 55 54 54 56 57 57 56 57 56 57 57 57 57 57 59 62 61 59 58 58 59 60 59 62 66 66 65 65 65 64 64 66 66 66 66 66 66 66 66 65
40 32 37 41 50 48 44 41 51 54 54 52 52 51 54 53 55 55 56 55 55 55 56 56 58 58 59 60 58 57 58 57 59 63 65 65 65 64 64 64 64 64 64 64 64 64 64 64 64
30 32 40 38 45 46 41 41 49 52 52 50 48 48 48 50 51 55 54 55 54 53 54 54 55 56 58 58 57 55 54 55 56 61 65 64 65 63 61 63 63 63 62 62 63 63 63 64 63
39 36 34 41 46 42 40 41 47 51 50 49 47 44 45 47 51 53 53 52 51 51 51 52 52 54 55 55 55 53 53 52 55 60 63 63 62 62 63 62 62 62 61 61 62 62 61 61 63
39 33 33 40 47 44 41 41 48 50 49 50 46 43 43 44 46 50 50 50 48 48 49 50 52 54 55 56 57 54 53 54 57 59 60 63 64 64 64 63 62 62 61 60 63 63 62 62 63
35 32 32 34 41 43 40 36 41 47 50 52 47 46 43 43 43 46 48 47 46 46 47 50 52 53 54 55 55 54 54 54 55 56 58 61 64 65 65 65 65 62 61 61 61 62 62 59 60
32 42 41 39 32 24 39 23 36 43 45 47 44 41 40 41 43 47 47 46 46 46 48 49 51 54 54 54 52 51 50 50 52 53 54 57 58 58 58 63 64 62 62 59 60 60 59 58 57
38 43 40 39 32 28 31 24 34 41 40 42 39 39 40 41 43 44 44 46 48 46 45 48 49 52 52 52 52 51 52 51 52 52 54 55 55 55 55 56 60 62 61 60 60 60 60 59 60
46 40 40 43 38 24 28 28 30 37 42 41 42 39 41 42 43 45 46 46 47 46 46 45 47 49 50 51 50 49 49 49 49 49 49 51 50 50 51 53 54 54 56 56 57 58 57 57 59
41 32 18 24 22 21 32 23 32 41 42 43 41 37 37 40 41 45 44 44 45 46 45 46 47 47 49 49 48 47 47 46 45 45 45 46 46 45 46 48 49 50 51 53 55 55 54 54 54
38 35 20 16 15 21 29 21 33 44 44 44 44 40 38 40 41 42 44 43 44 45 45 45 45 46 47 46 46 47 47 45 44 44 45 44 44 45 46 46 47 49 50 52 53 52 52 53 52
38 30 38 24 23 17 21 32 42 44 41 41 40 40 36 37 45 46 42 42 44 41 45 44 45 46 47 46 47 46 46 46 44 45 46 45 45 48 47 48 49 49 50 50 49 50 50 51 50
39 41 28 27 14 17 20 27 30 37 39 42 40 39 38 41 42 44 42 43 43 45 44 45 45 45 46 47 47 47 47 47 46 47 45 46 47 48 48 48 48 49 49 49 48 46 46 46 47
35 33 35 34 29 20 20 23 39 39 41 42 42 41 39 40 42 42 44 44 43 45 44 44 45 45 46 46 46 47 46 46 46 46 46 43 44 46 46 46 46 46 47 46 46 46 47 47 47
40 37 36 25 27 27 25 25 44 45 45 43 42 42 40 41 43 43 42 42 42 42 44 42 41 42 44 45 43 43 43 45 45 45 45 46 46 47 47 46 44 44 43 42 41 41 43 42 42